<?xml version="1.0" encoding="UTF-8" standalone="no" ?>
<gpx xmlns="http://www.topografix.com/GPX/1/1" xmlns:xsi="http://www.w3.org/2001/XMLSchema-instance" xsi:schemaLocation="http://www.topografix.com/GPX/1/1 http://www.topografix.com/GPX/1/1/gpx.xsd" version="1.1" creator="VisuGPX - https://www.visugpx.com">
  <metadata>
    <name>Vielle Soubiran (40) - 16 kms</name>
  </metadata>
  <trk>
    <name><![CDATA[track]]></name>
    <trkseg>
      <trkpt lat="44.04439" lon="-0.18535">
        <ele>55</ele>
        <time>2014-07-22T13:00:36Z</time>
      </trkpt>
      <trkpt lat="44.04441" lon="-0.18536">
        <ele>55</ele>
        <time>2014-07-22T13:00:37Z</time>
      </trkpt>
      <trkpt lat="44.04442" lon="-0.18536">
        <ele>60</ele>
        <time>2014-07-22T13:00:42Z</time>
      </trkpt>
      <trkpt lat="44.04443" lon="-0.18535">
        <ele>64</ele>
        <time>2014-07-22T13:00:44Z</time>
      </trkpt>
      <trkpt lat="44.04443" lon="-0.18535">
        <ele>68</ele>
        <time>2014-07-22T13:00:46Z</time>
      </trkpt>
      <trkpt lat="44.04444" lon="-0.18535">
        <ele>71</ele>
        <time>2014-07-22T13:00:48Z</time>
      </trkpt>
      <trkpt lat="44.04444" lon="-0.18536">
        <ele>75</ele>
        <time>2014-07-22T13:00:50Z</time>
      </trkpt>
      <trkpt lat="44.04443" lon="-0.18536">
        <ele>79</ele>
        <time>2014-07-22T13:00:53Z</time>
      </trkpt>
      <trkpt lat="44.04444" lon="-0.18536">
        <ele>83</ele>
        <time>2014-07-22T13:00:56Z</time>
      </trkpt>
      <trkpt lat="44.04444" lon="-0.18536">
        <ele>87</ele>
        <time>2014-07-22T13:00:59Z</time>
      </trkpt>
      <trkpt lat="44.04443" lon="-0.18536">
        <ele>91</ele>
        <time>2014-07-22T13:01:02Z</time>
      </trkpt>
      <trkpt lat="44.04443" lon="-0.18536">
        <ele>93</ele>
        <time>2014-07-22T13:01:05Z</time>
      </trkpt>
      <trkpt lat="44.04444" lon="-0.18536">
        <ele>97</ele>
        <time>2014-07-22T13:01:09Z</time>
      </trkpt>
      <trkpt lat="44.04445" lon="-0.18537">
        <ele>101</ele>
        <time>2014-07-22T13:01:13Z</time>
      </trkpt>
      <trkpt lat="44.04445" lon="-0.18537">
        <ele>103</ele>
        <time>2014-07-22T13:01:18Z</time>
      </trkpt>
      <trkpt lat="44.04445" lon="-0.18538">
        <ele>107</ele>
        <time>2014-07-22T13:01:24Z</time>
      </trkpt>
      <trkpt lat="44.04445" lon="-0.18541">
        <ele>108</ele>
        <time>2014-07-22T13:01:26Z</time>
      </trkpt>
      <trkpt lat="44.04445" lon="-0.18551">
        <ele>110</ele>
        <time>2014-07-22T13:01:32Z</time>
      </trkpt>
      <trkpt lat="44.04451" lon="-0.18569">
        <ele>114</ele>
        <time>2014-07-22T13:01:45Z</time>
      </trkpt>
      <trkpt lat="44.04454" lon="-0.18572">
        <ele>114</ele>
        <time>2014-07-22T13:01:48Z</time>
      </trkpt>
      <trkpt lat="44.04462" lon="-0.18572">
        <ele>116</ele>
        <time>2014-07-22T13:01:57Z</time>
      </trkpt>
      <trkpt lat="44.04479" lon="-0.18567">
        <ele>117</ele>
        <time>2014-07-22T13:02:12Z</time>
      </trkpt>
      <trkpt lat="44.0449" lon="-0.18562">
        <ele>118</ele>
        <time>2014-07-22T13:02:22Z</time>
      </trkpt>
      <trkpt lat="44.04494" lon="-0.18561">
        <ele>119</ele>
        <time>2014-07-22T13:02:27Z</time>
      </trkpt>
      <trkpt lat="44.04507" lon="-0.18551">
        <ele>120</ele>
        <time>2014-07-22T13:02:39Z</time>
      </trkpt>
      <trkpt lat="44.04519" lon="-0.18544">
        <ele>120</ele>
        <time>2014-07-22T13:02:49Z</time>
      </trkpt>
      <trkpt lat="44.04524" lon="-0.18543">
        <ele>120</ele>
        <time>2014-07-22T13:02:53Z</time>
      </trkpt>
      <trkpt lat="44.04538" lon="-0.18538">
        <ele>120</ele>
        <time>2014-07-22T13:03:05Z</time>
      </trkpt>
      <trkpt lat="44.04552" lon="-0.18536">
        <ele>120</ele>
        <time>2014-07-22T13:03:19Z</time>
      </trkpt>
      <trkpt lat="44.04558" lon="-0.18536">
        <ele>119</ele>
        <time>2014-07-22T13:03:29Z</time>
      </trkpt>
      <trkpt lat="44.04573" lon="-0.18537">
        <ele>119</ele>
        <time>2014-07-22T13:03:41Z</time>
      </trkpt>
      <trkpt lat="44.04587" lon="-0.18537">
        <ele>120</ele>
        <time>2014-07-22T13:03:53Z</time>
      </trkpt>
      <trkpt lat="44.046" lon="-0.18536">
        <ele>120</ele>
        <time>2014-07-22T13:04:04Z</time>
      </trkpt>
      <trkpt lat="44.04615" lon="-0.18537">
        <ele>119</ele>
        <time>2014-07-22T13:04:16Z</time>
      </trkpt>
      <trkpt lat="44.0463" lon="-0.18534">
        <ele>119</ele>
        <time>2014-07-22T13:04:26Z</time>
      </trkpt>
      <trkpt lat="44.04643" lon="-0.18535">
        <ele>119</ele>
        <time>2014-07-22T13:04:36Z</time>
      </trkpt>
      <trkpt lat="44.04649" lon="-0.18536">
        <ele>119</ele>
        <time>2014-07-22T13:04:40Z</time>
      </trkpt>
      <trkpt lat="44.04657" lon="-0.18537">
        <ele>120</ele>
        <time>2014-07-22T13:04:47Z</time>
      </trkpt>
      <trkpt lat="44.0466" lon="-0.18539">
        <ele>120</ele>
        <time>2014-07-22T13:04:49Z</time>
      </trkpt>
      <trkpt lat="44.04675" lon="-0.18542">
        <ele>120</ele>
        <time>2014-07-22T13:05:01Z</time>
      </trkpt>
      <trkpt lat="44.04677" lon="-0.18543">
        <ele>120</ele>
        <time>2014-07-22T13:05:03Z</time>
      </trkpt>
      <trkpt lat="44.04686" lon="-0.18545">
        <ele>120</ele>
        <time>2014-07-22T13:05:11Z</time>
      </trkpt>
      <trkpt lat="44.04689" lon="-0.18545">
        <ele>120</ele>
        <time>2014-07-22T13:05:13Z</time>
      </trkpt>
      <trkpt lat="44.04699" lon="-0.18545">
        <ele>120</ele>
        <time>2014-07-22T13:05:22Z</time>
      </trkpt>
      <trkpt lat="44.04708" lon="-0.18543">
        <ele>120</ele>
        <time>2014-07-22T13:05:29Z</time>
      </trkpt>
      <trkpt lat="44.04721" lon="-0.18544">
        <ele>120</ele>
        <time>2014-07-22T13:05:40Z</time>
      </trkpt>
      <trkpt lat="44.04725" lon="-0.18544">
        <ele>120</ele>
        <time>2014-07-22T13:05:43Z</time>
      </trkpt>
      <trkpt lat="44.04728" lon="-0.18545">
        <ele>121</ele>
        <time>2014-07-22T13:05:53Z</time>
      </trkpt>
      <trkpt lat="44.04739" lon="-0.18545">
        <ele>121</ele>
        <time>2014-07-22T13:06:04Z</time>
      </trkpt>
      <trkpt lat="44.04747" lon="-0.18544">
        <ele>121</ele>
        <time>2014-07-22T13:06:12Z</time>
      </trkpt>
      <trkpt lat="44.04758" lon="-0.18541">
        <ele>121</ele>
        <time>2014-07-22T13:06:22Z</time>
      </trkpt>
      <trkpt lat="44.04769" lon="-0.18536">
        <ele>121</ele>
        <time>2014-07-22T13:06:31Z</time>
      </trkpt>
      <trkpt lat="44.0478" lon="-0.1853">
        <ele>121</ele>
        <time>2014-07-22T13:06:39Z</time>
      </trkpt>
      <trkpt lat="44.04786" lon="-0.18525">
        <ele>121</ele>
        <time>2014-07-22T13:06:42Z</time>
      </trkpt>
      <trkpt lat="44.04792" lon="-0.1852">
        <ele>121</ele>
        <time>2014-07-22T13:06:45Z</time>
      </trkpt>
      <trkpt lat="44.04805" lon="-0.18507">
        <ele>121</ele>
        <time>2014-07-22T13:06:56Z</time>
      </trkpt>
      <trkpt lat="44.04814" lon="-0.18496">
        <ele>121</ele>
        <time>2014-07-22T13:07:05Z</time>
      </trkpt>
      <trkpt lat="44.04816" lon="-0.18494">
        <ele>121</ele>
        <time>2014-07-22T13:07:07Z</time>
      </trkpt>
      <trkpt lat="44.04829" lon="-0.18482">
        <ele>121</ele>
        <time>2014-07-22T13:07:18Z</time>
      </trkpt>
      <trkpt lat="44.04833" lon="-0.18478">
        <ele>121</ele>
        <time>2014-07-22T13:07:22Z</time>
      </trkpt>
      <trkpt lat="44.04842" lon="-0.18469">
        <ele>121</ele>
        <time>2014-07-22T13:07:31Z</time>
      </trkpt>
      <trkpt lat="44.04842" lon="-0.18469">
        <ele>121</ele>
        <time>2014-07-22T13:07:33Z</time>
      </trkpt>
      <trkpt lat="44.04845" lon="-0.18461">
        <ele>122</ele>
        <time>2014-07-22T13:07:37Z</time>
      </trkpt>
      <trkpt lat="44.04847" lon="-0.18456">
        <ele>122</ele>
        <time>2014-07-22T13:07:40Z</time>
      </trkpt>
      <trkpt lat="44.04853" lon="-0.18448">
        <ele>122</ele>
        <time>2014-07-22T13:07:48Z</time>
      </trkpt>
      <trkpt lat="44.04854" lon="-0.18446">
        <ele>122</ele>
        <time>2014-07-22T13:07:50Z</time>
      </trkpt>
      <trkpt lat="44.04861" lon="-0.18434">
        <ele>122</ele>
        <time>2014-07-22T13:08:00Z</time>
      </trkpt>
      <trkpt lat="44.04872" lon="-0.18421">
        <ele>121</ele>
        <time>2014-07-22T13:08:11Z</time>
      </trkpt>
      <trkpt lat="44.0488" lon="-0.18415">
        <ele>122</ele>
        <time>2014-07-22T13:08:19Z</time>
      </trkpt>
      <trkpt lat="44.04886" lon="-0.18407">
        <ele>122</ele>
        <time>2014-07-22T13:08:29Z</time>
      </trkpt>
      <trkpt lat="44.0489" lon="-0.18404">
        <ele>122</ele>
        <time>2014-07-22T13:08:32Z</time>
      </trkpt>
      <trkpt lat="44.04896" lon="-0.184">
        <ele>122</ele>
        <time>2014-07-22T13:08:36Z</time>
      </trkpt>
      <trkpt lat="44.04907" lon="-0.18395">
        <ele>122</ele>
        <time>2014-07-22T13:08:43Z</time>
      </trkpt>
      <trkpt lat="44.04922" lon="-0.18387">
        <ele>122</ele>
        <time>2014-07-22T13:08:54Z</time>
      </trkpt>
      <trkpt lat="44.04928" lon="-0.18378">
        <ele>122</ele>
        <time>2014-07-22T13:09:03Z</time>
      </trkpt>
      <trkpt lat="44.04929" lon="-0.18377">
        <ele>122</ele>
        <time>2014-07-22T13:09:04Z</time>
      </trkpt>
      <trkpt lat="44.04933" lon="-0.18374">
        <ele>122</ele>
        <time>2014-07-22T13:09:08Z</time>
      </trkpt>
      <trkpt lat="44.04941" lon="-0.18362">
        <ele>122</ele>
        <time>2014-07-22T13:09:17Z</time>
      </trkpt>
      <trkpt lat="44.04943" lon="-0.1836">
        <ele>122</ele>
        <time>2014-07-22T13:09:19Z</time>
      </trkpt>
      <trkpt lat="44.04954" lon="-0.18349">
        <ele>122</ele>
        <time>2014-07-22T13:09:26Z</time>
      </trkpt>
      <trkpt lat="44.04956" lon="-0.18346">
        <ele>121</ele>
        <time>2014-07-22T13:09:28Z</time>
      </trkpt>
      <trkpt lat="44.0496" lon="-0.18342">
        <ele>122</ele>
        <time>2014-07-22T13:09:32Z</time>
      </trkpt>
      <trkpt lat="44.04963" lon="-0.18338">
        <ele>122</ele>
        <time>2014-07-22T13:09:35Z</time>
      </trkpt>
      <trkpt lat="44.04966" lon="-0.18334">
        <ele>122</ele>
        <time>2014-07-22T13:09:38Z</time>
      </trkpt>
      <trkpt lat="44.04968" lon="-0.18333">
        <ele>122</ele>
        <time>2014-07-22T13:09:39Z</time>
      </trkpt>
      <trkpt lat="44.04973" lon="-0.18327">
        <ele>122</ele>
        <time>2014-07-22T13:09:44Z</time>
      </trkpt>
      <trkpt lat="44.04974" lon="-0.18324">
        <ele>122</ele>
        <time>2014-07-22T13:09:47Z</time>
      </trkpt>
      <trkpt lat="44.04976" lon="-0.18321">
        <ele>122</ele>
        <time>2014-07-22T13:09:50Z</time>
      </trkpt>
      <trkpt lat="44.04977" lon="-0.18319">
        <ele>122</ele>
        <time>2014-07-22T13:09:52Z</time>
      </trkpt>
      <trkpt lat="44.04986" lon="-0.18311">
        <ele>122</ele>
        <time>2014-07-22T13:10:01Z</time>
      </trkpt>
      <trkpt lat="44.04988" lon="-0.18308">
        <ele>123</ele>
        <time>2014-07-22T13:10:04Z</time>
      </trkpt>
      <trkpt lat="44.04991" lon="-0.18305">
        <ele>123</ele>
        <time>2014-07-22T13:10:07Z</time>
      </trkpt>
      <trkpt lat="44.05004" lon="-0.18296">
        <ele>122</ele>
        <time>2014-07-22T13:10:19Z</time>
      </trkpt>
      <trkpt lat="44.05007" lon="-0.18296">
        <ele>122</ele>
        <time>2014-07-22T13:10:21Z</time>
      </trkpt>
      <trkpt lat="44.05016" lon="-0.18289">
        <ele>123</ele>
        <time>2014-07-22T13:10:31Z</time>
      </trkpt>
      <trkpt lat="44.05022" lon="-0.18283">
        <ele>122</ele>
        <time>2014-07-22T13:10:38Z</time>
      </trkpt>
      <trkpt lat="44.05036" lon="-0.18274">
        <ele>122</ele>
        <time>2014-07-22T13:10:49Z</time>
      </trkpt>
      <trkpt lat="44.05037" lon="-0.18273">
        <ele>122</ele>
        <time>2014-07-22T13:10:50Z</time>
      </trkpt>
      <trkpt lat="44.05041" lon="-0.18262">
        <ele>122</ele>
        <time>2014-07-22T13:10:57Z</time>
      </trkpt>
      <trkpt lat="44.05054" lon="-0.18255">
        <ele>123</ele>
        <time>2014-07-22T13:11:07Z</time>
      </trkpt>
      <trkpt lat="44.05064" lon="-0.18253">
        <ele>123</ele>
        <time>2014-07-22T13:11:13Z</time>
      </trkpt>
      <trkpt lat="44.05066" lon="-0.18249">
        <ele>123</ele>
        <time>2014-07-22T13:11:16Z</time>
      </trkpt>
      <trkpt lat="44.05072" lon="-0.18247">
        <ele>123</ele>
        <time>2014-07-22T13:11:21Z</time>
      </trkpt>
      <trkpt lat="44.05076" lon="-0.18245">
        <ele>123</ele>
        <time>2014-07-22T13:11:24Z</time>
      </trkpt>
      <trkpt lat="44.05079" lon="-0.18241">
        <ele>123</ele>
        <time>2014-07-22T13:11:27Z</time>
      </trkpt>
      <trkpt lat="44.05091" lon="-0.18233">
        <ele>124</ele>
        <time>2014-07-22T13:11:38Z</time>
      </trkpt>
      <trkpt lat="44.05102" lon="-0.18231">
        <ele>124</ele>
        <time>2014-07-22T13:11:49Z</time>
      </trkpt>
      <trkpt lat="44.05114" lon="-0.18246">
        <ele>124</ele>
        <time>2014-07-22T13:12:00Z</time>
      </trkpt>
      <trkpt lat="44.05115" lon="-0.18247">
        <ele>124</ele>
        <time>2014-07-22T13:12:01Z</time>
      </trkpt>
      <trkpt lat="44.05119" lon="-0.1826">
        <ele>124</ele>
        <time>2014-07-22T13:12:10Z</time>
      </trkpt>
      <trkpt lat="44.0512" lon="-0.18279">
        <ele>124</ele>
        <time>2014-07-22T13:12:21Z</time>
      </trkpt>
      <trkpt lat="44.0512" lon="-0.18286">
        <ele>124</ele>
        <time>2014-07-22T13:12:24Z</time>
      </trkpt>
      <trkpt lat="44.05119" lon="-0.18305">
        <ele>124</ele>
        <time>2014-07-22T13:12:32Z</time>
      </trkpt>
      <trkpt lat="44.05125" lon="-0.18321">
        <ele>123</ele>
        <time>2014-07-22T13:12:42Z</time>
      </trkpt>
      <trkpt lat="44.05128" lon="-0.18325">
        <ele>123</ele>
        <time>2014-07-22T13:12:47Z</time>
      </trkpt>
      <trkpt lat="44.0513" lon="-0.1834">
        <ele>123</ele>
        <time>2014-07-22T13:12:54Z</time>
      </trkpt>
      <trkpt lat="44.0513" lon="-0.18351">
        <ele>123</ele>
        <time>2014-07-22T13:13:00Z</time>
      </trkpt>
      <trkpt lat="44.0513" lon="-0.18372">
        <ele>123</ele>
        <time>2014-07-22T13:13:12Z</time>
      </trkpt>
      <trkpt lat="44.05131" lon="-0.18374">
        <ele>123</ele>
        <time>2014-07-22T13:13:13Z</time>
      </trkpt>
      <trkpt lat="44.05134" lon="-0.18394">
        <ele>123</ele>
        <time>2014-07-22T13:13:25Z</time>
      </trkpt>
      <trkpt lat="44.05139" lon="-0.18417">
        <ele>123</ele>
        <time>2014-07-22T13:13:38Z</time>
      </trkpt>
      <trkpt lat="44.05139" lon="-0.18421">
        <ele>123</ele>
        <time>2014-07-22T13:13:41Z</time>
      </trkpt>
      <trkpt lat="44.05143" lon="-0.18436">
        <ele>123</ele>
        <time>2014-07-22T13:13:50Z</time>
      </trkpt>
      <trkpt lat="44.05146" lon="-0.18445">
        <ele>123</ele>
        <time>2014-07-22T13:13:56Z</time>
      </trkpt>
      <trkpt lat="44.05145" lon="-0.1845">
        <ele>123</ele>
        <time>2014-07-22T13:13:59Z</time>
      </trkpt>
      <trkpt lat="44.05147" lon="-0.18472">
        <ele>123</ele>
        <time>2014-07-22T13:14:11Z</time>
      </trkpt>
      <trkpt lat="44.05147" lon="-0.18475">
        <ele>123</ele>
        <time>2014-07-22T13:14:12Z</time>
      </trkpt>
      <trkpt lat="44.05145" lon="-0.18484">
        <ele>123</ele>
        <time>2014-07-22T13:14:16Z</time>
      </trkpt>
      <trkpt lat="44.0515" lon="-0.18498">
        <ele>123</ele>
        <time>2014-07-22T13:14:25Z</time>
      </trkpt>
      <trkpt lat="44.05153" lon="-0.18508">
        <ele>122</ele>
        <time>2014-07-22T13:14:31Z</time>
      </trkpt>
      <trkpt lat="44.05152" lon="-0.18524">
        <ele>122</ele>
        <time>2014-07-22T13:14:37Z</time>
      </trkpt>
      <trkpt lat="44.05159" lon="-0.18544">
        <ele>122</ele>
        <time>2014-07-22T13:14:48Z</time>
      </trkpt>
      <trkpt lat="44.05163" lon="-0.1856">
        <ele>122</ele>
        <time>2014-07-22T13:14:57Z</time>
      </trkpt>
      <trkpt lat="44.05167" lon="-0.18572">
        <ele>122</ele>
        <time>2014-07-22T13:15:05Z</time>
      </trkpt>
      <trkpt lat="44.05169" lon="-0.18583">
        <ele>121</ele>
        <time>2014-07-22T13:15:12Z</time>
      </trkpt>
      <trkpt lat="44.05171" lon="-0.18597">
        <ele>121</ele>
        <time>2014-07-22T13:15:21Z</time>
      </trkpt>
      <trkpt lat="44.05171" lon="-0.18599">
        <ele>121</ele>
        <time>2014-07-22T13:15:22Z</time>
      </trkpt>
      <trkpt lat="44.0517" lon="-0.18607">
        <ele>121</ele>
        <time>2014-07-22T13:15:26Z</time>
      </trkpt>
      <trkpt lat="44.05173" lon="-0.18617">
        <ele>121</ele>
        <time>2014-07-22T13:15:31Z</time>
      </trkpt>
      <trkpt lat="44.05174" lon="-0.18621">
        <ele>121</ele>
        <time>2014-07-22T13:15:33Z</time>
      </trkpt>
      <trkpt lat="44.05175" lon="-0.18624">
        <ele>121</ele>
        <time>2014-07-22T13:15:35Z</time>
      </trkpt>
      <trkpt lat="44.05175" lon="-0.18628">
        <ele>121</ele>
        <time>2014-07-22T13:15:37Z</time>
      </trkpt>
      <trkpt lat="44.05174" lon="-0.18633">
        <ele>121</ele>
        <time>2014-07-22T13:15:41Z</time>
      </trkpt>
      <trkpt lat="44.05175" lon="-0.18649">
        <ele>121</ele>
        <time>2014-07-22T13:15:52Z</time>
      </trkpt>
      <trkpt lat="44.05176" lon="-0.18656">
        <ele>120</ele>
        <time>2014-07-22T13:15:56Z</time>
      </trkpt>
      <trkpt lat="44.0518" lon="-0.18667">
        <ele>120</ele>
        <time>2014-07-22T13:16:03Z</time>
      </trkpt>
      <trkpt lat="44.05181" lon="-0.18679">
        <ele>120</ele>
        <time>2014-07-22T13:16:12Z</time>
      </trkpt>
      <trkpt lat="44.05181" lon="-0.18682">
        <ele>120</ele>
        <time>2014-07-22T13:16:15Z</time>
      </trkpt>
      <trkpt lat="44.05185" lon="-0.1869">
        <ele>120</ele>
        <time>2014-07-22T13:16:19Z</time>
      </trkpt>
      <trkpt lat="44.05193" lon="-0.187">
        <ele>120</ele>
        <time>2014-07-22T13:16:27Z</time>
      </trkpt>
      <trkpt lat="44.05199" lon="-0.18719">
        <ele>120</ele>
        <time>2014-07-22T13:16:37Z</time>
      </trkpt>
      <trkpt lat="44.05205" lon="-0.18734">
        <ele>120</ele>
        <time>2014-07-22T13:16:46Z</time>
      </trkpt>
      <trkpt lat="44.05206" lon="-0.18743">
        <ele>120</ele>
        <time>2014-07-22T13:16:51Z</time>
      </trkpt>
      <trkpt lat="44.05209" lon="-0.18763">
        <ele>120</ele>
        <time>2014-07-22T13:17:03Z</time>
      </trkpt>
      <trkpt lat="44.05213" lon="-0.1878">
        <ele>120</ele>
        <time>2014-07-22T13:17:14Z</time>
      </trkpt>
      <trkpt lat="44.05217" lon="-0.18793">
        <ele>120</ele>
        <time>2014-07-22T13:17:22Z</time>
      </trkpt>
      <trkpt lat="44.05219" lon="-0.18807">
        <ele>120</ele>
        <time>2014-07-22T13:17:31Z</time>
      </trkpt>
      <trkpt lat="44.05222" lon="-0.18817">
        <ele>120</ele>
        <time>2014-07-22T13:17:38Z</time>
      </trkpt>
      <trkpt lat="44.0522" lon="-0.18837">
        <ele>120</ele>
        <time>2014-07-22T13:17:49Z</time>
      </trkpt>
      <trkpt lat="44.05222" lon="-0.18847">
        <ele>119</ele>
        <time>2014-07-22T13:17:55Z</time>
      </trkpt>
      <trkpt lat="44.05221" lon="-0.18855">
        <ele>119</ele>
        <time>2014-07-22T13:17:59Z</time>
      </trkpt>
      <trkpt lat="44.05226" lon="-0.18864">
        <ele>119</ele>
        <time>2014-07-22T13:18:04Z</time>
      </trkpt>
      <trkpt lat="44.05227" lon="-0.18868">
        <ele>119</ele>
        <time>2014-07-22T13:18:06Z</time>
      </trkpt>
      <trkpt lat="44.0523" lon="-0.18876">
        <ele>119</ele>
        <time>2014-07-22T13:18:12Z</time>
      </trkpt>
      <trkpt lat="44.05234" lon="-0.18892">
        <ele>119</ele>
        <time>2014-07-22T13:18:22Z</time>
      </trkpt>
      <trkpt lat="44.05236" lon="-0.18901">
        <ele>119</ele>
        <time>2014-07-22T13:18:28Z</time>
      </trkpt>
      <trkpt lat="44.05239" lon="-0.18911">
        <ele>119</ele>
        <time>2014-07-22T13:18:34Z</time>
      </trkpt>
      <trkpt lat="44.0524" lon="-0.18921">
        <ele>119</ele>
        <time>2014-07-22T13:18:39Z</time>
      </trkpt>
      <trkpt lat="44.05239" lon="-0.18937">
        <ele>119</ele>
        <time>2014-07-22T13:18:46Z</time>
      </trkpt>
      <trkpt lat="44.0524" lon="-0.18946">
        <ele>119</ele>
        <time>2014-07-22T13:18:51Z</time>
      </trkpt>
      <trkpt lat="44.05242" lon="-0.1895">
        <ele>119</ele>
        <time>2014-07-22T13:18:53Z</time>
      </trkpt>
      <trkpt lat="44.05243" lon="-0.18961">
        <ele>119</ele>
        <time>2014-07-22T13:19:00Z</time>
      </trkpt>
      <trkpt lat="44.05244" lon="-0.18979">
        <ele>119</ele>
        <time>2014-07-22T13:19:10Z</time>
      </trkpt>
      <trkpt lat="44.05249" lon="-0.18998">
        <ele>119</ele>
        <time>2014-07-22T13:19:21Z</time>
      </trkpt>
      <trkpt lat="44.05255" lon="-0.19014">
        <ele>119</ele>
        <time>2014-07-22T13:19:30Z</time>
      </trkpt>
      <trkpt lat="44.05254" lon="-0.1902">
        <ele>119</ele>
        <time>2014-07-22T13:19:34Z</time>
      </trkpt>
      <trkpt lat="44.05261" lon="-0.19032">
        <ele>118</ele>
        <time>2014-07-22T13:19:42Z</time>
      </trkpt>
      <trkpt lat="44.05262" lon="-0.19036">
        <ele>119</ele>
        <time>2014-07-22T13:19:45Z</time>
      </trkpt>
      <trkpt lat="44.05266" lon="-0.19046">
        <ele>119</ele>
        <time>2014-07-22T13:19:53Z</time>
      </trkpt>
      <trkpt lat="44.05272" lon="-0.19058">
        <ele>119</ele>
        <time>2014-07-22T13:20:02Z</time>
      </trkpt>
      <trkpt lat="44.05272" lon="-0.19061">
        <ele>119</ele>
        <time>2014-07-22T13:20:04Z</time>
      </trkpt>
      <trkpt lat="44.05275" lon="-0.19066">
        <ele>120</ele>
        <time>2014-07-22T13:20:07Z</time>
      </trkpt>
      <trkpt lat="44.05283" lon="-0.19081">
        <ele>119</ele>
        <time>2014-07-22T13:20:18Z</time>
      </trkpt>
      <trkpt lat="44.05285" lon="-0.19087">
        <ele>119</ele>
        <time>2014-07-22T13:20:22Z</time>
      </trkpt>
      <trkpt lat="44.05291" lon="-0.1909">
        <ele>119</ele>
        <time>2014-07-22T13:20:27Z</time>
      </trkpt>
      <trkpt lat="44.05294" lon="-0.19108">
        <ele>119</ele>
        <time>2014-07-22T13:20:37Z</time>
      </trkpt>
      <trkpt lat="44.05295" lon="-0.19116">
        <ele>119</ele>
        <time>2014-07-22T13:20:42Z</time>
      </trkpt>
      <trkpt lat="44.05297" lon="-0.19125">
        <ele>119</ele>
        <time>2014-07-22T13:20:48Z</time>
      </trkpt>
      <trkpt lat="44.05302" lon="-0.19134">
        <ele>118</ele>
        <time>2014-07-22T13:20:55Z</time>
      </trkpt>
      <trkpt lat="44.05306" lon="-0.19148">
        <ele>118</ele>
        <time>2014-07-22T13:21:02Z</time>
      </trkpt>
      <trkpt lat="44.05313" lon="-0.19161">
        <ele>119</ele>
        <time>2014-07-22T13:21:11Z</time>
      </trkpt>
      <trkpt lat="44.05317" lon="-0.19171">
        <ele>118</ele>
        <time>2014-07-22T13:21:18Z</time>
      </trkpt>
      <trkpt lat="44.05319" lon="-0.19177">
        <ele>118</ele>
        <time>2014-07-22T13:21:22Z</time>
      </trkpt>
      <trkpt lat="44.05324" lon="-0.19197">
        <ele>118</ele>
        <time>2014-07-22T13:21:33Z</time>
      </trkpt>
      <trkpt lat="44.05327" lon="-0.19217">
        <ele>118</ele>
        <time>2014-07-22T13:21:43Z</time>
      </trkpt>
      <trkpt lat="44.05331" lon="-0.1923">
        <ele>118</ele>
        <time>2014-07-22T13:21:52Z</time>
      </trkpt>
      <trkpt lat="44.05331" lon="-0.19232">
        <ele>118</ele>
        <time>2014-07-22T13:21:53Z</time>
      </trkpt>
      <trkpt lat="44.05332" lon="-0.19243">
        <ele>118</ele>
        <time>2014-07-22T13:21:59Z</time>
      </trkpt>
      <trkpt lat="44.05338" lon="-0.19261">
        <ele>118</ele>
        <time>2014-07-22T13:22:10Z</time>
      </trkpt>
      <trkpt lat="44.05344" lon="-0.19279">
        <ele>119</ele>
        <time>2014-07-22T13:22:23Z</time>
      </trkpt>
      <trkpt lat="44.05344" lon="-0.19282">
        <ele>119</ele>
        <time>2014-07-22T13:22:25Z</time>
      </trkpt>
      <trkpt lat="44.05347" lon="-0.19292">
        <ele>118</ele>
        <time>2014-07-22T13:22:31Z</time>
      </trkpt>
      <trkpt lat="44.05349" lon="-0.19296">
        <ele>118</ele>
        <time>2014-07-22T13:22:34Z</time>
      </trkpt>
      <trkpt lat="44.05357" lon="-0.19309">
        <ele>118</ele>
        <time>2014-07-22T13:22:44Z</time>
      </trkpt>
      <trkpt lat="44.05362" lon="-0.1932">
        <ele>119</ele>
        <time>2014-07-22T13:22:52Z</time>
      </trkpt>
      <trkpt lat="44.05364" lon="-0.19327">
        <ele>119</ele>
        <time>2014-07-22T13:22:58Z</time>
      </trkpt>
      <trkpt lat="44.05368" lon="-0.19343">
        <ele>119</ele>
        <time>2014-07-22T13:23:06Z</time>
      </trkpt>
      <trkpt lat="44.05369" lon="-0.19346">
        <ele>119</ele>
        <time>2014-07-22T13:23:08Z</time>
      </trkpt>
      <trkpt lat="44.05374" lon="-0.19358">
        <ele>119</ele>
        <time>2014-07-22T13:23:17Z</time>
      </trkpt>
      <trkpt lat="44.05378" lon="-0.19363">
        <ele>119</ele>
        <time>2014-07-22T13:23:21Z</time>
      </trkpt>
      <trkpt lat="44.05378" lon="-0.19372">
        <ele>119</ele>
        <time>2014-07-22T13:23:25Z</time>
      </trkpt>
      <trkpt lat="44.0538" lon="-0.19385">
        <ele>120</ele>
        <time>2014-07-22T13:23:32Z</time>
      </trkpt>
      <trkpt lat="44.05384" lon="-0.19399">
        <ele>119</ele>
        <time>2014-07-22T13:23:42Z</time>
      </trkpt>
      <trkpt lat="44.05386" lon="-0.19408">
        <ele>119</ele>
        <time>2014-07-22T13:23:47Z</time>
      </trkpt>
      <trkpt lat="44.05388" lon="-0.19415">
        <ele>119</ele>
        <time>2014-07-22T13:23:52Z</time>
      </trkpt>
      <trkpt lat="44.05394" lon="-0.19427">
        <ele>119</ele>
        <time>2014-07-22T13:24:00Z</time>
      </trkpt>
      <trkpt lat="44.05401" lon="-0.19434">
        <ele>119</ele>
        <time>2014-07-22T13:24:06Z</time>
      </trkpt>
      <trkpt lat="44.05405" lon="-0.19447">
        <ele>119</ele>
        <time>2014-07-22T13:24:15Z</time>
      </trkpt>
      <trkpt lat="44.05412" lon="-0.19465">
        <ele>119</ele>
        <time>2014-07-22T13:24:26Z</time>
      </trkpt>
      <trkpt lat="44.05419" lon="-0.19477">
        <ele>119</ele>
        <time>2014-07-22T13:24:35Z</time>
      </trkpt>
      <trkpt lat="44.05422" lon="-0.19489">
        <ele>119</ele>
        <time>2014-07-22T13:24:43Z</time>
      </trkpt>
      <trkpt lat="44.05423" lon="-0.19499">
        <ele>119</ele>
        <time>2014-07-22T13:24:48Z</time>
      </trkpt>
      <trkpt lat="44.05425" lon="-0.19506">
        <ele>119</ele>
        <time>2014-07-22T13:24:52Z</time>
      </trkpt>
      <trkpt lat="44.05428" lon="-0.19509">
        <ele>119</ele>
        <time>2014-07-22T13:24:55Z</time>
      </trkpt>
      <trkpt lat="44.05431" lon="-0.19527">
        <ele>119</ele>
        <time>2014-07-22T13:25:05Z</time>
      </trkpt>
      <trkpt lat="44.05433" lon="-0.1953">
        <ele>119</ele>
        <time>2014-07-22T13:25:07Z</time>
      </trkpt>
      <trkpt lat="44.05434" lon="-0.19532">
        <ele>119</ele>
        <time>2014-07-22T13:25:09Z</time>
      </trkpt>
      <trkpt lat="44.05438" lon="-0.19538">
        <ele>119</ele>
        <time>2014-07-22T13:25:15Z</time>
      </trkpt>
      <trkpt lat="44.05442" lon="-0.19546">
        <ele>119</ele>
        <time>2014-07-22T13:25:22Z</time>
      </trkpt>
      <trkpt lat="44.05444" lon="-0.19551">
        <ele>119</ele>
        <time>2014-07-22T13:25:30Z</time>
      </trkpt>
      <trkpt lat="44.05444" lon="-0.19552">
        <ele>119</ele>
        <time>2014-07-22T13:25:46Z</time>
      </trkpt>
      <trkpt lat="44.05444" lon="-0.19553">
        <ele>119</ele>
        <time>2014-07-22T13:26:06Z</time>
      </trkpt>
      <trkpt lat="44.05446" lon="-0.19551">
        <ele>119</ele>
        <time>2014-07-22T13:26:22Z</time>
      </trkpt>
      <trkpt lat="44.05445" lon="-0.1955">
        <ele>119</ele>
        <time>2014-07-22T13:26:49Z</time>
      </trkpt>
      <trkpt lat="44.05445" lon="-0.1955">
        <ele>119</ele>
        <time>2014-07-22T13:27:07Z</time>
      </trkpt>
      <trkpt lat="44.05445" lon="-0.1955">
        <ele>119</ele>
        <time>2014-07-22T13:27:32Z</time>
      </trkpt>
      <trkpt lat="44.05445" lon="-0.1955">
        <ele>119</ele>
        <time>2014-07-22T13:27:53Z</time>
      </trkpt>
      <trkpt lat="44.05445" lon="-0.19551">
        <ele>119</ele>
        <time>2014-07-22T13:28:09Z</time>
      </trkpt>
      <trkpt lat="44.05446" lon="-0.19555">
        <ele>119</ele>
        <time>2014-07-22T13:28:38Z</time>
      </trkpt>
      <trkpt lat="44.05447" lon="-0.19556">
        <ele>119</ele>
        <time>2014-07-22T13:28:39Z</time>
      </trkpt>
      <trkpt lat="44.05449" lon="-0.19568">
        <ele>119</ele>
        <time>2014-07-22T13:28:46Z</time>
      </trkpt>
      <trkpt lat="44.0545" lon="-0.19573">
        <ele>119</ele>
        <time>2014-07-22T13:28:49Z</time>
      </trkpt>
      <trkpt lat="44.05456" lon="-0.19589">
        <ele>119</ele>
        <time>2014-07-22T13:29:00Z</time>
      </trkpt>
      <trkpt lat="44.0546" lon="-0.19599">
        <ele>120</ele>
        <time>2014-07-22T13:29:06Z</time>
      </trkpt>
      <trkpt lat="44.05463" lon="-0.19608">
        <ele>119</ele>
        <time>2014-07-22T13:29:12Z</time>
      </trkpt>
      <trkpt lat="44.05467" lon="-0.19617">
        <ele>120</ele>
        <time>2014-07-22T13:29:18Z</time>
      </trkpt>
      <trkpt lat="44.05473" lon="-0.1963">
        <ele>120</ele>
        <time>2014-07-22T13:29:29Z</time>
      </trkpt>
      <trkpt lat="44.05479" lon="-0.19649">
        <ele>120</ele>
        <time>2014-07-22T13:29:40Z</time>
      </trkpt>
      <trkpt lat="44.05483" lon="-0.19657">
        <ele>120</ele>
        <time>2014-07-22T13:29:45Z</time>
      </trkpt>
      <trkpt lat="44.05488" lon="-0.19677">
        <ele>119</ele>
        <time>2014-07-22T13:29:58Z</time>
      </trkpt>
      <trkpt lat="44.0549" lon="-0.19687">
        <ele>119</ele>
        <time>2014-07-22T13:30:04Z</time>
      </trkpt>
      <trkpt lat="44.05493" lon="-0.19694">
        <ele>119</ele>
        <time>2014-07-22T13:30:09Z</time>
      </trkpt>
      <trkpt lat="44.05494" lon="-0.19697">
        <ele>119</ele>
        <time>2014-07-22T13:30:11Z</time>
      </trkpt>
      <trkpt lat="44.05499" lon="-0.19706">
        <ele>119</ele>
        <time>2014-07-22T13:30:18Z</time>
      </trkpt>
      <trkpt lat="44.05504" lon="-0.19713">
        <ele>119</ele>
        <time>2014-07-22T13:30:24Z</time>
      </trkpt>
      <trkpt lat="44.05514" lon="-0.19731">
        <ele>118</ele>
        <time>2014-07-22T13:30:36Z</time>
      </trkpt>
      <trkpt lat="44.05515" lon="-0.19734">
        <ele>118</ele>
        <time>2014-07-22T13:30:38Z</time>
      </trkpt>
      <trkpt lat="44.05517" lon="-0.19741">
        <ele>118</ele>
        <time>2014-07-22T13:30:42Z</time>
      </trkpt>
      <trkpt lat="44.05519" lon="-0.19753">
        <ele>117</ele>
        <time>2014-07-22T13:30:49Z</time>
      </trkpt>
      <trkpt lat="44.05521" lon="-0.19757">
        <ele>118</ele>
        <time>2014-07-22T13:30:52Z</time>
      </trkpt>
      <trkpt lat="44.05524" lon="-0.19765">
        <ele>117</ele>
        <time>2014-07-22T13:30:57Z</time>
      </trkpt>
      <trkpt lat="44.05525" lon="-0.19767">
        <ele>117</ele>
        <time>2014-07-22T13:30:59Z</time>
      </trkpt>
      <trkpt lat="44.05528" lon="-0.19777">
        <ele>117</ele>
        <time>2014-07-22T13:31:05Z</time>
      </trkpt>
      <trkpt lat="44.0553" lon="-0.19782">
        <ele>117</ele>
        <time>2014-07-22T13:31:08Z</time>
      </trkpt>
      <trkpt lat="44.05533" lon="-0.19787">
        <ele>117</ele>
        <time>2014-07-22T13:31:11Z</time>
      </trkpt>
      <trkpt lat="44.05539" lon="-0.19801">
        <ele>117</ele>
        <time>2014-07-22T13:31:20Z</time>
      </trkpt>
      <trkpt lat="44.05545" lon="-0.19812">
        <ele>116</ele>
        <time>2014-07-22T13:31:28Z</time>
      </trkpt>
      <trkpt lat="44.05554" lon="-0.19827">
        <ele>116</ele>
        <time>2014-07-22T13:31:39Z</time>
      </trkpt>
      <trkpt lat="44.05555" lon="-0.19827">
        <ele>116</ele>
        <time>2014-07-22T13:31:40Z</time>
      </trkpt>
      <trkpt lat="44.05556" lon="-0.19836">
        <ele>116</ele>
        <time>2014-07-22T13:31:49Z</time>
      </trkpt>
      <trkpt lat="44.05557" lon="-0.19836">
        <ele>116</ele>
        <time>2014-07-22T13:32:12Z</time>
      </trkpt>
      <trkpt lat="44.05557" lon="-0.19836">
        <ele>116</ele>
        <time>2014-07-22T13:32:40Z</time>
      </trkpt>
      <trkpt lat="44.05557" lon="-0.19836">
        <ele>116</ele>
        <time>2014-07-22T13:33:00Z</time>
      </trkpt>
      <trkpt lat="44.05557" lon="-0.19836">
        <ele>116</ele>
        <time>2014-07-22T13:33:17Z</time>
      </trkpt>
      <trkpt lat="44.05557" lon="-0.19837">
        <ele>116</ele>
        <time>2014-07-22T13:33:29Z</time>
      </trkpt>
      <trkpt lat="44.05557" lon="-0.19838">
        <ele>116</ele>
        <time>2014-07-22T13:33:49Z</time>
      </trkpt>
      <trkpt lat="44.05557" lon="-0.19839">
        <ele>116</ele>
        <time>2014-07-22T13:34:01Z</time>
      </trkpt>
      <trkpt lat="44.05558" lon="-0.19842">
        <ele>116</ele>
        <time>2014-07-22T13:34:03Z</time>
      </trkpt>
      <trkpt lat="44.05561" lon="-0.19849">
        <ele>116</ele>
        <time>2014-07-22T13:34:07Z</time>
      </trkpt>
      <trkpt lat="44.05566" lon="-0.19861">
        <ele>116</ele>
        <time>2014-07-22T13:34:15Z</time>
      </trkpt>
      <trkpt lat="44.05574" lon="-0.19878">
        <ele>116</ele>
        <time>2014-07-22T13:34:26Z</time>
      </trkpt>
      <trkpt lat="44.05575" lon="-0.19881">
        <ele>116</ele>
        <time>2014-07-22T13:34:28Z</time>
      </trkpt>
      <trkpt lat="44.05583" lon="-0.19896">
        <ele>116</ele>
        <time>2014-07-22T13:34:38Z</time>
      </trkpt>
      <trkpt lat="44.05583" lon="-0.19897">
        <ele>116</ele>
        <time>2014-07-22T13:34:39Z</time>
      </trkpt>
      <trkpt lat="44.05589" lon="-0.19908">
        <ele>116</ele>
        <time>2014-07-22T13:34:46Z</time>
      </trkpt>
      <trkpt lat="44.05591" lon="-0.19916">
        <ele>117</ele>
        <time>2014-07-22T13:34:51Z</time>
      </trkpt>
      <trkpt lat="44.05594" lon="-0.1993">
        <ele>117</ele>
        <time>2014-07-22T13:35:01Z</time>
      </trkpt>
      <trkpt lat="44.05595" lon="-0.19938">
        <ele>117</ele>
        <time>2014-07-22T13:35:08Z</time>
      </trkpt>
      <trkpt lat="44.05598" lon="-0.19942">
        <ele>117</ele>
        <time>2014-07-22T13:35:11Z</time>
      </trkpt>
      <trkpt lat="44.056" lon="-0.19946">
        <ele>117</ele>
        <time>2014-07-22T13:35:14Z</time>
      </trkpt>
      <trkpt lat="44.05609" lon="-0.19961">
        <ele>117</ele>
        <time>2014-07-22T13:35:24Z</time>
      </trkpt>
      <trkpt lat="44.05612" lon="-0.19968">
        <ele>117</ele>
        <time>2014-07-22T13:35:29Z</time>
      </trkpt>
      <trkpt lat="44.05616" lon="-0.1998">
        <ele>117</ele>
        <time>2014-07-22T13:35:36Z</time>
      </trkpt>
      <trkpt lat="44.05617" lon="-0.19987">
        <ele>117</ele>
        <time>2014-07-22T13:35:41Z</time>
      </trkpt>
      <trkpt lat="44.05618" lon="-0.19994">
        <ele>116</ele>
        <time>2014-07-22T13:35:45Z</time>
      </trkpt>
      <trkpt lat="44.05624" lon="-0.20007">
        <ele>116</ele>
        <time>2014-07-22T13:35:54Z</time>
      </trkpt>
      <trkpt lat="44.05627" lon="-0.20019">
        <ele>116</ele>
        <time>2014-07-22T13:36:02Z</time>
      </trkpt>
      <trkpt lat="44.05626" lon="-0.20021">
        <ele>116</ele>
        <time>2014-07-22T13:36:04Z</time>
      </trkpt>
      <trkpt lat="44.0563" lon="-0.20035">
        <ele>116</ele>
        <time>2014-07-22T13:36:12Z</time>
      </trkpt>
      <trkpt lat="44.05636" lon="-0.20054">
        <ele>116</ele>
        <time>2014-07-22T13:36:23Z</time>
      </trkpt>
      <trkpt lat="44.05638" lon="-0.20063">
        <ele>115</ele>
        <time>2014-07-22T13:36:29Z</time>
      </trkpt>
      <trkpt lat="44.05639" lon="-0.20071">
        <ele>116</ele>
        <time>2014-07-22T13:36:34Z</time>
      </trkpt>
      <trkpt lat="44.05642" lon="-0.20084">
        <ele>116</ele>
        <time>2014-07-22T13:36:42Z</time>
      </trkpt>
      <trkpt lat="44.05642" lon="-0.20092">
        <ele>116</ele>
        <time>2014-07-22T13:36:47Z</time>
      </trkpt>
      <trkpt lat="44.05644" lon="-0.20099">
        <ele>115</ele>
        <time>2014-07-22T13:36:52Z</time>
      </trkpt>
      <trkpt lat="44.05647" lon="-0.20116">
        <ele>116</ele>
        <time>2014-07-22T13:37:02Z</time>
      </trkpt>
      <trkpt lat="44.05648" lon="-0.20122">
        <ele>115</ele>
        <time>2014-07-22T13:37:05Z</time>
      </trkpt>
      <trkpt lat="44.05648" lon="-0.20125">
        <ele>115</ele>
        <time>2014-07-22T13:37:07Z</time>
      </trkpt>
      <trkpt lat="44.05651" lon="-0.20129">
        <ele>116</ele>
        <time>2014-07-22T13:37:15Z</time>
      </trkpt>
      <trkpt lat="44.05656" lon="-0.2013">
        <ele>116</ele>
        <time>2014-07-22T13:37:30Z</time>
      </trkpt>
      <trkpt lat="44.05658" lon="-0.20129">
        <ele>115</ele>
        <time>2014-07-22T13:37:40Z</time>
      </trkpt>
      <trkpt lat="44.0566" lon="-0.20133">
        <ele>115</ele>
        <time>2014-07-22T13:37:44Z</time>
      </trkpt>
      <trkpt lat="44.05663" lon="-0.20155">
        <ele>115</ele>
        <time>2014-07-22T13:37:56Z</time>
      </trkpt>
      <trkpt lat="44.05666" lon="-0.20173">
        <ele>115</ele>
        <time>2014-07-22T13:38:08Z</time>
      </trkpt>
      <trkpt lat="44.05668" lon="-0.2019">
        <ele>114</ele>
        <time>2014-07-22T13:38:17Z</time>
      </trkpt>
      <trkpt lat="44.05669" lon="-0.202">
        <ele>114</ele>
        <time>2014-07-22T13:38:23Z</time>
      </trkpt>
      <trkpt lat="44.05671" lon="-0.20212">
        <ele>114</ele>
        <time>2014-07-22T13:38:29Z</time>
      </trkpt>
      <trkpt lat="44.05672" lon="-0.20222">
        <ele>114</ele>
        <time>2014-07-22T13:38:35Z</time>
      </trkpt>
      <trkpt lat="44.05674" lon="-0.2024">
        <ele>115</ele>
        <time>2014-07-22T13:38:46Z</time>
      </trkpt>
      <trkpt lat="44.05674" lon="-0.20244">
        <ele>114</ele>
        <time>2014-07-22T13:38:48Z</time>
      </trkpt>
      <trkpt lat="44.05679" lon="-0.20262">
        <ele>114</ele>
        <time>2014-07-22T13:38:58Z</time>
      </trkpt>
      <trkpt lat="44.05682" lon="-0.20279">
        <ele>114</ele>
        <time>2014-07-22T13:39:08Z</time>
      </trkpt>
      <trkpt lat="44.05687" lon="-0.20297">
        <ele>114</ele>
        <time>2014-07-22T13:39:19Z</time>
      </trkpt>
      <trkpt lat="44.05692" lon="-0.20307">
        <ele>113</ele>
        <time>2014-07-22T13:39:26Z</time>
      </trkpt>
      <trkpt lat="44.05693" lon="-0.20309">
        <ele>113</ele>
        <time>2014-07-22T13:39:27Z</time>
      </trkpt>
      <trkpt lat="44.05697" lon="-0.20329">
        <ele>113</ele>
        <time>2014-07-22T13:39:39Z</time>
      </trkpt>
      <trkpt lat="44.05699" lon="-0.20345">
        <ele>113</ele>
        <time>2014-07-22T13:39:50Z</time>
      </trkpt>
      <trkpt lat="44.05703" lon="-0.20365">
        <ele>113</ele>
        <time>2014-07-22T13:40:00Z</time>
      </trkpt>
      <trkpt lat="44.05707" lon="-0.20375">
        <ele>113</ele>
        <time>2014-07-22T13:40:06Z</time>
      </trkpt>
      <trkpt lat="44.0571" lon="-0.20383">
        <ele>113</ele>
        <time>2014-07-22T13:40:12Z</time>
      </trkpt>
      <trkpt lat="44.05712" lon="-0.20387">
        <ele>113</ele>
        <time>2014-07-22T13:40:15Z</time>
      </trkpt>
      <trkpt lat="44.05718" lon="-0.20404">
        <ele>113</ele>
        <time>2014-07-22T13:40:27Z</time>
      </trkpt>
      <trkpt lat="44.05721" lon="-0.20417">
        <ele>113</ele>
        <time>2014-07-22T13:40:35Z</time>
      </trkpt>
      <trkpt lat="44.05724" lon="-0.20425">
        <ele>113</ele>
        <time>2014-07-22T13:40:41Z</time>
      </trkpt>
      <trkpt lat="44.05728" lon="-0.20444">
        <ele>113</ele>
        <time>2014-07-22T13:40:51Z</time>
      </trkpt>
      <trkpt lat="44.05731" lon="-0.20453">
        <ele>113</ele>
        <time>2014-07-22T13:40:57Z</time>
      </trkpt>
      <trkpt lat="44.05737" lon="-0.20471">
        <ele>113</ele>
        <time>2014-07-22T13:41:08Z</time>
      </trkpt>
      <trkpt lat="44.05739" lon="-0.20483">
        <ele>112</ele>
        <time>2014-07-22T13:41:17Z</time>
      </trkpt>
      <trkpt lat="44.05743" lon="-0.20495">
        <ele>112</ele>
        <time>2014-07-22T13:41:24Z</time>
      </trkpt>
      <trkpt lat="44.05746" lon="-0.205">
        <ele>112</ele>
        <time>2014-07-22T13:41:28Z</time>
      </trkpt>
      <trkpt lat="44.0575" lon="-0.20518">
        <ele>111</ele>
        <time>2014-07-22T13:41:38Z</time>
      </trkpt>
      <trkpt lat="44.05755" lon="-0.20532">
        <ele>111</ele>
        <time>2014-07-22T13:41:46Z</time>
      </trkpt>
      <trkpt lat="44.05756" lon="-0.20543">
        <ele>111</ele>
        <time>2014-07-22T13:41:56Z</time>
      </trkpt>
      <trkpt lat="44.05763" lon="-0.20548">
        <ele>111</ele>
        <time>2014-07-22T13:42:07Z</time>
      </trkpt>
      <trkpt lat="44.05763" lon="-0.20552">
        <ele>111</ele>
        <time>2014-07-22T13:42:14Z</time>
      </trkpt>
      <trkpt lat="44.05764" lon="-0.20563">
        <ele>111</ele>
        <time>2014-07-22T13:42:20Z</time>
      </trkpt>
      <trkpt lat="44.05766" lon="-0.2057">
        <ele>111</ele>
        <time>2014-07-22T13:42:30Z</time>
      </trkpt>
      <trkpt lat="44.05769" lon="-0.20589">
        <ele>111</ele>
        <time>2014-07-22T13:42:42Z</time>
      </trkpt>
      <trkpt lat="44.0577" lon="-0.20595">
        <ele>111</ele>
        <time>2014-07-22T13:42:45Z</time>
      </trkpt>
      <trkpt lat="44.05774" lon="-0.20606">
        <ele>110</ele>
        <time>2014-07-22T13:42:52Z</time>
      </trkpt>
      <trkpt lat="44.05775" lon="-0.20609">
        <ele>110</ele>
        <time>2014-07-22T13:42:54Z</time>
      </trkpt>
      <trkpt lat="44.05777" lon="-0.20612">
        <ele>110</ele>
        <time>2014-07-22T13:42:56Z</time>
      </trkpt>
      <trkpt lat="44.0578" lon="-0.20619">
        <ele>111</ele>
        <time>2014-07-22T13:43:01Z</time>
      </trkpt>
      <trkpt lat="44.05786" lon="-0.20643">
        <ele>111</ele>
        <time>2014-07-22T13:43:15Z</time>
      </trkpt>
      <trkpt lat="44.05788" lon="-0.20656">
        <ele>110</ele>
        <time>2014-07-22T13:43:26Z</time>
      </trkpt>
      <trkpt lat="44.0579" lon="-0.20661">
        <ele>110</ele>
        <time>2014-07-22T13:43:30Z</time>
      </trkpt>
      <trkpt lat="44.05795" lon="-0.20668">
        <ele>110</ele>
        <time>2014-07-22T13:43:40Z</time>
      </trkpt>
      <trkpt lat="44.05796" lon="-0.2067">
        <ele>110</ele>
        <time>2014-07-22T13:43:59Z</time>
      </trkpt>
      <trkpt lat="44.05797" lon="-0.20673">
        <ele>111</ele>
        <time>2014-07-22T13:44:10Z</time>
      </trkpt>
      <trkpt lat="44.05796" lon="-0.20674">
        <ele>110</ele>
        <time>2014-07-22T13:44:30Z</time>
      </trkpt>
      <trkpt lat="44.05796" lon="-0.20684">
        <ele>111</ele>
        <time>2014-07-22T13:44:39Z</time>
      </trkpt>
      <trkpt lat="44.05799" lon="-0.20704">
        <ele>111</ele>
        <time>2014-07-22T13:44:50Z</time>
      </trkpt>
      <trkpt lat="44.05802" lon="-0.20712">
        <ele>111</ele>
        <time>2014-07-22T13:44:58Z</time>
      </trkpt>
      <trkpt lat="44.05808" lon="-0.20726">
        <ele>111</ele>
        <time>2014-07-22T13:45:06Z</time>
      </trkpt>
      <trkpt lat="44.0581" lon="-0.20738">
        <ele>110</ele>
        <time>2014-07-22T13:45:15Z</time>
      </trkpt>
      <trkpt lat="44.05815" lon="-0.20759">
        <ele>110</ele>
        <time>2014-07-22T13:45:27Z</time>
      </trkpt>
      <trkpt lat="44.0582" lon="-0.20778">
        <ele>110</ele>
        <time>2014-07-22T13:45:36Z</time>
      </trkpt>
      <trkpt lat="44.05821" lon="-0.20794">
        <ele>110</ele>
        <time>2014-07-22T13:45:45Z</time>
      </trkpt>
      <trkpt lat="44.05822" lon="-0.20801">
        <ele>110</ele>
        <time>2014-07-22T13:45:50Z</time>
      </trkpt>
      <trkpt lat="44.05822" lon="-0.20803">
        <ele>110</ele>
        <time>2014-07-22T13:45:52Z</time>
      </trkpt>
      <trkpt lat="44.05824" lon="-0.20826">
        <ele>109</ele>
        <time>2014-07-22T13:46:03Z</time>
      </trkpt>
      <trkpt lat="44.05825" lon="-0.20841">
        <ele>110</ele>
        <time>2014-07-22T13:46:12Z</time>
      </trkpt>
      <trkpt lat="44.05825" lon="-0.20843">
        <ele>109</ele>
        <time>2014-07-22T13:46:14Z</time>
      </trkpt>
      <trkpt lat="44.05827" lon="-0.20862">
        <ele>110</ele>
        <time>2014-07-22T13:46:24Z</time>
      </trkpt>
      <trkpt lat="44.05828" lon="-0.20864">
        <ele>110</ele>
        <time>2014-07-22T13:46:25Z</time>
      </trkpt>
      <trkpt lat="44.05829" lon="-0.20882">
        <ele>110</ele>
        <time>2014-07-22T13:46:37Z</time>
      </trkpt>
      <trkpt lat="44.0583" lon="-0.20897">
        <ele>110</ele>
        <time>2014-07-22T13:46:47Z</time>
      </trkpt>
      <trkpt lat="44.05833" lon="-0.20914">
        <ele>110</ele>
        <time>2014-07-22T13:46:56Z</time>
      </trkpt>
      <trkpt lat="44.05837" lon="-0.20925">
        <ele>110</ele>
        <time>2014-07-22T13:47:03Z</time>
      </trkpt>
      <trkpt lat="44.05838" lon="-0.20931">
        <ele>110</ele>
        <time>2014-07-22T13:47:07Z</time>
      </trkpt>
      <trkpt lat="44.05846" lon="-0.20945">
        <ele>110</ele>
        <time>2014-07-22T13:47:16Z</time>
      </trkpt>
      <trkpt lat="44.0585" lon="-0.20956">
        <ele>110</ele>
        <time>2014-07-22T13:47:23Z</time>
      </trkpt>
      <trkpt lat="44.05854" lon="-0.20968">
        <ele>110</ele>
        <time>2014-07-22T13:47:31Z</time>
      </trkpt>
      <trkpt lat="44.05855" lon="-0.20971">
        <ele>110</ele>
        <time>2014-07-22T13:47:33Z</time>
      </trkpt>
      <trkpt lat="44.05859" lon="-0.2098">
        <ele>110</ele>
        <time>2014-07-22T13:47:41Z</time>
      </trkpt>
      <trkpt lat="44.05863" lon="-0.20997">
        <ele>110</ele>
        <time>2014-07-22T13:47:52Z</time>
      </trkpt>
      <trkpt lat="44.05865" lon="-0.21">
        <ele>110</ele>
        <time>2014-07-22T13:47:54Z</time>
      </trkpt>
      <trkpt lat="44.0587" lon="-0.21015">
        <ele>110</ele>
        <time>2014-07-22T13:48:05Z</time>
      </trkpt>
      <trkpt lat="44.05873" lon="-0.21027">
        <ele>110</ele>
        <time>2014-07-22T13:48:14Z</time>
      </trkpt>
      <trkpt lat="44.05874" lon="-0.2103">
        <ele>109</ele>
        <time>2014-07-22T13:48:16Z</time>
      </trkpt>
      <trkpt lat="44.05877" lon="-0.21037">
        <ele>109</ele>
        <time>2014-07-22T13:48:20Z</time>
      </trkpt>
      <trkpt lat="44.05881" lon="-0.2105">
        <ele>109</ele>
        <time>2014-07-22T13:48:30Z</time>
      </trkpt>
      <trkpt lat="44.05881" lon="-0.21051">
        <ele>109</ele>
        <time>2014-07-22T13:48:31Z</time>
      </trkpt>
      <trkpt lat="44.05885" lon="-0.2106">
        <ele>109</ele>
        <time>2014-07-22T13:48:37Z</time>
      </trkpt>
      <trkpt lat="44.05891" lon="-0.21074">
        <ele>109</ele>
        <time>2014-07-22T13:48:45Z</time>
      </trkpt>
      <trkpt lat="44.05895" lon="-0.21088">
        <ele>109</ele>
        <time>2014-07-22T13:48:53Z</time>
      </trkpt>
      <trkpt lat="44.05898" lon="-0.21101">
        <ele>109</ele>
        <time>2014-07-22T13:49:02Z</time>
      </trkpt>
      <trkpt lat="44.05899" lon="-0.21107">
        <ele>109</ele>
        <time>2014-07-22T13:49:08Z</time>
      </trkpt>
      <trkpt lat="44.05899" lon="-0.21116">
        <ele>109</ele>
        <time>2014-07-22T13:49:12Z</time>
      </trkpt>
      <trkpt lat="44.059" lon="-0.21122">
        <ele>108</ele>
        <time>2014-07-22T13:49:15Z</time>
      </trkpt>
      <trkpt lat="44.05901" lon="-0.2113">
        <ele>108</ele>
        <time>2014-07-22T13:49:21Z</time>
      </trkpt>
      <trkpt lat="44.05904" lon="-0.21137">
        <ele>108</ele>
        <time>2014-07-22T13:49:26Z</time>
      </trkpt>
      <trkpt lat="44.05904" lon="-0.21151">
        <ele>107</ele>
        <time>2014-07-22T13:49:34Z</time>
      </trkpt>
      <trkpt lat="44.05902" lon="-0.21158">
        <ele>107</ele>
        <time>2014-07-22T13:49:37Z</time>
      </trkpt>
      <trkpt lat="44.05901" lon="-0.21181">
        <ele>106</ele>
        <time>2014-07-22T13:49:48Z</time>
      </trkpt>
      <trkpt lat="44.05902" lon="-0.212">
        <ele>106</ele>
        <time>2014-07-22T13:49:58Z</time>
      </trkpt>
      <trkpt lat="44.05902" lon="-0.21203">
        <ele>106</ele>
        <time>2014-07-22T13:50:00Z</time>
      </trkpt>
      <trkpt lat="44.05907" lon="-0.21219">
        <ele>106</ele>
        <time>2014-07-22T13:50:09Z</time>
      </trkpt>
      <trkpt lat="44.05913" lon="-0.21226">
        <ele>106</ele>
        <time>2014-07-22T13:50:14Z</time>
      </trkpt>
      <trkpt lat="44.05917" lon="-0.21227">
        <ele>107</ele>
        <time>2014-07-22T13:50:17Z</time>
      </trkpt>
      <trkpt lat="44.05923" lon="-0.2123">
        <ele>107</ele>
        <time>2014-07-22T13:50:22Z</time>
      </trkpt>
      <trkpt lat="44.05938" lon="-0.21232">
        <ele>108</ele>
        <time>2014-07-22T13:50:35Z</time>
      </trkpt>
      <trkpt lat="44.05943" lon="-0.21232">
        <ele>108</ele>
        <time>2014-07-22T13:50:40Z</time>
      </trkpt>
      <trkpt lat="44.05947" lon="-0.21232">
        <ele>108</ele>
        <time>2014-07-22T13:50:43Z</time>
      </trkpt>
      <trkpt lat="44.0596" lon="-0.21231">
        <ele>109</ele>
        <time>2014-07-22T13:50:54Z</time>
      </trkpt>
      <trkpt lat="44.05963" lon="-0.21229">
        <ele>109</ele>
        <time>2014-07-22T13:50:57Z</time>
      </trkpt>
      <trkpt lat="44.05971" lon="-0.21237">
        <ele>109</ele>
        <time>2014-07-22T13:51:05Z</time>
      </trkpt>
      <trkpt lat="44.05977" lon="-0.21241">
        <ele>109</ele>
        <time>2014-07-22T13:51:10Z</time>
      </trkpt>
      <trkpt lat="44.05984" lon="-0.21248">
        <ele>109</ele>
        <time>2014-07-22T13:51:15Z</time>
      </trkpt>
      <trkpt lat="44.05995" lon="-0.21261">
        <ele>108</ele>
        <time>2014-07-22T13:51:25Z</time>
      </trkpt>
      <trkpt lat="44.06005" lon="-0.21272">
        <ele>108</ele>
        <time>2014-07-22T13:51:35Z</time>
      </trkpt>
      <trkpt lat="44.06013" lon="-0.21285">
        <ele>107</ele>
        <time>2014-07-22T13:51:44Z</time>
      </trkpt>
      <trkpt lat="44.06019" lon="-0.21298">
        <ele>107</ele>
        <time>2014-07-22T13:51:54Z</time>
      </trkpt>
      <trkpt lat="44.06026" lon="-0.21304">
        <ele>108</ele>
        <time>2014-07-22T13:52:02Z</time>
      </trkpt>
      <trkpt lat="44.06034" lon="-0.21307">
        <ele>108</ele>
        <time>2014-07-22T13:52:13Z</time>
      </trkpt>
      <trkpt lat="44.06033" lon="-0.21306">
        <ele>108</ele>
        <time>2014-07-22T13:52:34Z</time>
      </trkpt>
      <trkpt lat="44.06034" lon="-0.21306">
        <ele>108</ele>
        <time>2014-07-22T13:52:52Z</time>
      </trkpt>
      <trkpt lat="44.06037" lon="-0.21305">
        <ele>108</ele>
        <time>2014-07-22T13:53:11Z</time>
      </trkpt>
      <trkpt lat="44.06035" lon="-0.21304">
        <ele>108</ele>
        <time>2014-07-22T13:53:31Z</time>
      </trkpt>
      <trkpt lat="44.06036" lon="-0.21304">
        <ele>108</ele>
        <time>2014-07-22T13:53:50Z</time>
      </trkpt>
      <trkpt lat="44.06035" lon="-0.21303">
        <ele>108</ele>
        <time>2014-07-22T13:54:12Z</time>
      </trkpt>
      <trkpt lat="44.06036" lon="-0.21303">
        <ele>108</ele>
        <time>2014-07-22T13:54:26Z</time>
      </trkpt>
      <trkpt lat="44.06036" lon="-0.21303">
        <ele>108</ele>
        <time>2014-07-22T13:54:42Z</time>
      </trkpt>
      <trkpt lat="44.06035" lon="-0.21303">
        <ele>108</ele>
        <time>2014-07-22T13:55:10Z</time>
      </trkpt>
      <trkpt lat="44.06036" lon="-0.21303">
        <ele>107</ele>
        <time>2014-07-22T13:55:23Z</time>
      </trkpt>
      <trkpt lat="44.06036" lon="-0.21303">
        <ele>108</ele>
        <time>2014-07-22T13:55:32Z</time>
      </trkpt>
      <trkpt lat="44.06036" lon="-0.21303">
        <ele>108</ele>
        <time>2014-07-22T13:55:48Z</time>
      </trkpt>
      <trkpt lat="44.06036" lon="-0.21303">
        <ele>108</ele>
        <time>2014-07-22T13:56:06Z</time>
      </trkpt>
      <trkpt lat="44.06038" lon="-0.21304">
        <ele>108</ele>
        <time>2014-07-22T13:56:08Z</time>
      </trkpt>
      <trkpt lat="44.0604" lon="-0.21304">
        <ele>108</ele>
        <time>2014-07-22T13:56:10Z</time>
      </trkpt>
      <trkpt lat="44.06056" lon="-0.21305">
        <ele>108</ele>
        <time>2014-07-22T13:56:23Z</time>
      </trkpt>
      <trkpt lat="44.06068" lon="-0.21303">
        <ele>108</ele>
        <time>2014-07-22T13:56:32Z</time>
      </trkpt>
      <trkpt lat="44.0608" lon="-0.21304">
        <ele>108</ele>
        <time>2014-07-22T13:56:42Z</time>
      </trkpt>
      <trkpt lat="44.06083" lon="-0.21305">
        <ele>108</ele>
        <time>2014-07-22T13:56:44Z</time>
      </trkpt>
      <trkpt lat="44.06091" lon="-0.21306">
        <ele>108</ele>
        <time>2014-07-22T13:56:51Z</time>
      </trkpt>
      <trkpt lat="44.06104" lon="-0.21303">
        <ele>108</ele>
        <time>2014-07-22T13:57:01Z</time>
      </trkpt>
      <trkpt lat="44.06105" lon="-0.21303">
        <ele>108</ele>
        <time>2014-07-22T13:57:02Z</time>
      </trkpt>
      <trkpt lat="44.06121" lon="-0.21302">
        <ele>108</ele>
        <time>2014-07-22T13:57:13Z</time>
      </trkpt>
      <trkpt lat="44.06131" lon="-0.21302">
        <ele>108</ele>
        <time>2014-07-22T13:57:21Z</time>
      </trkpt>
      <trkpt lat="44.06142" lon="-0.21303">
        <ele>107</ele>
        <time>2014-07-22T13:57:30Z</time>
      </trkpt>
      <trkpt lat="44.06155" lon="-0.21302">
        <ele>108</ele>
        <time>2014-07-22T13:57:40Z</time>
      </trkpt>
      <trkpt lat="44.06164" lon="-0.21303">
        <ele>108</ele>
        <time>2014-07-22T13:57:47Z</time>
      </trkpt>
      <trkpt lat="44.06176" lon="-0.21304">
        <ele>108</ele>
        <time>2014-07-22T13:57:57Z</time>
      </trkpt>
      <trkpt lat="44.06183" lon="-0.21305">
        <ele>108</ele>
        <time>2014-07-22T13:58:04Z</time>
      </trkpt>
      <trkpt lat="44.06195" lon="-0.21306">
        <ele>108</ele>
        <time>2014-07-22T13:58:15Z</time>
      </trkpt>
      <trkpt lat="44.06196" lon="-0.21307">
        <ele>108</ele>
        <time>2014-07-22T13:58:16Z</time>
      </trkpt>
      <trkpt lat="44.062" lon="-0.21308">
        <ele>108</ele>
        <time>2014-07-22T13:58:20Z</time>
      </trkpt>
      <trkpt lat="44.06213" lon="-0.2131">
        <ele>108</ele>
        <time>2014-07-22T13:58:30Z</time>
      </trkpt>
      <trkpt lat="44.06223" lon="-0.2131">
        <ele>107</ele>
        <time>2014-07-22T13:58:39Z</time>
      </trkpt>
      <trkpt lat="44.06232" lon="-0.21308">
        <ele>107</ele>
        <time>2014-07-22T13:58:46Z</time>
      </trkpt>
      <trkpt lat="44.06237" lon="-0.21308">
        <ele>108</ele>
        <time>2014-07-22T13:58:50Z</time>
      </trkpt>
      <trkpt lat="44.0625" lon="-0.21305">
        <ele>108</ele>
        <time>2014-07-22T13:59:00Z</time>
      </trkpt>
      <trkpt lat="44.06251" lon="-0.21304">
        <ele>108</ele>
        <time>2014-07-22T13:59:01Z</time>
      </trkpt>
      <trkpt lat="44.06258" lon="-0.21305">
        <ele>108</ele>
        <time>2014-07-22T13:59:06Z</time>
      </trkpt>
      <trkpt lat="44.06275" lon="-0.21306">
        <ele>108</ele>
        <time>2014-07-22T13:59:18Z</time>
      </trkpt>
      <trkpt lat="44.06281" lon="-0.21306">
        <ele>108</ele>
        <time>2014-07-22T13:59:24Z</time>
      </trkpt>
      <trkpt lat="44.0629" lon="-0.21307">
        <ele>108</ele>
        <time>2014-07-22T13:59:33Z</time>
      </trkpt>
      <trkpt lat="44.06295" lon="-0.21306">
        <ele>108</ele>
        <time>2014-07-22T13:59:36Z</time>
      </trkpt>
      <trkpt lat="44.06306" lon="-0.21306">
        <ele>108</ele>
        <time>2014-07-22T13:59:45Z</time>
      </trkpt>
      <trkpt lat="44.06311" lon="-0.21306">
        <ele>108</ele>
        <time>2014-07-22T13:59:49Z</time>
      </trkpt>
      <trkpt lat="44.06316" lon="-0.21306">
        <ele>108</ele>
        <time>2014-07-22T13:59:52Z</time>
      </trkpt>
      <trkpt lat="44.06331" lon="-0.21305">
        <ele>107</ele>
        <time>2014-07-22T14:00:03Z</time>
      </trkpt>
      <trkpt lat="44.06342" lon="-0.21306">
        <ele>107</ele>
        <time>2014-07-22T14:00:12Z</time>
      </trkpt>
      <trkpt lat="44.06348" lon="-0.21307">
        <ele>107</ele>
        <time>2014-07-22T14:00:17Z</time>
      </trkpt>
      <trkpt lat="44.06352" lon="-0.21305">
        <ele>107</ele>
        <time>2014-07-22T14:00:20Z</time>
      </trkpt>
      <trkpt lat="44.06356" lon="-0.21305">
        <ele>107</ele>
        <time>2014-07-22T14:00:22Z</time>
      </trkpt>
      <trkpt lat="44.0636" lon="-0.21307">
        <ele>107</ele>
        <time>2014-07-22T14:00:26Z</time>
      </trkpt>
      <trkpt lat="44.06372" lon="-0.21309">
        <ele>107</ele>
        <time>2014-07-22T14:00:36Z</time>
      </trkpt>
      <trkpt lat="44.06377" lon="-0.21308">
        <ele>107</ele>
        <time>2014-07-22T14:00:39Z</time>
      </trkpt>
      <trkpt lat="44.06388" lon="-0.21304">
        <ele>107</ele>
        <time>2014-07-22T14:00:50Z</time>
      </trkpt>
      <trkpt lat="44.06391" lon="-0.21305">
        <ele>107</ele>
        <time>2014-07-22T14:00:52Z</time>
      </trkpt>
      <trkpt lat="44.06403" lon="-0.21309">
        <ele>107</ele>
        <time>2014-07-22T14:01:01Z</time>
      </trkpt>
      <trkpt lat="44.06414" lon="-0.21311">
        <ele>107</ele>
        <time>2014-07-22T14:01:10Z</time>
      </trkpt>
      <trkpt lat="44.06426" lon="-0.21314">
        <ele>107</ele>
        <time>2014-07-22T14:01:19Z</time>
      </trkpt>
      <trkpt lat="44.0644" lon="-0.21317">
        <ele>106</ele>
        <time>2014-07-22T14:01:28Z</time>
      </trkpt>
      <trkpt lat="44.06445" lon="-0.21317">
        <ele>107</ele>
        <time>2014-07-22T14:01:31Z</time>
      </trkpt>
      <trkpt lat="44.06455" lon="-0.2132">
        <ele>106</ele>
        <time>2014-07-22T14:01:40Z</time>
      </trkpt>
      <trkpt lat="44.0646" lon="-0.21319">
        <ele>106</ele>
        <time>2014-07-22T14:01:45Z</time>
      </trkpt>
      <trkpt lat="44.06466" lon="-0.21317">
        <ele>106</ele>
        <time>2014-07-22T14:01:50Z</time>
      </trkpt>
      <trkpt lat="44.06476" lon="-0.21314">
        <ele>107</ele>
        <time>2014-07-22T14:01:59Z</time>
      </trkpt>
      <trkpt lat="44.06477" lon="-0.21314">
        <ele>107</ele>
        <time>2014-07-22T14:02:01Z</time>
      </trkpt>
      <trkpt lat="44.06493" lon="-0.21309">
        <ele>107</ele>
        <time>2014-07-22T14:02:12Z</time>
      </trkpt>
      <trkpt lat="44.06502" lon="-0.21312">
        <ele>107</ele>
        <time>2014-07-22T14:02:20Z</time>
      </trkpt>
      <trkpt lat="44.06509" lon="-0.21315">
        <ele>107</ele>
        <time>2014-07-22T14:02:27Z</time>
      </trkpt>
      <trkpt lat="44.06518" lon="-0.21317">
        <ele>107</ele>
        <time>2014-07-22T14:02:34Z</time>
      </trkpt>
      <trkpt lat="44.06531" lon="-0.21316">
        <ele>106</ele>
        <time>2014-07-22T14:02:44Z</time>
      </trkpt>
      <trkpt lat="44.06534" lon="-0.21316">
        <ele>106</ele>
        <time>2014-07-22T14:02:46Z</time>
      </trkpt>
      <trkpt lat="44.06541" lon="-0.21315">
        <ele>106</ele>
        <time>2014-07-22T14:02:51Z</time>
      </trkpt>
      <trkpt lat="44.06553" lon="-0.21314">
        <ele>106</ele>
        <time>2014-07-22T14:02:59Z</time>
      </trkpt>
      <trkpt lat="44.0656" lon="-0.21314">
        <ele>107</ele>
        <time>2014-07-22T14:03:06Z</time>
      </trkpt>
      <trkpt lat="44.06561" lon="-0.21314">
        <ele>107</ele>
        <time>2014-07-22T14:03:07Z</time>
      </trkpt>
      <trkpt lat="44.06563" lon="-0.21314">
        <ele>106</ele>
        <time>2014-07-22T14:03:09Z</time>
      </trkpt>
      <trkpt lat="44.06568" lon="-0.21315">
        <ele>106</ele>
        <time>2014-07-22T14:03:20Z</time>
      </trkpt>
      <trkpt lat="44.06567" lon="-0.21314">
        <ele>107</ele>
        <time>2014-07-22T14:03:30Z</time>
      </trkpt>
      <trkpt lat="44.06566" lon="-0.21314">
        <ele>107</ele>
        <time>2014-07-22T14:03:50Z</time>
      </trkpt>
      <trkpt lat="44.06567" lon="-0.21315">
        <ele>107</ele>
        <time>2014-07-22T14:04:06Z</time>
      </trkpt>
      <trkpt lat="44.06571" lon="-0.21312">
        <ele>107</ele>
        <time>2014-07-22T14:04:13Z</time>
      </trkpt>
      <trkpt lat="44.06584" lon="-0.21312">
        <ele>107</ele>
        <time>2014-07-22T14:04:24Z</time>
      </trkpt>
      <trkpt lat="44.06599" lon="-0.21317">
        <ele>106</ele>
        <time>2014-07-22T14:04:36Z</time>
      </trkpt>
      <trkpt lat="44.06613" lon="-0.2132">
        <ele>106</ele>
        <time>2014-07-22T14:04:47Z</time>
      </trkpt>
      <trkpt lat="44.06618" lon="-0.21321">
        <ele>106</ele>
        <time>2014-07-22T14:04:51Z</time>
      </trkpt>
      <trkpt lat="44.06629" lon="-0.2132">
        <ele>106</ele>
        <time>2014-07-22T14:04:59Z</time>
      </trkpt>
      <trkpt lat="44.06638" lon="-0.2132">
        <ele>106</ele>
        <time>2014-07-22T14:05:07Z</time>
      </trkpt>
      <trkpt lat="44.06641" lon="-0.21321">
        <ele>106</ele>
        <time>2014-07-22T14:05:10Z</time>
      </trkpt>
      <trkpt lat="44.06645" lon="-0.21321">
        <ele>106</ele>
        <time>2014-07-22T14:05:13Z</time>
      </trkpt>
      <trkpt lat="44.06657" lon="-0.21317">
        <ele>106</ele>
        <time>2014-07-22T14:05:22Z</time>
      </trkpt>
      <trkpt lat="44.06664" lon="-0.21319">
        <ele>106</ele>
        <time>2014-07-22T14:05:29Z</time>
      </trkpt>
      <trkpt lat="44.06678" lon="-0.21318">
        <ele>105</ele>
        <time>2014-07-22T14:05:39Z</time>
      </trkpt>
      <trkpt lat="44.06682" lon="-0.21318">
        <ele>105</ele>
        <time>2014-07-22T14:05:42Z</time>
      </trkpt>
      <trkpt lat="44.06698" lon="-0.21318">
        <ele>105</ele>
        <time>2014-07-22T14:05:54Z</time>
      </trkpt>
      <trkpt lat="44.06702" lon="-0.21317">
        <ele>105</ele>
        <time>2014-07-22T14:05:57Z</time>
      </trkpt>
      <trkpt lat="44.06708" lon="-0.21317">
        <ele>105</ele>
        <time>2014-07-22T14:06:01Z</time>
      </trkpt>
      <trkpt lat="44.0672" lon="-0.21315">
        <ele>106</ele>
        <time>2014-07-22T14:06:11Z</time>
      </trkpt>
      <trkpt lat="44.06723" lon="-0.21316">
        <ele>106</ele>
        <time>2014-07-22T14:06:14Z</time>
      </trkpt>
      <trkpt lat="44.06729" lon="-0.21316">
        <ele>106</ele>
        <time>2014-07-22T14:06:19Z</time>
      </trkpt>
      <trkpt lat="44.06736" lon="-0.21318">
        <ele>105</ele>
        <time>2014-07-22T14:06:24Z</time>
      </trkpt>
      <trkpt lat="44.0675" lon="-0.2132">
        <ele>105</ele>
        <time>2014-07-22T14:06:35Z</time>
      </trkpt>
      <trkpt lat="44.06761" lon="-0.21321">
        <ele>105</ele>
        <time>2014-07-22T14:06:45Z</time>
      </trkpt>
      <trkpt lat="44.06769" lon="-0.21322">
        <ele>104</ele>
        <time>2014-07-22T14:06:51Z</time>
      </trkpt>
      <trkpt lat="44.06777" lon="-0.21322">
        <ele>105</ele>
        <time>2014-07-22T14:06:57Z</time>
      </trkpt>
      <trkpt lat="44.06782" lon="-0.2132">
        <ele>105</ele>
        <time>2014-07-22T14:07:01Z</time>
      </trkpt>
      <trkpt lat="44.06797" lon="-0.21323">
        <ele>104</ele>
        <time>2014-07-22T14:07:12Z</time>
      </trkpt>
      <trkpt lat="44.06808" lon="-0.21323">
        <ele>104</ele>
        <time>2014-07-22T14:07:21Z</time>
      </trkpt>
      <trkpt lat="44.06817" lon="-0.21322">
        <ele>104</ele>
        <time>2014-07-22T14:07:29Z</time>
      </trkpt>
      <trkpt lat="44.06826" lon="-0.21323">
        <ele>104</ele>
        <time>2014-07-22T14:07:36Z</time>
      </trkpt>
      <trkpt lat="44.06838" lon="-0.21322">
        <ele>104</ele>
        <time>2014-07-22T14:07:45Z</time>
      </trkpt>
      <trkpt lat="44.0684" lon="-0.21322">
        <ele>104</ele>
        <time>2014-07-22T14:07:46Z</time>
      </trkpt>
      <trkpt lat="44.06852" lon="-0.21322">
        <ele>104</ele>
        <time>2014-07-22T14:07:56Z</time>
      </trkpt>
      <trkpt lat="44.06864" lon="-0.21323">
        <ele>104</ele>
        <time>2014-07-22T14:08:06Z</time>
      </trkpt>
      <trkpt lat="44.0687" lon="-0.21322">
        <ele>104</ele>
        <time>2014-07-22T14:08:10Z</time>
      </trkpt>
      <trkpt lat="44.06882" lon="-0.21321">
        <ele>104</ele>
        <time>2014-07-22T14:08:21Z</time>
      </trkpt>
      <trkpt lat="44.06886" lon="-0.21321">
        <ele>104</ele>
        <time>2014-07-22T14:08:24Z</time>
      </trkpt>
      <trkpt lat="44.06901" lon="-0.2132">
        <ele>104</ele>
        <time>2014-07-22T14:08:35Z</time>
      </trkpt>
      <trkpt lat="44.06909" lon="-0.21321">
        <ele>104</ele>
        <time>2014-07-22T14:08:41Z</time>
      </trkpt>
      <trkpt lat="44.06918" lon="-0.21321">
        <ele>104</ele>
        <time>2014-07-22T14:08:47Z</time>
      </trkpt>
      <trkpt lat="44.06934" lon="-0.21319">
        <ele>104</ele>
        <time>2014-07-22T14:09:00Z</time>
      </trkpt>
      <trkpt lat="44.06945" lon="-0.2132">
        <ele>104</ele>
        <time>2014-07-22T14:09:09Z</time>
      </trkpt>
      <trkpt lat="44.06958" lon="-0.21322">
        <ele>104</ele>
        <time>2014-07-22T14:09:20Z</time>
      </trkpt>
      <trkpt lat="44.06965" lon="-0.21321">
        <ele>104</ele>
        <time>2014-07-22T14:09:30Z</time>
      </trkpt>
      <trkpt lat="44.06967" lon="-0.2132">
        <ele>104</ele>
        <time>2014-07-22T14:09:33Z</time>
      </trkpt>
      <trkpt lat="44.0697" lon="-0.2132">
        <ele>104</ele>
        <time>2014-07-22T14:09:35Z</time>
      </trkpt>
      <trkpt lat="44.06983" lon="-0.2132">
        <ele>104</ele>
        <time>2014-07-22T14:09:44Z</time>
      </trkpt>
      <trkpt lat="44.06999" lon="-0.2132">
        <ele>104</ele>
        <time>2014-07-22T14:09:56Z</time>
      </trkpt>
      <trkpt lat="44.07004" lon="-0.21319">
        <ele>104</ele>
        <time>2014-07-22T14:10:00Z</time>
      </trkpt>
      <trkpt lat="44.07017" lon="-0.21317">
        <ele>104</ele>
        <time>2014-07-22T14:10:11Z</time>
      </trkpt>
      <trkpt lat="44.07033" lon="-0.21316">
        <ele>104</ele>
        <time>2014-07-22T14:10:24Z</time>
      </trkpt>
      <trkpt lat="44.07037" lon="-0.21314">
        <ele>104</ele>
        <time>2014-07-22T14:10:28Z</time>
      </trkpt>
      <trkpt lat="44.07051" lon="-0.21313">
        <ele>104</ele>
        <time>2014-07-22T14:10:41Z</time>
      </trkpt>
      <trkpt lat="44.07055" lon="-0.21314">
        <ele>104</ele>
        <time>2014-07-22T14:10:44Z</time>
      </trkpt>
      <trkpt lat="44.07069" lon="-0.21314">
        <ele>104</ele>
        <time>2014-07-22T14:10:55Z</time>
      </trkpt>
      <trkpt lat="44.07074" lon="-0.21314">
        <ele>104</ele>
        <time>2014-07-22T14:11:00Z</time>
      </trkpt>
      <trkpt lat="44.07081" lon="-0.21313">
        <ele>104</ele>
        <time>2014-07-22T14:11:04Z</time>
      </trkpt>
      <trkpt lat="44.07096" lon="-0.2131">
        <ele>103</ele>
        <time>2014-07-22T14:11:15Z</time>
      </trkpt>
      <trkpt lat="44.07103" lon="-0.2131">
        <ele>103</ele>
        <time>2014-07-22T14:11:22Z</time>
      </trkpt>
      <trkpt lat="44.07107" lon="-0.21309">
        <ele>103</ele>
        <time>2014-07-22T14:11:25Z</time>
      </trkpt>
      <trkpt lat="44.07116" lon="-0.21306">
        <ele>103</ele>
        <time>2014-07-22T14:11:32Z</time>
      </trkpt>
      <trkpt lat="44.07125" lon="-0.21302">
        <ele>103</ele>
        <time>2014-07-22T14:11:39Z</time>
      </trkpt>
      <trkpt lat="44.07135" lon="-0.213">
        <ele>103</ele>
        <time>2014-07-22T14:11:48Z</time>
      </trkpt>
      <trkpt lat="44.07142" lon="-0.213">
        <ele>103</ele>
        <time>2014-07-22T14:11:53Z</time>
      </trkpt>
      <trkpt lat="44.0715" lon="-0.21298">
        <ele>103</ele>
        <time>2014-07-22T14:11:59Z</time>
      </trkpt>
      <trkpt lat="44.07162" lon="-0.21296">
        <ele>103</ele>
        <time>2014-07-22T14:12:09Z</time>
      </trkpt>
      <trkpt lat="44.0717" lon="-0.21295">
        <ele>103</ele>
        <time>2014-07-22T14:12:21Z</time>
      </trkpt>
      <trkpt lat="44.07175" lon="-0.21297">
        <ele>103</ele>
        <time>2014-07-22T14:12:26Z</time>
      </trkpt>
      <trkpt lat="44.07179" lon="-0.21297">
        <ele>103</ele>
        <time>2014-07-22T14:12:30Z</time>
      </trkpt>
      <trkpt lat="44.07187" lon="-0.21294">
        <ele>103</ele>
        <time>2014-07-22T14:12:39Z</time>
      </trkpt>
      <trkpt lat="44.07195" lon="-0.21291">
        <ele>103</ele>
        <time>2014-07-22T14:12:46Z</time>
      </trkpt>
      <trkpt lat="44.07198" lon="-0.21291">
        <ele>103</ele>
        <time>2014-07-22T14:12:48Z</time>
      </trkpt>
      <trkpt lat="44.07206" lon="-0.21291">
        <ele>104</ele>
        <time>2014-07-22T14:12:54Z</time>
      </trkpt>
      <trkpt lat="44.07208" lon="-0.21291">
        <ele>103</ele>
        <time>2014-07-22T14:12:56Z</time>
      </trkpt>
      <trkpt lat="44.07222" lon="-0.21288">
        <ele>103</ele>
        <time>2014-07-22T14:13:06Z</time>
      </trkpt>
      <trkpt lat="44.07223" lon="-0.21288">
        <ele>103</ele>
        <time>2014-07-22T14:13:08Z</time>
      </trkpt>
      <trkpt lat="44.07233" lon="-0.21289">
        <ele>103</ele>
        <time>2014-07-22T14:13:15Z</time>
      </trkpt>
      <trkpt lat="44.07238" lon="-0.21289">
        <ele>103</ele>
        <time>2014-07-22T14:13:19Z</time>
      </trkpt>
      <trkpt lat="44.07255" lon="-0.21285">
        <ele>103</ele>
        <time>2014-07-22T14:13:31Z</time>
      </trkpt>
      <trkpt lat="44.07267" lon="-0.2128">
        <ele>103</ele>
        <time>2014-07-22T14:13:41Z</time>
      </trkpt>
      <trkpt lat="44.07275" lon="-0.21279">
        <ele>103</ele>
        <time>2014-07-22T14:13:48Z</time>
      </trkpt>
      <trkpt lat="44.07278" lon="-0.2128">
        <ele>103</ele>
        <time>2014-07-22T14:13:51Z</time>
      </trkpt>
      <trkpt lat="44.07285" lon="-0.21278">
        <ele>103</ele>
        <time>2014-07-22T14:13:58Z</time>
      </trkpt>
      <trkpt lat="44.07294" lon="-0.2128">
        <ele>103</ele>
        <time>2014-07-22T14:14:06Z</time>
      </trkpt>
      <trkpt lat="44.07296" lon="-0.21282">
        <ele>103</ele>
        <time>2014-07-22T14:14:08Z</time>
      </trkpt>
      <trkpt lat="44.07304" lon="-0.2129">
        <ele>104</ele>
        <time>2014-07-22T14:14:15Z</time>
      </trkpt>
      <trkpt lat="44.07311" lon="-0.21302">
        <ele>104</ele>
        <time>2014-07-22T14:14:26Z</time>
      </trkpt>
      <trkpt lat="44.07317" lon="-0.21318">
        <ele>105</ele>
        <time>2014-07-22T14:14:36Z</time>
      </trkpt>
      <trkpt lat="44.07318" lon="-0.21326">
        <ele>104</ele>
        <time>2014-07-22T14:14:41Z</time>
      </trkpt>
      <trkpt lat="44.07325" lon="-0.21339">
        <ele>104</ele>
        <time>2014-07-22T14:14:51Z</time>
      </trkpt>
      <trkpt lat="44.0733" lon="-0.21346">
        <ele>104</ele>
        <time>2014-07-22T14:14:57Z</time>
      </trkpt>
      <trkpt lat="44.07335" lon="-0.21359">
        <ele>104</ele>
        <time>2014-07-22T14:15:05Z</time>
      </trkpt>
      <trkpt lat="44.07336" lon="-0.21361">
        <ele>103</ele>
        <time>2014-07-22T14:15:07Z</time>
      </trkpt>
      <trkpt lat="44.0734" lon="-0.21374">
        <ele>103</ele>
        <time>2014-07-22T14:15:14Z</time>
      </trkpt>
      <trkpt lat="44.07341" lon="-0.21378">
        <ele>103</ele>
        <time>2014-07-22T14:15:17Z</time>
      </trkpt>
      <trkpt lat="44.07346" lon="-0.21399">
        <ele>103</ele>
        <time>2014-07-22T14:15:28Z</time>
      </trkpt>
      <trkpt lat="44.07349" lon="-0.21408">
        <ele>103</ele>
        <time>2014-07-22T14:15:34Z</time>
      </trkpt>
      <trkpt lat="44.07356" lon="-0.21421">
        <ele>103</ele>
        <time>2014-07-22T14:15:44Z</time>
      </trkpt>
      <trkpt lat="44.07362" lon="-0.21427">
        <ele>102</ele>
        <time>2014-07-22T14:15:50Z</time>
      </trkpt>
      <trkpt lat="44.07363" lon="-0.21434">
        <ele>102</ele>
        <time>2014-07-22T14:15:54Z</time>
      </trkpt>
      <trkpt lat="44.07371" lon="-0.21452">
        <ele>102</ele>
        <time>2014-07-22T14:16:05Z</time>
      </trkpt>
      <trkpt lat="44.07378" lon="-0.2147">
        <ele>102</ele>
        <time>2014-07-22T14:16:17Z</time>
      </trkpt>
      <trkpt lat="44.07384" lon="-0.21481">
        <ele>102</ele>
        <time>2014-07-22T14:16:25Z</time>
      </trkpt>
      <trkpt lat="44.0739" lon="-0.21495">
        <ele>102</ele>
        <time>2014-07-22T14:16:34Z</time>
      </trkpt>
      <trkpt lat="44.07391" lon="-0.21503">
        <ele>101</ele>
        <time>2014-07-22T14:16:39Z</time>
      </trkpt>
      <trkpt lat="44.07393" lon="-0.21507">
        <ele>101</ele>
        <time>2014-07-22T14:16:42Z</time>
      </trkpt>
      <trkpt lat="44.07395" lon="-0.21515">
        <ele>101</ele>
        <time>2014-07-22T14:16:47Z</time>
      </trkpt>
      <trkpt lat="44.07401" lon="-0.21523">
        <ele>101</ele>
        <time>2014-07-22T14:16:53Z</time>
      </trkpt>
      <trkpt lat="44.07405" lon="-0.21536">
        <ele>101</ele>
        <time>2014-07-22T14:17:00Z</time>
      </trkpt>
      <trkpt lat="44.0741" lon="-0.21554">
        <ele>101</ele>
        <time>2014-07-22T14:17:11Z</time>
      </trkpt>
      <trkpt lat="44.07411" lon="-0.21556">
        <ele>100</ele>
        <time>2014-07-22T14:17:13Z</time>
      </trkpt>
      <trkpt lat="44.07415" lon="-0.21573">
        <ele>100</ele>
        <time>2014-07-22T14:17:24Z</time>
      </trkpt>
      <trkpt lat="44.07415" lon="-0.21576">
        <ele>100</ele>
        <time>2014-07-22T14:17:26Z</time>
      </trkpt>
      <trkpt lat="44.07418" lon="-0.21586">
        <ele>100</ele>
        <time>2014-07-22T14:17:32Z</time>
      </trkpt>
      <trkpt lat="44.07422" lon="-0.21604">
        <ele>100</ele>
        <time>2014-07-22T14:17:43Z</time>
      </trkpt>
      <trkpt lat="44.07421" lon="-0.21612">
        <ele>100</ele>
        <time>2014-07-22T14:17:48Z</time>
      </trkpt>
      <trkpt lat="44.07422" lon="-0.21617">
        <ele>100</ele>
        <time>2014-07-22T14:17:51Z</time>
      </trkpt>
      <trkpt lat="44.07421" lon="-0.21625">
        <ele>99</ele>
        <time>2014-07-22T14:17:57Z</time>
      </trkpt>
      <trkpt lat="44.07422" lon="-0.21638">
        <ele>99</ele>
        <time>2014-07-22T14:18:03Z</time>
      </trkpt>
      <trkpt lat="44.07424" lon="-0.21657">
        <ele>100</ele>
        <time>2014-07-22T14:18:16Z</time>
      </trkpt>
      <trkpt lat="44.07425" lon="-0.21661">
        <ele>100</ele>
        <time>2014-07-22T14:18:18Z</time>
      </trkpt>
      <trkpt lat="44.07425" lon="-0.21682">
        <ele>99</ele>
        <time>2014-07-22T14:18:31Z</time>
      </trkpt>
      <trkpt lat="44.07424" lon="-0.21692">
        <ele>99</ele>
        <time>2014-07-22T14:18:36Z</time>
      </trkpt>
      <trkpt lat="44.07425" lon="-0.21709">
        <ele>99</ele>
        <time>2014-07-22T14:18:47Z</time>
      </trkpt>
      <trkpt lat="44.07429" lon="-0.21729">
        <ele>99</ele>
        <time>2014-07-22T14:18:59Z</time>
      </trkpt>
      <trkpt lat="44.07429" lon="-0.21736">
        <ele>99</ele>
        <time>2014-07-22T14:19:03Z</time>
      </trkpt>
      <trkpt lat="44.07429" lon="-0.21745">
        <ele>99</ele>
        <time>2014-07-22T14:19:09Z</time>
      </trkpt>
      <trkpt lat="44.07427" lon="-0.21762">
        <ele>99</ele>
        <time>2014-07-22T14:19:20Z</time>
      </trkpt>
      <trkpt lat="44.07427" lon="-0.21764">
        <ele>98</ele>
        <time>2014-07-22T14:19:21Z</time>
      </trkpt>
      <trkpt lat="44.07425" lon="-0.21769">
        <ele>98</ele>
        <time>2014-07-22T14:19:24Z</time>
      </trkpt>
      <trkpt lat="44.07425" lon="-0.21788">
        <ele>98</ele>
        <time>2014-07-22T14:19:35Z</time>
      </trkpt>
      <trkpt lat="44.07425" lon="-0.21798">
        <ele>99</ele>
        <time>2014-07-22T14:19:41Z</time>
      </trkpt>
      <trkpt lat="44.07425" lon="-0.2181">
        <ele>98</ele>
        <time>2014-07-22T14:19:48Z</time>
      </trkpt>
      <trkpt lat="44.07426" lon="-0.21826">
        <ele>98</ele>
        <time>2014-07-22T14:19:56Z</time>
      </trkpt>
      <trkpt lat="44.07426" lon="-0.21839">
        <ele>98</ele>
        <time>2014-07-22T14:20:04Z</time>
      </trkpt>
      <trkpt lat="44.07424" lon="-0.21858">
        <ele>98</ele>
        <time>2014-07-22T14:20:17Z</time>
      </trkpt>
      <trkpt lat="44.07423" lon="-0.21864">
        <ele>98</ele>
        <time>2014-07-22T14:20:21Z</time>
      </trkpt>
      <trkpt lat="44.07423" lon="-0.21883">
        <ele>98</ele>
        <time>2014-07-22T14:20:32Z</time>
      </trkpt>
      <trkpt lat="44.07423" lon="-0.21896">
        <ele>98</ele>
        <time>2014-07-22T14:20:42Z</time>
      </trkpt>
      <trkpt lat="44.07423" lon="-0.21902">
        <ele>98</ele>
        <time>2014-07-22T14:20:52Z</time>
      </trkpt>
      <trkpt lat="44.0742" lon="-0.21913">
        <ele>98</ele>
        <time>2014-07-22T14:20:59Z</time>
      </trkpt>
      <trkpt lat="44.07421" lon="-0.21922">
        <ele>98</ele>
        <time>2014-07-22T14:21:04Z</time>
      </trkpt>
      <trkpt lat="44.0742" lon="-0.21928">
        <ele>98</ele>
        <time>2014-07-22T14:21:08Z</time>
      </trkpt>
      <trkpt lat="44.07419" lon="-0.21941">
        <ele>98</ele>
        <time>2014-07-22T14:21:18Z</time>
      </trkpt>
      <trkpt lat="44.07417" lon="-0.21943">
        <ele>98</ele>
        <time>2014-07-22T14:21:32Z</time>
      </trkpt>
      <trkpt lat="44.07417" lon="-0.21943">
        <ele>98</ele>
        <time>2014-07-22T14:21:41Z</time>
      </trkpt>
      <trkpt lat="44.07416" lon="-0.21949">
        <ele>98</ele>
        <time>2014-07-22T14:21:44Z</time>
      </trkpt>
      <trkpt lat="44.07417" lon="-0.21955">
        <ele>98</ele>
        <time>2014-07-22T14:21:48Z</time>
      </trkpt>
      <trkpt lat="44.07417" lon="-0.2196">
        <ele>98</ele>
        <time>2014-07-22T14:21:52Z</time>
      </trkpt>
      <trkpt lat="44.07415" lon="-0.21973">
        <ele>98</ele>
        <time>2014-07-22T14:22:03Z</time>
      </trkpt>
      <trkpt lat="44.07415" lon="-0.2198">
        <ele>98</ele>
        <time>2014-07-22T14:22:13Z</time>
      </trkpt>
      <trkpt lat="44.07412" lon="-0.2199">
        <ele>98</ele>
        <time>2014-07-22T14:22:20Z</time>
      </trkpt>
      <trkpt lat="44.07413" lon="-0.22008">
        <ele>97</ele>
        <time>2014-07-22T14:22:30Z</time>
      </trkpt>
      <trkpt lat="44.07413" lon="-0.22022">
        <ele>97</ele>
        <time>2014-07-22T14:22:38Z</time>
      </trkpt>
      <trkpt lat="44.07412" lon="-0.22039">
        <ele>97</ele>
        <time>2014-07-22T14:22:48Z</time>
      </trkpt>
      <trkpt lat="44.07411" lon="-0.2204">
        <ele>98</ele>
        <time>2014-07-22T14:22:49Z</time>
      </trkpt>
      <trkpt lat="44.07412" lon="-0.22046">
        <ele>97</ele>
        <time>2014-07-22T14:22:51Z</time>
      </trkpt>
      <trkpt lat="44.07409" lon="-0.22054">
        <ele>97</ele>
        <time>2014-07-22T14:22:56Z</time>
      </trkpt>
      <trkpt lat="44.07411" lon="-0.22077">
        <ele>97</ele>
        <time>2014-07-22T14:23:08Z</time>
      </trkpt>
      <trkpt lat="44.07411" lon="-0.22092">
        <ele>97</ele>
        <time>2014-07-22T14:23:17Z</time>
      </trkpt>
      <trkpt lat="44.07411" lon="-0.22106">
        <ele>97</ele>
        <time>2014-07-22T14:23:25Z</time>
      </trkpt>
      <trkpt lat="44.07411" lon="-0.22127">
        <ele>97</ele>
        <time>2014-07-22T14:23:36Z</time>
      </trkpt>
      <trkpt lat="44.07411" lon="-0.22131">
        <ele>97</ele>
        <time>2014-07-22T14:23:38Z</time>
      </trkpt>
      <trkpt lat="44.07412" lon="-0.22142">
        <ele>96</ele>
        <time>2014-07-22T14:23:50Z</time>
      </trkpt>
      <trkpt lat="44.07412" lon="-0.22148">
        <ele>97</ele>
        <time>2014-07-22T14:23:55Z</time>
      </trkpt>
      <trkpt lat="44.07412" lon="-0.22156">
        <ele>96</ele>
        <time>2014-07-22T14:24:00Z</time>
      </trkpt>
      <trkpt lat="44.07415" lon="-0.22171">
        <ele>97</ele>
        <time>2014-07-22T14:24:12Z</time>
      </trkpt>
      <trkpt lat="44.07412" lon="-0.22178">
        <ele>97</ele>
        <time>2014-07-22T14:24:18Z</time>
      </trkpt>
      <trkpt lat="44.07413" lon="-0.22193">
        <ele>97</ele>
        <time>2014-07-22T14:24:29Z</time>
      </trkpt>
      <trkpt lat="44.07414" lon="-0.22198">
        <ele>97</ele>
        <time>2014-07-22T14:24:32Z</time>
      </trkpt>
      <trkpt lat="44.07416" lon="-0.2221">
        <ele>96</ele>
        <time>2014-07-22T14:24:39Z</time>
      </trkpt>
      <trkpt lat="44.0742" lon="-0.2222">
        <ele>96</ele>
        <time>2014-07-22T14:24:46Z</time>
      </trkpt>
      <trkpt lat="44.07421" lon="-0.22227">
        <ele>96</ele>
        <time>2014-07-22T14:24:49Z</time>
      </trkpt>
      <trkpt lat="44.0742" lon="-0.22245">
        <ele>96</ele>
        <time>2014-07-22T14:24:59Z</time>
      </trkpt>
      <trkpt lat="44.07421" lon="-0.22263">
        <ele>96</ele>
        <time>2014-07-22T14:25:11Z</time>
      </trkpt>
      <trkpt lat="44.07424" lon="-0.22283">
        <ele>96</ele>
        <time>2014-07-22T14:25:19Z</time>
      </trkpt>
      <trkpt lat="44.07427" lon="-0.22293">
        <ele>96</ele>
        <time>2014-07-22T14:25:24Z</time>
      </trkpt>
      <trkpt lat="44.07431" lon="-0.22308">
        <ele>96</ele>
        <time>2014-07-22T14:25:33Z</time>
      </trkpt>
      <trkpt lat="44.07436" lon="-0.22321">
        <ele>96</ele>
        <time>2014-07-22T14:25:41Z</time>
      </trkpt>
      <trkpt lat="44.07437" lon="-0.22324">
        <ele>96</ele>
        <time>2014-07-22T14:25:43Z</time>
      </trkpt>
      <trkpt lat="44.0744" lon="-0.22332">
        <ele>96</ele>
        <time>2014-07-22T14:25:52Z</time>
      </trkpt>
      <trkpt lat="44.0744" lon="-0.22337">
        <ele>96</ele>
        <time>2014-07-22T14:26:03Z</time>
      </trkpt>
      <trkpt lat="44.07442" lon="-0.2235">
        <ele>96</ele>
        <time>2014-07-22T14:26:11Z</time>
      </trkpt>
      <trkpt lat="44.07447" lon="-0.2237">
        <ele>96</ele>
        <time>2014-07-22T14:26:21Z</time>
      </trkpt>
      <trkpt lat="44.07449" lon="-0.22384">
        <ele>96</ele>
        <time>2014-07-22T14:26:30Z</time>
      </trkpt>
      <trkpt lat="44.0745" lon="-0.22389">
        <ele>95</ele>
        <time>2014-07-22T14:26:34Z</time>
      </trkpt>
      <trkpt lat="44.07452" lon="-0.22394">
        <ele>96</ele>
        <time>2014-07-22T14:26:37Z</time>
      </trkpt>
      <trkpt lat="44.07454" lon="-0.22401">
        <ele>95</ele>
        <time>2014-07-22T14:26:41Z</time>
      </trkpt>
      <trkpt lat="44.07454" lon="-0.22405">
        <ele>96</ele>
        <time>2014-07-22T14:26:43Z</time>
      </trkpt>
      <trkpt lat="44.07454" lon="-0.22409">
        <ele>95</ele>
        <time>2014-07-22T14:26:45Z</time>
      </trkpt>
      <trkpt lat="44.07459" lon="-0.22424">
        <ele>95</ele>
        <time>2014-07-22T14:26:55Z</time>
      </trkpt>
      <trkpt lat="44.07461" lon="-0.22433">
        <ele>95</ele>
        <time>2014-07-22T14:27:02Z</time>
      </trkpt>
      <trkpt lat="44.07462" lon="-0.22442">
        <ele>96</ele>
        <time>2014-07-22T14:27:08Z</time>
      </trkpt>
      <trkpt lat="44.07463" lon="-0.22445">
        <ele>96</ele>
        <time>2014-07-22T14:27:10Z</time>
      </trkpt>
      <trkpt lat="44.07468" lon="-0.22459">
        <ele>96</ele>
        <time>2014-07-22T14:27:17Z</time>
      </trkpt>
      <trkpt lat="44.07472" lon="-0.22465">
        <ele>96</ele>
        <time>2014-07-22T14:27:21Z</time>
      </trkpt>
      <trkpt lat="44.07484" lon="-0.2248">
        <ele>96</ele>
        <time>2014-07-22T14:27:33Z</time>
      </trkpt>
      <trkpt lat="44.0749" lon="-0.22486">
        <ele>95</ele>
        <time>2014-07-22T14:27:38Z</time>
      </trkpt>
      <trkpt lat="44.07498" lon="-0.22494">
        <ele>95</ele>
        <time>2014-07-22T14:27:47Z</time>
      </trkpt>
      <trkpt lat="44.07499" lon="-0.22495">
        <ele>95</ele>
        <time>2014-07-22T14:27:57Z</time>
      </trkpt>
      <trkpt lat="44.07502" lon="-0.22497">
        <ele>95</ele>
        <time>2014-07-22T14:28:00Z</time>
      </trkpt>
      <trkpt lat="44.07506" lon="-0.22501">
        <ele>95</ele>
        <time>2014-07-22T14:28:08Z</time>
      </trkpt>
      <trkpt lat="44.07514" lon="-0.22504">
        <ele>95</ele>
        <time>2014-07-22T14:28:17Z</time>
      </trkpt>
      <trkpt lat="44.07518" lon="-0.22507">
        <ele>95</ele>
        <time>2014-07-22T14:28:21Z</time>
      </trkpt>
      <trkpt lat="44.07523" lon="-0.2251">
        <ele>94</ele>
        <time>2014-07-22T14:28:26Z</time>
      </trkpt>
      <trkpt lat="44.07535" lon="-0.22521">
        <ele>95</ele>
        <time>2014-07-22T14:28:37Z</time>
      </trkpt>
      <trkpt lat="44.07552" lon="-0.22525">
        <ele>94</ele>
        <time>2014-07-22T14:28:47Z</time>
      </trkpt>
      <trkpt lat="44.07566" lon="-0.22526">
        <ele>96</ele>
        <time>2014-07-22T14:28:56Z</time>
      </trkpt>
      <trkpt lat="44.07574" lon="-0.22531">
        <ele>94</ele>
        <time>2014-07-22T14:29:04Z</time>
      </trkpt>
      <trkpt lat="44.07588" lon="-0.22535">
        <ele>94</ele>
        <time>2014-07-22T14:29:14Z</time>
      </trkpt>
      <trkpt lat="44.07597" lon="-0.22541">
        <ele>94</ele>
        <time>2014-07-22T14:29:22Z</time>
      </trkpt>
      <trkpt lat="44.07608" lon="-0.22545">
        <ele>94</ele>
        <time>2014-07-22T14:29:30Z</time>
      </trkpt>
      <trkpt lat="44.07616" lon="-0.22547">
        <ele>94</ele>
        <time>2014-07-22T14:29:39Z</time>
      </trkpt>
      <trkpt lat="44.07631" lon="-0.22549">
        <ele>94</ele>
        <time>2014-07-22T14:29:48Z</time>
      </trkpt>
      <trkpt lat="44.07637" lon="-0.22551">
        <ele>94</ele>
        <time>2014-07-22T14:29:56Z</time>
      </trkpt>
      <trkpt lat="44.07644" lon="-0.22553">
        <ele>94</ele>
        <time>2014-07-22T14:30:04Z</time>
      </trkpt>
      <trkpt lat="44.07653" lon="-0.22561">
        <ele>94</ele>
        <time>2014-07-22T14:30:11Z</time>
      </trkpt>
      <trkpt lat="44.07671" lon="-0.22564">
        <ele>94</ele>
        <time>2014-07-22T14:30:20Z</time>
      </trkpt>
      <trkpt lat="44.07671" lon="-0.22565">
        <ele>94</ele>
        <time>2014-07-22T14:30:21Z</time>
      </trkpt>
      <trkpt lat="44.07676" lon="-0.22571">
        <ele>94</ele>
        <time>2014-07-22T14:30:26Z</time>
      </trkpt>
      <trkpt lat="44.07687" lon="-0.22582">
        <ele>93</ele>
        <time>2014-07-22T14:30:35Z</time>
      </trkpt>
      <trkpt lat="44.07693" lon="-0.22593">
        <ele>94</ele>
        <time>2014-07-22T14:30:44Z</time>
      </trkpt>
      <trkpt lat="44.07694" lon="-0.22595">
        <ele>94</ele>
        <time>2014-07-22T14:30:45Z</time>
      </trkpt>
      <trkpt lat="44.07702" lon="-0.2261">
        <ele>95</ele>
        <time>2014-07-22T14:30:56Z</time>
      </trkpt>
      <trkpt lat="44.07706" lon="-0.22617">
        <ele>94</ele>
        <time>2014-07-22T14:31:00Z</time>
      </trkpt>
      <trkpt lat="44.07706" lon="-0.22622">
        <ele>94</ele>
        <time>2014-07-22T14:31:03Z</time>
      </trkpt>
      <trkpt lat="44.07707" lon="-0.22624">
        <ele>94</ele>
        <time>2014-07-22T14:31:04Z</time>
      </trkpt>
      <trkpt lat="44.07708" lon="-0.22627">
        <ele>94</ele>
        <time>2014-07-22T14:31:06Z</time>
      </trkpt>
      <trkpt lat="44.07714" lon="-0.22647">
        <ele>94</ele>
        <time>2014-07-22T14:31:19Z</time>
      </trkpt>
      <trkpt lat="44.07715" lon="-0.2265">
        <ele>94</ele>
        <time>2014-07-22T14:31:21Z</time>
      </trkpt>
      <trkpt lat="44.07717" lon="-0.22654">
        <ele>94</ele>
        <time>2014-07-22T14:31:24Z</time>
      </trkpt>
      <trkpt lat="44.07721" lon="-0.2267">
        <ele>94</ele>
        <time>2014-07-22T14:31:36Z</time>
      </trkpt>
      <trkpt lat="44.07726" lon="-0.22685">
        <ele>94</ele>
        <time>2014-07-22T14:31:46Z</time>
      </trkpt>
      <trkpt lat="44.07733" lon="-0.22704">
        <ele>93</ele>
        <time>2014-07-22T14:31:56Z</time>
      </trkpt>
      <trkpt lat="44.07736" lon="-0.22722">
        <ele>93</ele>
        <time>2014-07-22T14:32:06Z</time>
      </trkpt>
      <trkpt lat="44.07736" lon="-0.22734">
        <ele>93</ele>
        <time>2014-07-22T14:32:15Z</time>
      </trkpt>
      <trkpt lat="44.07735" lon="-0.22741">
        <ele>93</ele>
        <time>2014-07-22T14:32:20Z</time>
      </trkpt>
      <trkpt lat="44.07736" lon="-0.22748">
        <ele>93</ele>
        <time>2014-07-22T14:32:23Z</time>
      </trkpt>
      <trkpt lat="44.07738" lon="-0.2276">
        <ele>93</ele>
        <time>2014-07-22T14:32:31Z</time>
      </trkpt>
      <trkpt lat="44.07739" lon="-0.22772">
        <ele>93</ele>
        <time>2014-07-22T14:32:38Z</time>
      </trkpt>
      <trkpt lat="44.07741" lon="-0.2278">
        <ele>93</ele>
        <time>2014-07-22T14:32:44Z</time>
      </trkpt>
      <trkpt lat="44.07742" lon="-0.22784">
        <ele>93</ele>
        <time>2014-07-22T14:32:46Z</time>
      </trkpt>
      <trkpt lat="44.07745" lon="-0.22801">
        <ele>93</ele>
        <time>2014-07-22T14:32:54Z</time>
      </trkpt>
      <trkpt lat="44.07749" lon="-0.2282">
        <ele>93</ele>
        <time>2014-07-22T14:33:04Z</time>
      </trkpt>
      <trkpt lat="44.07751" lon="-0.22827">
        <ele>93</ele>
        <time>2014-07-22T14:33:08Z</time>
      </trkpt>
      <trkpt lat="44.07753" lon="-0.2284">
        <ele>93</ele>
        <time>2014-07-22T14:33:19Z</time>
      </trkpt>
      <trkpt lat="44.07753" lon="-0.22842">
        <ele>93</ele>
        <time>2014-07-22T14:33:20Z</time>
      </trkpt>
      <trkpt lat="44.07752" lon="-0.22848">
        <ele>94</ele>
        <time>2014-07-22T14:33:30Z</time>
      </trkpt>
      <trkpt lat="44.07755" lon="-0.22858">
        <ele>94</ele>
        <time>2014-07-22T14:33:38Z</time>
      </trkpt>
      <trkpt lat="44.07755" lon="-0.22861">
        <ele>94</ele>
        <time>2014-07-22T14:33:42Z</time>
      </trkpt>
      <trkpt lat="44.07755" lon="-0.22867">
        <ele>94</ele>
        <time>2014-07-22T14:33:46Z</time>
      </trkpt>
      <trkpt lat="44.07756" lon="-0.2287">
        <ele>94</ele>
        <time>2014-07-22T14:33:48Z</time>
      </trkpt>
      <trkpt lat="44.07757" lon="-0.22874">
        <ele>94</ele>
        <time>2014-07-22T14:33:50Z</time>
      </trkpt>
      <trkpt lat="44.07762" lon="-0.2289">
        <ele>94</ele>
        <time>2014-07-22T14:33:59Z</time>
      </trkpt>
      <trkpt lat="44.07766" lon="-0.22898">
        <ele>94</ele>
        <time>2014-07-22T14:34:08Z</time>
      </trkpt>
      <trkpt lat="44.07768" lon="-0.229">
        <ele>94</ele>
        <time>2014-07-22T14:34:28Z</time>
      </trkpt>
      <trkpt lat="44.07768" lon="-0.229">
        <ele>94</ele>
        <time>2014-07-22T14:34:38Z</time>
      </trkpt>
      <trkpt lat="44.07769" lon="-0.22903">
        <ele>95</ele>
        <time>2014-07-22T14:34:57Z</time>
      </trkpt>
      <trkpt lat="44.07768" lon="-0.22904">
        <ele>94</ele>
        <time>2014-07-22T14:35:09Z</time>
      </trkpt>
      <trkpt lat="44.0777" lon="-0.22906">
        <ele>94</ele>
        <time>2014-07-22T14:35:16Z</time>
      </trkpt>
      <trkpt lat="44.0777" lon="-0.22906">
        <ele>94</ele>
        <time>2014-07-22T14:35:18Z</time>
      </trkpt>
      <trkpt lat="44.0777" lon="-0.22904">
        <ele>95</ele>
        <time>2014-07-22T14:35:27Z</time>
      </trkpt>
      <trkpt lat="44.0777" lon="-0.22904">
        <ele>94</ele>
        <time>2014-07-22T14:35:43Z</time>
      </trkpt>
      <trkpt lat="44.0777" lon="-0.22905">
        <ele>94</ele>
        <time>2014-07-22T14:35:51Z</time>
      </trkpt>
      <trkpt lat="44.07769" lon="-0.22904">
        <ele>95</ele>
        <time>2014-07-22T14:36:00Z</time>
      </trkpt>
      <trkpt lat="44.07769" lon="-0.22905">
        <ele>95</ele>
        <time>2014-07-22T14:36:02Z</time>
      </trkpt>
      <trkpt lat="44.0777" lon="-0.22909">
        <ele>94</ele>
        <time>2014-07-22T14:36:11Z</time>
      </trkpt>
      <trkpt lat="44.07773" lon="-0.22916">
        <ele>95</ele>
        <time>2014-07-22T14:36:21Z</time>
      </trkpt>
      <trkpt lat="44.07774" lon="-0.22927">
        <ele>95</ele>
        <time>2014-07-22T14:36:27Z</time>
      </trkpt>
      <trkpt lat="44.07777" lon="-0.22933">
        <ele>95</ele>
        <time>2014-07-22T14:36:31Z</time>
      </trkpt>
      <trkpt lat="44.07779" lon="-0.22943">
        <ele>95</ele>
        <time>2014-07-22T14:36:38Z</time>
      </trkpt>
      <trkpt lat="44.07782" lon="-0.22957">
        <ele>95</ele>
        <time>2014-07-22T14:36:46Z</time>
      </trkpt>
      <trkpt lat="44.07781" lon="-0.22976">
        <ele>95</ele>
        <time>2014-07-22T14:36:56Z</time>
      </trkpt>
      <trkpt lat="44.0778" lon="-0.22995">
        <ele>94</ele>
        <time>2014-07-22T14:37:05Z</time>
      </trkpt>
      <trkpt lat="44.07781" lon="-0.23005">
        <ele>94</ele>
        <time>2014-07-22T14:37:13Z</time>
      </trkpt>
      <trkpt lat="44.07781" lon="-0.23012">
        <ele>94</ele>
        <time>2014-07-22T14:37:17Z</time>
      </trkpt>
      <trkpt lat="44.07778" lon="-0.23027">
        <ele>94</ele>
        <time>2014-07-22T14:37:26Z</time>
      </trkpt>
      <trkpt lat="44.07777" lon="-0.23029">
        <ele>94</ele>
        <time>2014-07-22T14:37:27Z</time>
      </trkpt>
      <trkpt lat="44.07778" lon="-0.23036">
        <ele>94</ele>
        <time>2014-07-22T14:37:31Z</time>
      </trkpt>
      <trkpt lat="44.07782" lon="-0.23053">
        <ele>94</ele>
        <time>2014-07-22T14:37:40Z</time>
      </trkpt>
      <trkpt lat="44.07784" lon="-0.23058">
        <ele>94</ele>
        <time>2014-07-22T14:37:43Z</time>
      </trkpt>
      <trkpt lat="44.07788" lon="-0.23071">
        <ele>94</ele>
        <time>2014-07-22T14:37:52Z</time>
      </trkpt>
      <trkpt lat="44.07799" lon="-0.23088">
        <ele>93</ele>
        <time>2014-07-22T14:38:03Z</time>
      </trkpt>
      <trkpt lat="44.078" lon="-0.2309">
        <ele>93</ele>
        <time>2014-07-22T14:38:04Z</time>
      </trkpt>
      <trkpt lat="44.07804" lon="-0.23106">
        <ele>93</ele>
        <time>2014-07-22T14:38:14Z</time>
      </trkpt>
      <trkpt lat="44.07808" lon="-0.23117">
        <ele>93</ele>
        <time>2014-07-22T14:38:23Z</time>
      </trkpt>
      <trkpt lat="44.07815" lon="-0.23139">
        <ele>92</ele>
        <time>2014-07-22T14:38:34Z</time>
      </trkpt>
      <trkpt lat="44.07815" lon="-0.23152">
        <ele>93</ele>
        <time>2014-07-22T14:38:39Z</time>
      </trkpt>
      <trkpt lat="44.07815" lon="-0.23166">
        <ele>93</ele>
        <time>2014-07-22T14:38:47Z</time>
      </trkpt>
      <trkpt lat="44.07817" lon="-0.23189">
        <ele>93</ele>
        <time>2014-07-22T14:38:58Z</time>
      </trkpt>
      <trkpt lat="44.07818" lon="-0.2319">
        <ele>93</ele>
        <time>2014-07-22T14:38:59Z</time>
      </trkpt>
      <trkpt lat="44.07819" lon="-0.23208">
        <ele>93</ele>
        <time>2014-07-22T14:39:10Z</time>
      </trkpt>
      <trkpt lat="44.07819" lon="-0.23226">
        <ele>93</ele>
        <time>2014-07-22T14:39:20Z</time>
      </trkpt>
      <trkpt lat="44.0782" lon="-0.23233">
        <ele>93</ele>
        <time>2014-07-22T14:39:24Z</time>
      </trkpt>
      <trkpt lat="44.07824" lon="-0.23243">
        <ele>93</ele>
        <time>2014-07-22T14:39:31Z</time>
      </trkpt>
      <trkpt lat="44.07825" lon="-0.23251">
        <ele>92</ele>
        <time>2014-07-22T14:39:37Z</time>
      </trkpt>
      <trkpt lat="44.07833" lon="-0.2327">
        <ele>92</ele>
        <time>2014-07-22T14:39:49Z</time>
      </trkpt>
      <trkpt lat="44.07836" lon="-0.2328">
        <ele>92</ele>
        <time>2014-07-22T14:39:55Z</time>
      </trkpt>
      <trkpt lat="44.07836" lon="-0.23285">
        <ele>92</ele>
        <time>2014-07-22T14:39:58Z</time>
      </trkpt>
      <trkpt lat="44.07838" lon="-0.23291">
        <ele>92</ele>
        <time>2014-07-22T14:40:03Z</time>
      </trkpt>
      <trkpt lat="44.0784" lon="-0.23297">
        <ele>92</ele>
        <time>2014-07-22T14:40:07Z</time>
      </trkpt>
      <trkpt lat="44.07845" lon="-0.23313">
        <ele>92</ele>
        <time>2014-07-22T14:40:18Z</time>
      </trkpt>
      <trkpt lat="44.07849" lon="-0.23317">
        <ele>92</ele>
        <time>2014-07-22T14:40:20Z</time>
      </trkpt>
      <trkpt lat="44.07856" lon="-0.23333">
        <ele>92</ele>
        <time>2014-07-22T14:40:30Z</time>
      </trkpt>
      <trkpt lat="44.07857" lon="-0.23345">
        <ele>92</ele>
        <time>2014-07-22T14:40:36Z</time>
      </trkpt>
      <trkpt lat="44.07858" lon="-0.23359">
        <ele>92</ele>
        <time>2014-07-22T14:40:47Z</time>
      </trkpt>
      <trkpt lat="44.0786" lon="-0.23374">
        <ele>92</ele>
        <time>2014-07-22T14:40:56Z</time>
      </trkpt>
      <trkpt lat="44.07861" lon="-0.23387">
        <ele>92</ele>
        <time>2014-07-22T14:41:03Z</time>
      </trkpt>
      <trkpt lat="44.07862" lon="-0.23393">
        <ele>92</ele>
        <time>2014-07-22T14:41:06Z</time>
      </trkpt>
      <trkpt lat="44.07868" lon="-0.23406">
        <ele>92</ele>
        <time>2014-07-22T14:41:18Z</time>
      </trkpt>
      <trkpt lat="44.07871" lon="-0.23415">
        <ele>92</ele>
        <time>2014-07-22T14:41:25Z</time>
      </trkpt>
      <trkpt lat="44.07876" lon="-0.23428">
        <ele>92</ele>
        <time>2014-07-22T14:41:37Z</time>
      </trkpt>
      <trkpt lat="44.07877" lon="-0.2343">
        <ele>92</ele>
        <time>2014-07-22T14:41:39Z</time>
      </trkpt>
      <trkpt lat="44.07884" lon="-0.23446">
        <ele>92</ele>
        <time>2014-07-22T14:41:51Z</time>
      </trkpt>
      <trkpt lat="44.07887" lon="-0.23452">
        <ele>92</ele>
        <time>2014-07-22T14:41:56Z</time>
      </trkpt>
      <trkpt lat="44.07896" lon="-0.23462">
        <ele>92</ele>
        <time>2014-07-22T14:42:04Z</time>
      </trkpt>
      <trkpt lat="44.07906" lon="-0.23473">
        <ele>92</ele>
        <time>2014-07-22T14:42:14Z</time>
      </trkpt>
      <trkpt lat="44.07907" lon="-0.23476">
        <ele>92</ele>
        <time>2014-07-22T14:42:16Z</time>
      </trkpt>
      <trkpt lat="44.07912" lon="-0.23488">
        <ele>91</ele>
        <time>2014-07-22T14:42:23Z</time>
      </trkpt>
      <trkpt lat="44.0792" lon="-0.23499">
        <ele>91</ele>
        <time>2014-07-22T14:42:32Z</time>
      </trkpt>
      <trkpt lat="44.07924" lon="-0.23501">
        <ele>92</ele>
        <time>2014-07-22T14:42:39Z</time>
      </trkpt>
      <trkpt lat="44.07926" lon="-0.23507">
        <ele>91</ele>
        <time>2014-07-22T14:42:46Z</time>
      </trkpt>
      <trkpt lat="44.07931" lon="-0.2352">
        <ele>92</ele>
        <time>2014-07-22T14:42:55Z</time>
      </trkpt>
      <trkpt lat="44.07935" lon="-0.23525">
        <ele>91</ele>
        <time>2014-07-22T14:42:58Z</time>
      </trkpt>
      <trkpt lat="44.07943" lon="-0.2354">
        <ele>92</ele>
        <time>2014-07-22T14:43:07Z</time>
      </trkpt>
      <trkpt lat="44.07949" lon="-0.23563">
        <ele>91</ele>
        <time>2014-07-22T14:43:14Z</time>
      </trkpt>
      <trkpt lat="44.07955" lon="-0.23577">
        <ele>91</ele>
        <time>2014-07-22T14:43:25Z</time>
      </trkpt>
      <trkpt lat="44.07955" lon="-0.23579">
        <ele>91</ele>
        <time>2014-07-22T14:43:26Z</time>
      </trkpt>
      <trkpt lat="44.07955" lon="-0.23601">
        <ele>91</ele>
        <time>2014-07-22T14:43:35Z</time>
      </trkpt>
      <trkpt lat="44.07954" lon="-0.23604">
        <ele>91</ele>
        <time>2014-07-22T14:43:37Z</time>
      </trkpt>
      <trkpt lat="44.07951" lon="-0.23623">
        <ele>91</ele>
        <time>2014-07-22T14:43:47Z</time>
      </trkpt>
      <trkpt lat="44.07951" lon="-0.2364">
        <ele>91</ele>
        <time>2014-07-22T14:43:57Z</time>
      </trkpt>
      <trkpt lat="44.0795" lon="-0.23649">
        <ele>90</ele>
        <time>2014-07-22T14:44:02Z</time>
      </trkpt>
      <trkpt lat="44.07948" lon="-0.23666">
        <ele>90</ele>
        <time>2014-07-22T14:44:14Z</time>
      </trkpt>
      <trkpt lat="44.07947" lon="-0.23668">
        <ele>90</ele>
        <time>2014-07-22T14:44:15Z</time>
      </trkpt>
      <trkpt lat="44.07945" lon="-0.23672">
        <ele>90</ele>
        <time>2014-07-22T14:44:18Z</time>
      </trkpt>
      <trkpt lat="44.07937" lon="-0.23686">
        <ele>90</ele>
        <time>2014-07-22T14:44:28Z</time>
      </trkpt>
      <trkpt lat="44.07927" lon="-0.23704">
        <ele>89</ele>
        <time>2014-07-22T14:44:40Z</time>
      </trkpt>
      <trkpt lat="44.07925" lon="-0.23712">
        <ele>89</ele>
        <time>2014-07-22T14:44:49Z</time>
      </trkpt>
      <trkpt lat="44.07925" lon="-0.23713">
        <ele>89</ele>
        <time>2014-07-22T14:45:08Z</time>
      </trkpt>
      <trkpt lat="44.07926" lon="-0.23712">
        <ele>89</ele>
        <time>2014-07-22T14:45:22Z</time>
      </trkpt>
      <trkpt lat="44.07925" lon="-0.23711">
        <ele>89</ele>
        <time>2014-07-22T14:45:45Z</time>
      </trkpt>
      <trkpt lat="44.07924" lon="-0.23709">
        <ele>89</ele>
        <time>2014-07-22T14:45:59Z</time>
      </trkpt>
      <trkpt lat="44.07925" lon="-0.23708">
        <ele>89</ele>
        <time>2014-07-22T14:46:16Z</time>
      </trkpt>
      <trkpt lat="44.07924" lon="-0.23708">
        <ele>89</ele>
        <time>2014-07-22T14:46:39Z</time>
      </trkpt>
      <trkpt lat="44.07924" lon="-0.23708">
        <ele>89</ele>
        <time>2014-07-22T14:47:02Z</time>
      </trkpt>
      <trkpt lat="44.07924" lon="-0.23709">
        <ele>90</ele>
        <time>2014-07-22T14:47:14Z</time>
      </trkpt>
      <trkpt lat="44.07925" lon="-0.2371">
        <ele>90</ele>
        <time>2014-07-22T14:47:31Z</time>
      </trkpt>
      <trkpt lat="44.07925" lon="-0.2371">
        <ele>90</ele>
        <time>2014-07-22T14:47:56Z</time>
      </trkpt>
      <trkpt lat="44.07925" lon="-0.23709">
        <ele>89</ele>
        <time>2014-07-22T14:48:14Z</time>
      </trkpt>
      <trkpt lat="44.07925" lon="-0.23709">
        <ele>90</ele>
        <time>2014-07-22T14:48:35Z</time>
      </trkpt>
      <trkpt lat="44.07925" lon="-0.23709">
        <ele>90</ele>
        <time>2014-07-22T14:48:57Z</time>
      </trkpt>
      <trkpt lat="44.07925" lon="-0.23709">
        <ele>90</ele>
        <time>2014-07-22T14:49:10Z</time>
      </trkpt>
      <trkpt lat="44.07924" lon="-0.23709">
        <ele>89</ele>
        <time>2014-07-22T14:49:28Z</time>
      </trkpt>
      <trkpt lat="44.07924" lon="-0.23708">
        <ele>89</ele>
        <time>2014-07-22T14:49:42Z</time>
      </trkpt>
      <trkpt lat="44.07924" lon="-0.23707">
        <ele>89</ele>
        <time>2014-07-22T14:49:54Z</time>
      </trkpt>
      <trkpt lat="44.07925" lon="-0.23706">
        <ele>90</ele>
        <time>2014-07-22T14:50:11Z</time>
      </trkpt>
      <trkpt lat="44.07924" lon="-0.23706">
        <ele>90</ele>
        <time>2014-07-22T14:50:34Z</time>
      </trkpt>
      <trkpt lat="44.07924" lon="-0.23706">
        <ele>90</ele>
        <time>2014-07-22T14:50:56Z</time>
      </trkpt>
      <trkpt lat="44.07925" lon="-0.23706">
        <ele>89</ele>
        <time>2014-07-22T14:51:17Z</time>
      </trkpt>
      <trkpt lat="44.07925" lon="-0.23705">
        <ele>89</ele>
        <time>2014-07-22T14:51:40Z</time>
      </trkpt>
      <trkpt lat="44.07927" lon="-0.23706">
        <ele>89</ele>
        <time>2014-07-22T14:51:43Z</time>
      </trkpt>
      <trkpt lat="44.0793" lon="-0.23704">
        <ele>90</ele>
        <time>2014-07-22T14:51:46Z</time>
      </trkpt>
      <trkpt lat="44.07935" lon="-0.23701">
        <ele>90</ele>
        <time>2014-07-22T14:51:54Z</time>
      </trkpt>
      <trkpt lat="44.07944" lon="-0.23698">
        <ele>91</ele>
        <time>2014-07-22T14:52:03Z</time>
      </trkpt>
      <trkpt lat="44.07949" lon="-0.23693">
        <ele>91</ele>
        <time>2014-07-22T14:52:09Z</time>
      </trkpt>
      <trkpt lat="44.07951" lon="-0.2369">
        <ele>91</ele>
        <time>2014-07-22T14:52:11Z</time>
      </trkpt>
      <trkpt lat="44.07961" lon="-0.23681">
        <ele>91</ele>
        <time>2014-07-22T14:52:22Z</time>
      </trkpt>
      <trkpt lat="44.07967" lon="-0.2367">
        <ele>92</ele>
        <time>2014-07-22T14:52:32Z</time>
      </trkpt>
      <trkpt lat="44.07968" lon="-0.23669">
        <ele>92</ele>
        <time>2014-07-22T14:52:33Z</time>
      </trkpt>
      <trkpt lat="44.07975" lon="-0.23658">
        <ele>92</ele>
        <time>2014-07-22T14:52:43Z</time>
      </trkpt>
      <trkpt lat="44.07976" lon="-0.23655">
        <ele>92</ele>
        <time>2014-07-22T14:52:45Z</time>
      </trkpt>
      <trkpt lat="44.07989" lon="-0.23636">
        <ele>92</ele>
        <time>2014-07-22T14:53:00Z</time>
      </trkpt>
      <trkpt lat="44.07991" lon="-0.23627">
        <ele>92</ele>
        <time>2014-07-22T14:53:07Z</time>
      </trkpt>
      <trkpt lat="44.07992" lon="-0.23621">
        <ele>92</ele>
        <time>2014-07-22T14:53:12Z</time>
      </trkpt>
      <trkpt lat="44.07995" lon="-0.23616">
        <ele>93</ele>
        <time>2014-07-22T14:53:15Z</time>
      </trkpt>
      <trkpt lat="44.07999" lon="-0.23611">
        <ele>92</ele>
        <time>2014-07-22T14:53:19Z</time>
      </trkpt>
      <trkpt lat="44.08003" lon="-0.23607">
        <ele>92</ele>
        <time>2014-07-22T14:53:22Z</time>
      </trkpt>
      <trkpt lat="44.08009" lon="-0.23598">
        <ele>92</ele>
        <time>2014-07-22T14:53:31Z</time>
      </trkpt>
      <trkpt lat="44.0801" lon="-0.23597">
        <ele>93</ele>
        <time>2014-07-22T14:53:32Z</time>
      </trkpt>
      <trkpt lat="44.08016" lon="-0.23591">
        <ele>92</ele>
        <time>2014-07-22T14:53:39Z</time>
      </trkpt>
      <trkpt lat="44.08028" lon="-0.23575">
        <ele>92</ele>
        <time>2014-07-22T14:53:48Z</time>
      </trkpt>
      <trkpt lat="44.08038" lon="-0.2356">
        <ele>92</ele>
        <time>2014-07-22T14:53:58Z</time>
      </trkpt>
      <trkpt lat="44.08042" lon="-0.23546">
        <ele>92</ele>
        <time>2014-07-22T14:54:07Z</time>
      </trkpt>
      <trkpt lat="44.08042" lon="-0.23542">
        <ele>92</ele>
        <time>2014-07-22T14:54:10Z</time>
      </trkpt>
      <trkpt lat="44.08041" lon="-0.23523">
        <ele>92</ele>
        <time>2014-07-22T14:54:23Z</time>
      </trkpt>
      <trkpt lat="44.0804" lon="-0.23507">
        <ele>92</ele>
        <time>2014-07-22T14:54:33Z</time>
      </trkpt>
      <trkpt lat="44.08041" lon="-0.23504">
        <ele>92</ele>
        <time>2014-07-22T14:54:41Z</time>
      </trkpt>
      <trkpt lat="44.08042" lon="-0.235">
        <ele>92</ele>
        <time>2014-07-22T14:54:44Z</time>
      </trkpt>
      <trkpt lat="44.08042" lon="-0.23489">
        <ele>92</ele>
        <time>2014-07-22T14:54:52Z</time>
      </trkpt>
      <trkpt lat="44.08042" lon="-0.23486">
        <ele>92</ele>
        <time>2014-07-22T14:54:54Z</time>
      </trkpt>
      <trkpt lat="44.08045" lon="-0.23471">
        <ele>92</ele>
        <time>2014-07-22T14:55:03Z</time>
      </trkpt>
      <trkpt lat="44.08047" lon="-0.23459">
        <ele>92</ele>
        <time>2014-07-22T14:55:13Z</time>
      </trkpt>
      <trkpt lat="44.0805" lon="-0.23446">
        <ele>92</ele>
        <time>2014-07-22T14:55:22Z</time>
      </trkpt>
      <trkpt lat="44.08053" lon="-0.23428">
        <ele>92</ele>
        <time>2014-07-22T14:55:32Z</time>
      </trkpt>
      <trkpt lat="44.08054" lon="-0.23427">
        <ele>92</ele>
        <time>2014-07-22T14:55:33Z</time>
      </trkpt>
      <trkpt lat="44.08062" lon="-0.23411">
        <ele>92</ele>
        <time>2014-07-22T14:55:43Z</time>
      </trkpt>
      <trkpt lat="44.08066" lon="-0.23397">
        <ele>92</ele>
        <time>2014-07-22T14:55:54Z</time>
      </trkpt>
      <trkpt lat="44.08072" lon="-0.23389">
        <ele>92</ele>
        <time>2014-07-22T14:56:00Z</time>
      </trkpt>
      <trkpt lat="44.08076" lon="-0.23377">
        <ele>91</ele>
        <time>2014-07-22T14:56:10Z</time>
      </trkpt>
      <trkpt lat="44.08079" lon="-0.23368">
        <ele>91</ele>
        <time>2014-07-22T14:56:18Z</time>
      </trkpt>
      <trkpt lat="44.08086" lon="-0.23352">
        <ele>90</ele>
        <time>2014-07-22T14:56:28Z</time>
      </trkpt>
      <trkpt lat="44.08092" lon="-0.23332">
        <ele>89</ele>
        <time>2014-07-22T14:56:41Z</time>
      </trkpt>
      <trkpt lat="44.08094" lon="-0.23319">
        <ele>89</ele>
        <time>2014-07-22T14:56:50Z</time>
      </trkpt>
      <trkpt lat="44.08097" lon="-0.23311">
        <ele>89</ele>
        <time>2014-07-22T14:56:54Z</time>
      </trkpt>
      <trkpt lat="44.08099" lon="-0.23306">
        <ele>89</ele>
        <time>2014-07-22T14:56:57Z</time>
      </trkpt>
      <trkpt lat="44.081" lon="-0.23303">
        <ele>90</ele>
        <time>2014-07-22T14:56:59Z</time>
      </trkpt>
      <trkpt lat="44.08107" lon="-0.23288">
        <ele>89</ele>
        <time>2014-07-22T14:57:09Z</time>
      </trkpt>
      <trkpt lat="44.08111" lon="-0.23282">
        <ele>89</ele>
        <time>2014-07-22T14:57:13Z</time>
      </trkpt>
      <trkpt lat="44.08113" lon="-0.23277">
        <ele>89</ele>
        <time>2014-07-22T14:57:16Z</time>
      </trkpt>
      <trkpt lat="44.08117" lon="-0.23269">
        <ele>89</ele>
        <time>2014-07-22T14:57:20Z</time>
      </trkpt>
      <trkpt lat="44.08122" lon="-0.23251">
        <ele>89</ele>
        <time>2014-07-22T14:57:31Z</time>
      </trkpt>
      <trkpt lat="44.08123" lon="-0.2324">
        <ele>89</ele>
        <time>2014-07-22T14:57:37Z</time>
      </trkpt>
      <trkpt lat="44.08123" lon="-0.23235">
        <ele>89</ele>
        <time>2014-07-22T14:57:40Z</time>
      </trkpt>
      <trkpt lat="44.08125" lon="-0.23225">
        <ele>89</ele>
        <time>2014-07-22T14:57:47Z</time>
      </trkpt>
      <trkpt lat="44.08129" lon="-0.23207">
        <ele>89</ele>
        <time>2014-07-22T14:57:59Z</time>
      </trkpt>
      <trkpt lat="44.08129" lon="-0.23191">
        <ele>89</ele>
        <time>2014-07-22T14:58:09Z</time>
      </trkpt>
      <trkpt lat="44.0813" lon="-0.23171">
        <ele>89</ele>
        <time>2014-07-22T14:58:19Z</time>
      </trkpt>
      <trkpt lat="44.0813" lon="-0.23167">
        <ele>89</ele>
        <time>2014-07-22T14:58:22Z</time>
      </trkpt>
      <trkpt lat="44.08129" lon="-0.23163">
        <ele>89</ele>
        <time>2014-07-22T14:58:24Z</time>
      </trkpt>
      <trkpt lat="44.08129" lon="-0.23155">
        <ele>89</ele>
        <time>2014-07-22T14:58:29Z</time>
      </trkpt>
      <trkpt lat="44.08128" lon="-0.2315">
        <ele>89</ele>
        <time>2014-07-22T14:58:32Z</time>
      </trkpt>
      <trkpt lat="44.08133" lon="-0.2313">
        <ele>89</ele>
        <time>2014-07-22T14:58:43Z</time>
      </trkpt>
      <trkpt lat="44.08137" lon="-0.23111">
        <ele>89</ele>
        <time>2014-07-22T14:58:54Z</time>
      </trkpt>
      <trkpt lat="44.08137" lon="-0.23094">
        <ele>89</ele>
        <time>2014-07-22T14:59:04Z</time>
      </trkpt>
      <trkpt lat="44.08139" lon="-0.23081">
        <ele>89</ele>
        <time>2014-07-22T14:59:13Z</time>
      </trkpt>
      <trkpt lat="44.08142" lon="-0.23071">
        <ele>89</ele>
        <time>2014-07-22T14:59:20Z</time>
      </trkpt>
      <trkpt lat="44.08143" lon="-0.23065">
        <ele>89</ele>
        <time>2014-07-22T14:59:23Z</time>
      </trkpt>
      <trkpt lat="44.08146" lon="-0.23045">
        <ele>89</ele>
        <time>2014-07-22T14:59:33Z</time>
      </trkpt>
      <trkpt lat="44.08146" lon="-0.23041">
        <ele>89</ele>
        <time>2014-07-22T14:59:36Z</time>
      </trkpt>
      <trkpt lat="44.08147" lon="-0.23037">
        <ele>89</ele>
        <time>2014-07-22T14:59:39Z</time>
      </trkpt>
      <trkpt lat="44.08149" lon="-0.23022">
        <ele>90</ele>
        <time>2014-07-22T14:59:49Z</time>
      </trkpt>
      <trkpt lat="44.08151" lon="-0.23005">
        <ele>89</ele>
        <time>2014-07-22T14:59:58Z</time>
      </trkpt>
      <trkpt lat="44.08154" lon="-0.22994">
        <ele>90</ele>
        <time>2014-07-22T15:00:06Z</time>
      </trkpt>
      <trkpt lat="44.08155" lon="-0.22986">
        <ele>90</ele>
        <time>2014-07-22T15:00:11Z</time>
      </trkpt>
      <trkpt lat="44.08155" lon="-0.22982">
        <ele>90</ele>
        <time>2014-07-22T15:00:13Z</time>
      </trkpt>
      <trkpt lat="44.08156" lon="-0.22972">
        <ele>90</ele>
        <time>2014-07-22T15:00:24Z</time>
      </trkpt>
      <trkpt lat="44.08155" lon="-0.22969">
        <ele>90</ele>
        <time>2014-07-22T15:00:38Z</time>
      </trkpt>
      <trkpt lat="44.08153" lon="-0.22967">
        <ele>90</ele>
        <time>2014-07-22T15:00:40Z</time>
      </trkpt>
      <trkpt lat="44.08151" lon="-0.22958">
        <ele>90</ele>
        <time>2014-07-22T15:00:46Z</time>
      </trkpt>
      <trkpt lat="44.08149" lon="-0.22945">
        <ele>89</ele>
        <time>2014-07-22T15:00:54Z</time>
      </trkpt>
      <trkpt lat="44.08149" lon="-0.22929">
        <ele>90</ele>
        <time>2014-07-22T15:01:02Z</time>
      </trkpt>
      <trkpt lat="44.08151" lon="-0.22917">
        <ele>90</ele>
        <time>2014-07-22T15:01:09Z</time>
      </trkpt>
      <trkpt lat="44.08151" lon="-0.22907">
        <ele>90</ele>
        <time>2014-07-22T15:01:14Z</time>
      </trkpt>
      <trkpt lat="44.08153" lon="-0.229">
        <ele>90</ele>
        <time>2014-07-22T15:01:20Z</time>
      </trkpt>
      <trkpt lat="44.08154" lon="-0.22897">
        <ele>90</ele>
        <time>2014-07-22T15:01:22Z</time>
      </trkpt>
      <trkpt lat="44.08161" lon="-0.22878">
        <ele>90</ele>
        <time>2014-07-22T15:01:34Z</time>
      </trkpt>
      <trkpt lat="44.08165" lon="-0.22865">
        <ele>90</ele>
        <time>2014-07-22T15:01:43Z</time>
      </trkpt>
      <trkpt lat="44.08169" lon="-0.22856">
        <ele>91</ele>
        <time>2014-07-22T15:01:49Z</time>
      </trkpt>
      <trkpt lat="44.08169" lon="-0.22839">
        <ele>91</ele>
        <time>2014-07-22T15:02:00Z</time>
      </trkpt>
      <trkpt lat="44.0817" lon="-0.22829">
        <ele>91</ele>
        <time>2014-07-22T15:02:08Z</time>
      </trkpt>
      <trkpt lat="44.08171" lon="-0.22823">
        <ele>91</ele>
        <time>2014-07-22T15:02:18Z</time>
      </trkpt>
      <trkpt lat="44.08172" lon="-0.22822">
        <ele>91</ele>
        <time>2014-07-22T15:02:32Z</time>
      </trkpt>
      <trkpt lat="44.08174" lon="-0.22815">
        <ele>91</ele>
        <time>2014-07-22T15:02:48Z</time>
      </trkpt>
      <trkpt lat="44.08175" lon="-0.22814">
        <ele>91</ele>
        <time>2014-07-22T15:02:49Z</time>
      </trkpt>
      <trkpt lat="44.08181" lon="-0.22797">
        <ele>91</ele>
        <time>2014-07-22T15:02:58Z</time>
      </trkpt>
      <trkpt lat="44.08184" lon="-0.22791">
        <ele>91</ele>
        <time>2014-07-22T15:03:04Z</time>
      </trkpt>
      <trkpt lat="44.08187" lon="-0.22783">
        <ele>91</ele>
        <time>2014-07-22T15:03:12Z</time>
      </trkpt>
      <trkpt lat="44.08188" lon="-0.2278">
        <ele>91</ele>
        <time>2014-07-22T15:03:14Z</time>
      </trkpt>
      <trkpt lat="44.08201" lon="-0.22766">
        <ele>91</ele>
        <time>2014-07-22T15:03:25Z</time>
      </trkpt>
      <trkpt lat="44.08205" lon="-0.2276">
        <ele>90</ele>
        <time>2014-07-22T15:03:30Z</time>
      </trkpt>
      <trkpt lat="44.08209" lon="-0.22752">
        <ele>91</ele>
        <time>2014-07-22T15:03:35Z</time>
      </trkpt>
      <trkpt lat="44.08212" lon="-0.22734">
        <ele>91</ele>
        <time>2014-07-22T15:03:47Z</time>
      </trkpt>
      <trkpt lat="44.08214" lon="-0.22724">
        <ele>91</ele>
        <time>2014-07-22T15:03:53Z</time>
      </trkpt>
      <trkpt lat="44.08214" lon="-0.22721">
        <ele>91</ele>
        <time>2014-07-22T15:03:55Z</time>
      </trkpt>
      <trkpt lat="44.08217" lon="-0.22707">
        <ele>91</ele>
        <time>2014-07-22T15:04:02Z</time>
      </trkpt>
      <trkpt lat="44.08223" lon="-0.22688">
        <ele>91</ele>
        <time>2014-07-22T15:04:14Z</time>
      </trkpt>
      <trkpt lat="44.08227" lon="-0.2268">
        <ele>91</ele>
        <time>2014-07-22T15:04:21Z</time>
      </trkpt>
      <trkpt lat="44.08232" lon="-0.22664">
        <ele>91</ele>
        <time>2014-07-22T15:04:31Z</time>
      </trkpt>
      <trkpt lat="44.08231" lon="-0.22651">
        <ele>91</ele>
        <time>2014-07-22T15:04:39Z</time>
      </trkpt>
      <trkpt lat="44.0823" lon="-0.22649">
        <ele>91</ele>
        <time>2014-07-22T15:04:40Z</time>
      </trkpt>
      <trkpt lat="44.08226" lon="-0.22635">
        <ele>91</ele>
        <time>2014-07-22T15:04:48Z</time>
      </trkpt>
      <trkpt lat="44.08229" lon="-0.22613">
        <ele>91</ele>
        <time>2014-07-22T15:05:00Z</time>
      </trkpt>
      <trkpt lat="44.08229" lon="-0.22611">
        <ele>91</ele>
        <time>2014-07-22T15:05:01Z</time>
      </trkpt>
      <trkpt lat="44.08233" lon="-0.22599">
        <ele>90</ele>
        <time>2014-07-22T15:05:08Z</time>
      </trkpt>
      <trkpt lat="44.08233" lon="-0.22594">
        <ele>91</ele>
        <time>2014-07-22T15:05:11Z</time>
      </trkpt>
      <trkpt lat="44.08237" lon="-0.22581">
        <ele>91</ele>
        <time>2014-07-22T15:05:20Z</time>
      </trkpt>
      <trkpt lat="44.08243" lon="-0.22571">
        <ele>91</ele>
        <time>2014-07-22T15:05:31Z</time>
      </trkpt>
      <trkpt lat="44.08248" lon="-0.22557">
        <ele>91</ele>
        <time>2014-07-22T15:05:41Z</time>
      </trkpt>
      <trkpt lat="44.08254" lon="-0.22549">
        <ele>91</ele>
        <time>2014-07-22T15:05:47Z</time>
      </trkpt>
      <trkpt lat="44.08257" lon="-0.22528">
        <ele>91</ele>
        <time>2014-07-22T15:05:59Z</time>
      </trkpt>
      <trkpt lat="44.08257" lon="-0.2251">
        <ele>91</ele>
        <time>2014-07-22T15:06:11Z</time>
      </trkpt>
      <trkpt lat="44.08256" lon="-0.22507">
        <ele>91</ele>
        <time>2014-07-22T15:06:13Z</time>
      </trkpt>
      <trkpt lat="44.08249" lon="-0.22489">
        <ele>90</ele>
        <time>2014-07-22T15:06:25Z</time>
      </trkpt>
      <trkpt lat="44.08249" lon="-0.22486">
        <ele>90</ele>
        <time>2014-07-22T15:06:44Z</time>
      </trkpt>
      <trkpt lat="44.08249" lon="-0.22477">
        <ele>90</ele>
        <time>2014-07-22T15:06:54Z</time>
      </trkpt>
      <trkpt lat="44.08249" lon="-0.2247">
        <ele>90</ele>
        <time>2014-07-22T15:07:07Z</time>
      </trkpt>
      <trkpt lat="44.0825" lon="-0.22446">
        <ele>90</ele>
        <time>2014-07-22T15:07:20Z</time>
      </trkpt>
      <trkpt lat="44.08249" lon="-0.22434">
        <ele>91</ele>
        <time>2014-07-22T15:07:31Z</time>
      </trkpt>
      <trkpt lat="44.08251" lon="-0.22415">
        <ele>91</ele>
        <time>2014-07-22T15:07:43Z</time>
      </trkpt>
      <trkpt lat="44.08254" lon="-0.2241">
        <ele>91</ele>
        <time>2014-07-22T15:07:52Z</time>
      </trkpt>
      <trkpt lat="44.0825" lon="-0.22389">
        <ele>90</ele>
        <time>2014-07-22T15:08:03Z</time>
      </trkpt>
      <trkpt lat="44.08249" lon="-0.22387">
        <ele>90</ele>
        <time>2014-07-22T15:08:12Z</time>
      </trkpt>
      <trkpt lat="44.08248" lon="-0.22387">
        <ele>90</ele>
        <time>2014-07-22T15:08:26Z</time>
      </trkpt>
      <trkpt lat="44.08248" lon="-0.22386">
        <ele>90</ele>
        <time>2014-07-22T15:08:40Z</time>
      </trkpt>
      <trkpt lat="44.08247" lon="-0.22387">
        <ele>90</ele>
        <time>2014-07-22T15:09:06Z</time>
      </trkpt>
      <trkpt lat="44.08247" lon="-0.22387">
        <ele>90</ele>
        <time>2014-07-22T15:09:22Z</time>
      </trkpt>
      <trkpt lat="44.08244" lon="-0.22367">
        <ele>90</ele>
        <time>2014-07-22T15:09:33Z</time>
      </trkpt>
      <trkpt lat="44.08244" lon="-0.22361">
        <ele>90</ele>
        <time>2014-07-22T15:09:37Z</time>
      </trkpt>
      <trkpt lat="44.08247" lon="-0.22344">
        <ele>90</ele>
        <time>2014-07-22T15:09:48Z</time>
      </trkpt>
      <trkpt lat="44.08251" lon="-0.22326">
        <ele>90</ele>
        <time>2014-07-22T15:09:57Z</time>
      </trkpt>
      <trkpt lat="44.08257" lon="-0.22311">
        <ele>90</ele>
        <time>2014-07-22T15:10:06Z</time>
      </trkpt>
      <trkpt lat="44.0826" lon="-0.22303">
        <ele>91</ele>
        <time>2014-07-22T15:10:13Z</time>
      </trkpt>
      <trkpt lat="44.08263" lon="-0.22291">
        <ele>91</ele>
        <time>2014-07-22T15:10:21Z</time>
      </trkpt>
      <trkpt lat="44.08269" lon="-0.22278">
        <ele>91</ele>
        <time>2014-07-22T15:10:29Z</time>
      </trkpt>
      <trkpt lat="44.08277" lon="-0.22264">
        <ele>91</ele>
        <time>2014-07-22T15:10:39Z</time>
      </trkpt>
      <trkpt lat="44.08284" lon="-0.22253">
        <ele>91</ele>
        <time>2014-07-22T15:10:48Z</time>
      </trkpt>
      <trkpt lat="44.08285" lon="-0.22245">
        <ele>91</ele>
        <time>2014-07-22T15:10:52Z</time>
      </trkpt>
      <trkpt lat="44.08287" lon="-0.22239">
        <ele>91</ele>
        <time>2014-07-22T15:10:55Z</time>
      </trkpt>
      <trkpt lat="44.08293" lon="-0.22226">
        <ele>91</ele>
        <time>2014-07-22T15:11:04Z</time>
      </trkpt>
      <trkpt lat="44.08295" lon="-0.22206">
        <ele>91</ele>
        <time>2014-07-22T15:11:15Z</time>
      </trkpt>
      <trkpt lat="44.08295" lon="-0.2219">
        <ele>91</ele>
        <time>2014-07-22T15:11:24Z</time>
      </trkpt>
      <trkpt lat="44.08294" lon="-0.2218">
        <ele>91</ele>
        <time>2014-07-22T15:11:30Z</time>
      </trkpt>
      <trkpt lat="44.08294" lon="-0.22167">
        <ele>91</ele>
        <time>2014-07-22T15:11:38Z</time>
      </trkpt>
      <trkpt lat="44.08294" lon="-0.22144">
        <ele>91</ele>
        <time>2014-07-22T15:11:51Z</time>
      </trkpt>
      <trkpt lat="44.08296" lon="-0.22132">
        <ele>91</ele>
        <time>2014-07-22T15:11:59Z</time>
      </trkpt>
      <trkpt lat="44.08296" lon="-0.22117">
        <ele>91</ele>
        <time>2014-07-22T15:12:09Z</time>
      </trkpt>
      <trkpt lat="44.08292" lon="-0.22101">
        <ele>91</ele>
        <time>2014-07-22T15:12:18Z</time>
      </trkpt>
      <trkpt lat="44.08289" lon="-0.22081">
        <ele>91</ele>
        <time>2014-07-22T15:12:29Z</time>
      </trkpt>
      <trkpt lat="44.08285" lon="-0.22061">
        <ele>91</ele>
        <time>2014-07-22T15:12:41Z</time>
      </trkpt>
      <trkpt lat="44.08283" lon="-0.22052">
        <ele>91</ele>
        <time>2014-07-22T15:12:47Z</time>
      </trkpt>
      <trkpt lat="44.08282" lon="-0.22046">
        <ele>91</ele>
        <time>2014-07-22T15:12:50Z</time>
      </trkpt>
      <trkpt lat="44.08281" lon="-0.22026">
        <ele>91</ele>
        <time>2014-07-22T15:13:02Z</time>
      </trkpt>
      <trkpt lat="44.0828" lon="-0.22021">
        <ele>91</ele>
        <time>2014-07-22T15:13:05Z</time>
      </trkpt>
      <trkpt lat="44.08281" lon="-0.2201">
        <ele>90</ele>
        <time>2014-07-22T15:13:11Z</time>
      </trkpt>
      <trkpt lat="44.08282" lon="-0.22007">
        <ele>91</ele>
        <time>2014-07-22T15:13:13Z</time>
      </trkpt>
      <trkpt lat="44.08282" lon="-0.21996">
        <ele>91</ele>
        <time>2014-07-22T15:13:19Z</time>
      </trkpt>
      <trkpt lat="44.08282" lon="-0.21981">
        <ele>91</ele>
        <time>2014-07-22T15:13:27Z</time>
      </trkpt>
      <trkpt lat="44.08283" lon="-0.2198">
        <ele>91</ele>
        <time>2014-07-22T15:13:28Z</time>
      </trkpt>
      <trkpt lat="44.08284" lon="-0.21975">
        <ele>91</ele>
        <time>2014-07-22T15:13:32Z</time>
      </trkpt>
      <trkpt lat="44.08286" lon="-0.21969">
        <ele>91</ele>
        <time>2014-07-22T15:13:36Z</time>
      </trkpt>
      <trkpt lat="44.08287" lon="-0.21962">
        <ele>91</ele>
        <time>2014-07-22T15:13:40Z</time>
      </trkpt>
      <trkpt lat="44.08287" lon="-0.21958">
        <ele>91</ele>
        <time>2014-07-22T15:13:42Z</time>
      </trkpt>
      <trkpt lat="44.08287" lon="-0.21948">
        <ele>91</ele>
        <time>2014-07-22T15:13:48Z</time>
      </trkpt>
      <trkpt lat="44.08287" lon="-0.21944">
        <ele>91</ele>
        <time>2014-07-22T15:13:51Z</time>
      </trkpt>
      <trkpt lat="44.08287" lon="-0.21929">
        <ele>91</ele>
        <time>2014-07-22T15:14:00Z</time>
      </trkpt>
      <trkpt lat="44.08287" lon="-0.2191">
        <ele>91</ele>
        <time>2014-07-22T15:14:11Z</time>
      </trkpt>
      <trkpt lat="44.08284" lon="-0.2189">
        <ele>91</ele>
        <time>2014-07-22T15:14:22Z</time>
      </trkpt>
      <trkpt lat="44.08282" lon="-0.2188">
        <ele>91</ele>
        <time>2014-07-22T15:14:29Z</time>
      </trkpt>
      <trkpt lat="44.08281" lon="-0.21874">
        <ele>91</ele>
        <time>2014-07-22T15:14:33Z</time>
      </trkpt>
      <trkpt lat="44.0828" lon="-0.21871">
        <ele>91</ele>
        <time>2014-07-22T15:14:36Z</time>
      </trkpt>
      <trkpt lat="44.08278" lon="-0.21865">
        <ele>91</ele>
        <time>2014-07-22T15:14:39Z</time>
      </trkpt>
      <trkpt lat="44.08275" lon="-0.21853">
        <ele>91</ele>
        <time>2014-07-22T15:14:45Z</time>
      </trkpt>
      <trkpt lat="44.08272" lon="-0.21846">
        <ele>91</ele>
        <time>2014-07-22T15:14:49Z</time>
      </trkpt>
      <trkpt lat="44.08265" lon="-0.21828">
        <ele>91</ele>
        <time>2014-07-22T15:15:01Z</time>
      </trkpt>
      <trkpt lat="44.08255" lon="-0.21817">
        <ele>92</ele>
        <time>2014-07-22T15:15:10Z</time>
      </trkpt>
      <trkpt lat="44.08244" lon="-0.21808">
        <ele>91</ele>
        <time>2014-07-22T15:15:21Z</time>
      </trkpt>
      <trkpt lat="44.08237" lon="-0.21802">
        <ele>91</ele>
        <time>2014-07-22T15:15:27Z</time>
      </trkpt>
      <trkpt lat="44.08227" lon="-0.21792">
        <ele>91</ele>
        <time>2014-07-22T15:15:37Z</time>
      </trkpt>
      <trkpt lat="44.08215" lon="-0.2178">
        <ele>92</ele>
        <time>2014-07-22T15:15:49Z</time>
      </trkpt>
      <trkpt lat="44.08211" lon="-0.21773">
        <ele>92</ele>
        <time>2014-07-22T15:15:54Z</time>
      </trkpt>
      <trkpt lat="44.08205" lon="-0.21755">
        <ele>92</ele>
        <time>2014-07-22T15:16:06Z</time>
      </trkpt>
      <trkpt lat="44.08205" lon="-0.21749">
        <ele>92</ele>
        <time>2014-07-22T15:16:10Z</time>
      </trkpt>
      <trkpt lat="44.08203" lon="-0.21738">
        <ele>92</ele>
        <time>2014-07-22T15:16:17Z</time>
      </trkpt>
      <trkpt lat="44.08202" lon="-0.21731">
        <ele>91</ele>
        <time>2014-07-22T15:16:21Z</time>
      </trkpt>
      <trkpt lat="44.08204" lon="-0.21715">
        <ele>91</ele>
        <time>2014-07-22T15:16:29Z</time>
      </trkpt>
      <trkpt lat="44.08199" lon="-0.21693">
        <ele>91</ele>
        <time>2014-07-22T15:16:42Z</time>
      </trkpt>
      <trkpt lat="44.08197" lon="-0.21675">
        <ele>91</ele>
        <time>2014-07-22T15:16:54Z</time>
      </trkpt>
      <trkpt lat="44.08194" lon="-0.21659">
        <ele>91</ele>
        <time>2014-07-22T15:17:02Z</time>
      </trkpt>
      <trkpt lat="44.08191" lon="-0.21653">
        <ele>91</ele>
        <time>2014-07-22T15:17:06Z</time>
      </trkpt>
      <trkpt lat="44.08186" lon="-0.21637">
        <ele>91</ele>
        <time>2014-07-22T15:17:16Z</time>
      </trkpt>
      <trkpt lat="44.08186" lon="-0.21626">
        <ele>91</ele>
        <time>2014-07-22T15:17:26Z</time>
      </trkpt>
      <trkpt lat="44.08186" lon="-0.216">
        <ele>92</ele>
        <time>2014-07-22T15:17:39Z</time>
      </trkpt>
      <trkpt lat="44.08185" lon="-0.21576">
        <ele>92</ele>
        <time>2014-07-22T15:17:51Z</time>
      </trkpt>
      <trkpt lat="44.08179" lon="-0.21555">
        <ele>92</ele>
        <time>2014-07-22T15:18:02Z</time>
      </trkpt>
      <trkpt lat="44.08177" lon="-0.21542">
        <ele>92</ele>
        <time>2014-07-22T15:18:10Z</time>
      </trkpt>
      <trkpt lat="44.08173" lon="-0.21523">
        <ele>92</ele>
        <time>2014-07-22T15:18:21Z</time>
      </trkpt>
      <trkpt lat="44.08171" lon="-0.21519">
        <ele>92</ele>
        <time>2014-07-22T15:18:23Z</time>
      </trkpt>
      <trkpt lat="44.08167" lon="-0.21496">
        <ele>91</ele>
        <time>2014-07-22T15:18:36Z</time>
      </trkpt>
      <trkpt lat="44.08168" lon="-0.21475">
        <ele>92</ele>
        <time>2014-07-22T15:18:48Z</time>
      </trkpt>
      <trkpt lat="44.08167" lon="-0.2145">
        <ele>92</ele>
        <time>2014-07-22T15:19:00Z</time>
      </trkpt>
      <trkpt lat="44.08164" lon="-0.21432">
        <ele>92</ele>
        <time>2014-07-22T15:19:13Z</time>
      </trkpt>
      <trkpt lat="44.08165" lon="-0.21416">
        <ele>93</ele>
        <time>2014-07-22T15:19:25Z</time>
      </trkpt>
      <trkpt lat="44.08165" lon="-0.21415">
        <ele>92</ele>
        <time>2014-07-22T15:19:26Z</time>
      </trkpt>
      <trkpt lat="44.08165" lon="-0.2141">
        <ele>92</ele>
        <time>2014-07-22T15:19:28Z</time>
      </trkpt>
      <trkpt lat="44.08166" lon="-0.21388">
        <ele>92</ele>
        <time>2014-07-22T15:19:38Z</time>
      </trkpt>
      <trkpt lat="44.08161" lon="-0.21369">
        <ele>92</ele>
        <time>2014-07-22T15:19:51Z</time>
      </trkpt>
      <trkpt lat="44.08159" lon="-0.21363">
        <ele>92</ele>
        <time>2014-07-22T15:20:04Z</time>
      </trkpt>
      <trkpt lat="44.08155" lon="-0.21356">
        <ele>92</ele>
        <time>2014-07-22T15:20:08Z</time>
      </trkpt>
      <trkpt lat="44.08154" lon="-0.2133">
        <ele>92</ele>
        <time>2014-07-22T15:20:20Z</time>
      </trkpt>
      <trkpt lat="44.08155" lon="-0.21314">
        <ele>92</ele>
        <time>2014-07-22T15:20:29Z</time>
      </trkpt>
      <trkpt lat="44.08152" lon="-0.21296">
        <ele>92</ele>
        <time>2014-07-22T15:20:39Z</time>
      </trkpt>
      <trkpt lat="44.08142" lon="-0.2128">
        <ele>93</ele>
        <time>2014-07-22T15:20:51Z</time>
      </trkpt>
      <trkpt lat="44.08138" lon="-0.21277">
        <ele>93</ele>
        <time>2014-07-22T15:20:53Z</time>
      </trkpt>
      <trkpt lat="44.08127" lon="-0.21266">
        <ele>93</ele>
        <time>2014-07-22T15:21:02Z</time>
      </trkpt>
      <trkpt lat="44.08126" lon="-0.21264">
        <ele>94</ele>
        <time>2014-07-22T15:21:04Z</time>
      </trkpt>
      <trkpt lat="44.08123" lon="-0.21259">
        <ele>94</ele>
        <time>2014-07-22T15:21:08Z</time>
      </trkpt>
      <trkpt lat="44.0812" lon="-0.21257">
        <ele>94</ele>
        <time>2014-07-22T15:21:10Z</time>
      </trkpt>
      <trkpt lat="44.0811" lon="-0.21247">
        <ele>94</ele>
        <time>2014-07-22T15:21:22Z</time>
      </trkpt>
      <trkpt lat="44.08106" lon="-0.21243">
        <ele>94</ele>
        <time>2014-07-22T15:21:26Z</time>
      </trkpt>
      <trkpt lat="44.08102" lon="-0.21239">
        <ele>94</ele>
        <time>2014-07-22T15:21:29Z</time>
      </trkpt>
      <trkpt lat="44.08095" lon="-0.21232">
        <ele>94</ele>
        <time>2014-07-22T15:21:35Z</time>
      </trkpt>
      <trkpt lat="44.08093" lon="-0.21229">
        <ele>94</ele>
        <time>2014-07-22T15:21:38Z</time>
      </trkpt>
      <trkpt lat="44.08084" lon="-0.21219">
        <ele>94</ele>
        <time>2014-07-22T15:21:48Z</time>
      </trkpt>
      <trkpt lat="44.08082" lon="-0.21217">
        <ele>94</ele>
        <time>2014-07-22T15:21:50Z</time>
      </trkpt>
      <trkpt lat="44.08076" lon="-0.21209">
        <ele>94</ele>
        <time>2014-07-22T15:21:56Z</time>
      </trkpt>
      <trkpt lat="44.08066" lon="-0.21193">
        <ele>95</ele>
        <time>2014-07-22T15:22:08Z</time>
      </trkpt>
      <trkpt lat="44.08057" lon="-0.21178">
        <ele>95</ele>
        <time>2014-07-22T15:22:20Z</time>
      </trkpt>
      <trkpt lat="44.08053" lon="-0.21164">
        <ele>95</ele>
        <time>2014-07-22T15:22:32Z</time>
      </trkpt>
      <trkpt lat="44.08054" lon="-0.21163">
        <ele>94</ele>
        <time>2014-07-22T15:22:55Z</time>
      </trkpt>
      <trkpt lat="44.08053" lon="-0.21162">
        <ele>94</ele>
        <time>2014-07-22T15:23:15Z</time>
      </trkpt>
      <trkpt lat="44.08053" lon="-0.21161">
        <ele>94</ele>
        <time>2014-07-22T15:23:19Z</time>
      </trkpt>
      <trkpt lat="44.08052" lon="-0.21157">
        <ele>94</ele>
        <time>2014-07-22T15:23:22Z</time>
      </trkpt>
      <trkpt lat="44.08048" lon="-0.21142">
        <ele>94</ele>
        <time>2014-07-22T15:23:31Z</time>
      </trkpt>
      <trkpt lat="44.08047" lon="-0.21138">
        <ele>94</ele>
        <time>2014-07-22T15:23:33Z</time>
      </trkpt>
      <trkpt lat="44.08044" lon="-0.21122">
        <ele>94</ele>
        <time>2014-07-22T15:23:43Z</time>
      </trkpt>
      <trkpt lat="44.08042" lon="-0.21119">
        <ele>94</ele>
        <time>2014-07-22T15:23:45Z</time>
      </trkpt>
      <trkpt lat="44.08039" lon="-0.2111">
        <ele>94</ele>
        <time>2014-07-22T15:23:50Z</time>
      </trkpt>
      <trkpt lat="44.08032" lon="-0.211">
        <ele>94</ele>
        <time>2014-07-22T15:23:59Z</time>
      </trkpt>
      <trkpt lat="44.08024" lon="-0.2109">
        <ele>95</ele>
        <time>2014-07-22T15:24:07Z</time>
      </trkpt>
      <trkpt lat="44.08021" lon="-0.21083">
        <ele>95</ele>
        <time>2014-07-22T15:24:12Z</time>
      </trkpt>
      <trkpt lat="44.08014" lon="-0.21069">
        <ele>95</ele>
        <time>2014-07-22T15:24:23Z</time>
      </trkpt>
      <trkpt lat="44.08013" lon="-0.21066">
        <ele>95</ele>
        <time>2014-07-22T15:24:25Z</time>
      </trkpt>
      <trkpt lat="44.08009" lon="-0.21056">
        <ele>95</ele>
        <time>2014-07-22T15:24:32Z</time>
      </trkpt>
      <trkpt lat="44.08003" lon="-0.21046">
        <ele>95</ele>
        <time>2014-07-22T15:24:39Z</time>
      </trkpt>
      <trkpt lat="44.07998" lon="-0.21034">
        <ele>95</ele>
        <time>2014-07-22T15:24:46Z</time>
      </trkpt>
      <trkpt lat="44.07992" lon="-0.21023">
        <ele>95</ele>
        <time>2014-07-22T15:24:55Z</time>
      </trkpt>
      <trkpt lat="44.07981" lon="-0.21009">
        <ele>95</ele>
        <time>2014-07-22T15:25:06Z</time>
      </trkpt>
      <trkpt lat="44.07979" lon="-0.21007">
        <ele>95</ele>
        <time>2014-07-22T15:25:08Z</time>
      </trkpt>
      <trkpt lat="44.07974" lon="-0.20998">
        <ele>94</ele>
        <time>2014-07-22T15:25:15Z</time>
      </trkpt>
      <trkpt lat="44.07967" lon="-0.20988">
        <ele>95</ele>
        <time>2014-07-22T15:25:22Z</time>
      </trkpt>
      <trkpt lat="44.07961" lon="-0.20977">
        <ele>94</ele>
        <time>2014-07-22T15:25:30Z</time>
      </trkpt>
      <trkpt lat="44.07953" lon="-0.20965">
        <ele>94</ele>
        <time>2014-07-22T15:25:40Z</time>
      </trkpt>
      <trkpt lat="44.0795" lon="-0.20963">
        <ele>94</ele>
        <time>2014-07-22T15:25:43Z</time>
      </trkpt>
      <trkpt lat="44.07948" lon="-0.20961">
        <ele>94</ele>
        <time>2014-07-22T15:25:45Z</time>
      </trkpt>
      <trkpt lat="44.07944" lon="-0.20958">
        <ele>94</ele>
        <time>2014-07-22T15:25:49Z</time>
      </trkpt>
      <trkpt lat="44.07941" lon="-0.20952">
        <ele>95</ele>
        <time>2014-07-22T15:25:53Z</time>
      </trkpt>
      <trkpt lat="44.07937" lon="-0.20948">
        <ele>94</ele>
        <time>2014-07-22T15:25:56Z</time>
      </trkpt>
      <trkpt lat="44.0793" lon="-0.20939">
        <ele>94</ele>
        <time>2014-07-22T15:26:03Z</time>
      </trkpt>
      <trkpt lat="44.07923" lon="-0.20925">
        <ele>95</ele>
        <time>2014-07-22T15:26:13Z</time>
      </trkpt>
      <trkpt lat="44.07917" lon="-0.20915">
        <ele>95</ele>
        <time>2014-07-22T15:26:21Z</time>
      </trkpt>
      <trkpt lat="44.07911" lon="-0.20909">
        <ele>95</ele>
        <time>2014-07-22T15:26:28Z</time>
      </trkpt>
      <trkpt lat="44.07906" lon="-0.20904">
        <ele>95</ele>
        <time>2014-07-22T15:26:32Z</time>
      </trkpt>
      <trkpt lat="44.079" lon="-0.20896">
        <ele>95</ele>
        <time>2014-07-22T15:26:41Z</time>
      </trkpt>
      <trkpt lat="44.07892" lon="-0.20886">
        <ele>95</ele>
        <time>2014-07-22T15:26:49Z</time>
      </trkpt>
      <trkpt lat="44.07878" lon="-0.20873">
        <ele>95</ele>
        <time>2014-07-22T15:27:00Z</time>
      </trkpt>
      <trkpt lat="44.07876" lon="-0.20871">
        <ele>96</ele>
        <time>2014-07-22T15:27:02Z</time>
      </trkpt>
      <trkpt lat="44.07865" lon="-0.20858">
        <ele>95</ele>
        <time>2014-07-22T15:27:12Z</time>
      </trkpt>
      <trkpt lat="44.07857" lon="-0.20846">
        <ele>95</ele>
        <time>2014-07-22T15:27:23Z</time>
      </trkpt>
      <trkpt lat="44.07848" lon="-0.20839">
        <ele>95</ele>
        <time>2014-07-22T15:27:32Z</time>
      </trkpt>
      <trkpt lat="44.0784" lon="-0.20832">
        <ele>96</ele>
        <time>2014-07-22T15:27:39Z</time>
      </trkpt>
      <trkpt lat="44.07835" lon="-0.20826">
        <ele>96</ele>
        <time>2014-07-22T15:27:44Z</time>
      </trkpt>
      <trkpt lat="44.07832" lon="-0.20822">
        <ele>96</ele>
        <time>2014-07-22T15:27:48Z</time>
      </trkpt>
      <trkpt lat="44.07827" lon="-0.20811">
        <ele>96</ele>
        <time>2014-07-22T15:27:58Z</time>
      </trkpt>
      <trkpt lat="44.07827" lon="-0.20808">
        <ele>96</ele>
        <time>2014-07-22T15:27:59Z</time>
      </trkpt>
      <trkpt lat="44.0782" lon="-0.20793">
        <ele>96</ele>
        <time>2014-07-22T15:28:06Z</time>
      </trkpt>
      <trkpt lat="44.07809" lon="-0.20779">
        <ele>97</ele>
        <time>2014-07-22T15:28:19Z</time>
      </trkpt>
      <trkpt lat="44.07799" lon="-0.20769">
        <ele>97</ele>
        <time>2014-07-22T15:28:28Z</time>
      </trkpt>
      <trkpt lat="44.07796" lon="-0.20765">
        <ele>97</ele>
        <time>2014-07-22T15:28:32Z</time>
      </trkpt>
      <trkpt lat="44.07797" lon="-0.2076">
        <ele>97</ele>
        <time>2014-07-22T15:28:35Z</time>
      </trkpt>
      <trkpt lat="44.07797" lon="-0.20754">
        <ele>97</ele>
        <time>2014-07-22T15:28:38Z</time>
      </trkpt>
      <trkpt lat="44.0779" lon="-0.20732">
        <ele>97</ele>
        <time>2014-07-22T15:28:49Z</time>
      </trkpt>
      <trkpt lat="44.07788" lon="-0.20729">
        <ele>98</ele>
        <time>2014-07-22T15:28:51Z</time>
      </trkpt>
      <trkpt lat="44.07785" lon="-0.20717">
        <ele>98</ele>
        <time>2014-07-22T15:28:57Z</time>
      </trkpt>
      <trkpt lat="44.07781" lon="-0.20708">
        <ele>97</ele>
        <time>2014-07-22T15:29:03Z</time>
      </trkpt>
      <trkpt lat="44.07778" lon="-0.207">
        <ele>98</ele>
        <time>2014-07-22T15:29:08Z</time>
      </trkpt>
      <trkpt lat="44.07772" lon="-0.20686">
        <ele>98</ele>
        <time>2014-07-22T15:29:17Z</time>
      </trkpt>
      <trkpt lat="44.07766" lon="-0.20672">
        <ele>97</ele>
        <time>2014-07-22T15:29:27Z</time>
      </trkpt>
      <trkpt lat="44.07761" lon="-0.20661">
        <ele>98</ele>
        <time>2014-07-22T15:29:34Z</time>
      </trkpt>
      <trkpt lat="44.07759" lon="-0.20656">
        <ele>98</ele>
        <time>2014-07-22T15:29:37Z</time>
      </trkpt>
      <trkpt lat="44.07755" lon="-0.2065">
        <ele>98</ele>
        <time>2014-07-22T15:29:42Z</time>
      </trkpt>
      <trkpt lat="44.07751" lon="-0.20636">
        <ele>98</ele>
        <time>2014-07-22T15:29:51Z</time>
      </trkpt>
      <trkpt lat="44.07748" lon="-0.20622">
        <ele>98</ele>
        <time>2014-07-22T15:30:01Z</time>
      </trkpt>
      <trkpt lat="44.07748" lon="-0.20621">
        <ele>98</ele>
        <time>2014-07-22T15:30:02Z</time>
      </trkpt>
      <trkpt lat="44.07743" lon="-0.20607">
        <ele>98</ele>
        <time>2014-07-22T15:30:12Z</time>
      </trkpt>
      <trkpt lat="44.07743" lon="-0.20605">
        <ele>98</ele>
        <time>2014-07-22T15:30:13Z</time>
      </trkpt>
      <trkpt lat="44.07743" lon="-0.20601">
        <ele>98</ele>
        <time>2014-07-22T15:30:15Z</time>
      </trkpt>
      <trkpt lat="44.07737" lon="-0.20589">
        <ele>98</ele>
        <time>2014-07-22T15:30:25Z</time>
      </trkpt>
      <trkpt lat="44.07733" lon="-0.20581">
        <ele>98</ele>
        <time>2014-07-22T15:30:31Z</time>
      </trkpt>
      <trkpt lat="44.07731" lon="-0.20571">
        <ele>98</ele>
        <time>2014-07-22T15:30:36Z</time>
      </trkpt>
      <trkpt lat="44.07726" lon="-0.20559">
        <ele>98</ele>
        <time>2014-07-22T15:30:42Z</time>
      </trkpt>
      <trkpt lat="44.07719" lon="-0.20544">
        <ele>98</ele>
        <time>2014-07-22T15:30:54Z</time>
      </trkpt>
      <trkpt lat="44.07716" lon="-0.20531">
        <ele>98</ele>
        <time>2014-07-22T15:31:05Z</time>
      </trkpt>
      <trkpt lat="44.07708" lon="-0.20522">
        <ele>98</ele>
        <time>2014-07-22T15:31:16Z</time>
      </trkpt>
      <trkpt lat="44.07703" lon="-0.20518">
        <ele>98</ele>
        <time>2014-07-22T15:31:22Z</time>
      </trkpt>
      <trkpt lat="44.07698" lon="-0.2051">
        <ele>98</ele>
        <time>2014-07-22T15:31:25Z</time>
      </trkpt>
      <trkpt lat="44.0769" lon="-0.2049">
        <ele>98</ele>
        <time>2014-07-22T15:31:37Z</time>
      </trkpt>
      <trkpt lat="44.07686" lon="-0.20474">
        <ele>98</ele>
        <time>2014-07-22T15:31:48Z</time>
      </trkpt>
      <trkpt lat="44.07675" lon="-0.20456">
        <ele>98</ele>
        <time>2014-07-22T15:32:01Z</time>
      </trkpt>
      <trkpt lat="44.07663" lon="-0.20439">
        <ele>98</ele>
        <time>2014-07-22T15:32:13Z</time>
      </trkpt>
      <trkpt lat="44.07656" lon="-0.2042">
        <ele>98</ele>
        <time>2014-07-22T15:32:25Z</time>
      </trkpt>
      <trkpt lat="44.07654" lon="-0.20415">
        <ele>98</ele>
        <time>2014-07-22T15:32:28Z</time>
      </trkpt>
      <trkpt lat="44.0765" lon="-0.2041">
        <ele>99</ele>
        <time>2014-07-22T15:32:32Z</time>
      </trkpt>
      <trkpt lat="44.07641" lon="-0.20395">
        <ele>99</ele>
        <time>2014-07-22T15:32:42Z</time>
      </trkpt>
      <trkpt lat="44.07639" lon="-0.20392">
        <ele>98</ele>
        <time>2014-07-22T15:32:44Z</time>
      </trkpt>
      <trkpt lat="44.07634" lon="-0.20386">
        <ele>99</ele>
        <time>2014-07-22T15:32:49Z</time>
      </trkpt>
      <trkpt lat="44.07631" lon="-0.20379">
        <ele>99</ele>
        <time>2014-07-22T15:32:56Z</time>
      </trkpt>
      <trkpt lat="44.07623" lon="-0.20367">
        <ele>99</ele>
        <time>2014-07-22T15:33:06Z</time>
      </trkpt>
      <trkpt lat="44.07623" lon="-0.20366">
        <ele>99</ele>
        <time>2014-07-22T15:33:07Z</time>
      </trkpt>
      <trkpt lat="44.07618" lon="-0.2035">
        <ele>99</ele>
        <time>2014-07-22T15:33:18Z</time>
      </trkpt>
      <trkpt lat="44.07608" lon="-0.20338">
        <ele>99</ele>
        <time>2014-07-22T15:33:29Z</time>
      </trkpt>
      <trkpt lat="44.07605" lon="-0.20331">
        <ele>99</ele>
        <time>2014-07-22T15:33:34Z</time>
      </trkpt>
      <trkpt lat="44.07602" lon="-0.20324">
        <ele>99</ele>
        <time>2014-07-22T15:33:39Z</time>
      </trkpt>
      <trkpt lat="44.07588" lon="-0.20303">
        <ele>99</ele>
        <time>2014-07-22T15:33:53Z</time>
      </trkpt>
      <trkpt lat="44.07579" lon="-0.20298">
        <ele>99</ele>
        <time>2014-07-22T15:33:59Z</time>
      </trkpt>
      <trkpt lat="44.07571" lon="-0.20289">
        <ele>99</ele>
        <time>2014-07-22T15:34:07Z</time>
      </trkpt>
      <trkpt lat="44.07567" lon="-0.20284">
        <ele>99</ele>
        <time>2014-07-22T15:34:11Z</time>
      </trkpt>
      <trkpt lat="44.07562" lon="-0.20278">
        <ele>99</ele>
        <time>2014-07-22T15:34:18Z</time>
      </trkpt>
      <trkpt lat="44.07559" lon="-0.20275">
        <ele>99</ele>
        <time>2014-07-22T15:34:20Z</time>
      </trkpt>
      <trkpt lat="44.07549" lon="-0.20261">
        <ele>99</ele>
        <time>2014-07-22T15:34:31Z</time>
      </trkpt>
      <trkpt lat="44.07541" lon="-0.20247">
        <ele>100</ele>
        <time>2014-07-22T15:34:41Z</time>
      </trkpt>
      <trkpt lat="44.0754" lon="-0.20246">
        <ele>100</ele>
        <time>2014-07-22T15:34:42Z</time>
      </trkpt>
      <trkpt lat="44.07535" lon="-0.20239">
        <ele>100</ele>
        <time>2014-07-22T15:34:54Z</time>
      </trkpt>
      <trkpt lat="44.07531" lon="-0.20235">
        <ele>100</ele>
        <time>2014-07-22T15:35:07Z</time>
      </trkpt>
      <trkpt lat="44.07526" lon="-0.20226">
        <ele>100</ele>
        <time>2014-07-22T15:35:16Z</time>
      </trkpt>
      <trkpt lat="44.07521" lon="-0.20215">
        <ele>100</ele>
        <time>2014-07-22T15:35:28Z</time>
      </trkpt>
      <trkpt lat="44.07516" lon="-0.20209">
        <ele>100</ele>
        <time>2014-07-22T15:35:37Z</time>
      </trkpt>
      <trkpt lat="44.0751" lon="-0.20199">
        <ele>100</ele>
        <time>2014-07-22T15:35:44Z</time>
      </trkpt>
      <trkpt lat="44.07505" lon="-0.20188">
        <ele>101</ele>
        <time>2014-07-22T15:35:50Z</time>
      </trkpt>
      <trkpt lat="44.07499" lon="-0.20179">
        <ele>100</ele>
        <time>2014-07-22T15:35:56Z</time>
      </trkpt>
      <trkpt lat="44.07494" lon="-0.20165">
        <ele>101</ele>
        <time>2014-07-22T15:36:05Z</time>
      </trkpt>
      <trkpt lat="44.07489" lon="-0.20156">
        <ele>101</ele>
        <time>2014-07-22T15:36:13Z</time>
      </trkpt>
      <trkpt lat="44.07486" lon="-0.20144">
        <ele>101</ele>
        <time>2014-07-22T15:36:24Z</time>
      </trkpt>
      <trkpt lat="44.0748" lon="-0.20133">
        <ele>101</ele>
        <time>2014-07-22T15:36:32Z</time>
      </trkpt>
      <trkpt lat="44.07479" lon="-0.20131">
        <ele>101</ele>
        <time>2014-07-22T15:36:33Z</time>
      </trkpt>
      <trkpt lat="44.0747" lon="-0.20121">
        <ele>101</ele>
        <time>2014-07-22T15:36:43Z</time>
      </trkpt>
      <trkpt lat="44.07463" lon="-0.20114">
        <ele>101</ele>
        <time>2014-07-22T15:36:51Z</time>
      </trkpt>
      <trkpt lat="44.07456" lon="-0.20104">
        <ele>101</ele>
        <time>2014-07-22T15:37:01Z</time>
      </trkpt>
      <trkpt lat="44.07454" lon="-0.20102">
        <ele>102</ele>
        <time>2014-07-22T15:37:03Z</time>
      </trkpt>
      <trkpt lat="44.07449" lon="-0.20092">
        <ele>101</ele>
        <time>2014-07-22T15:37:10Z</time>
      </trkpt>
      <trkpt lat="44.07446" lon="-0.20088">
        <ele>101</ele>
        <time>2014-07-22T15:37:13Z</time>
      </trkpt>
      <trkpt lat="44.07437" lon="-0.20075">
        <ele>101</ele>
        <time>2014-07-22T15:37:23Z</time>
      </trkpt>
      <trkpt lat="44.07436" lon="-0.20073">
        <ele>101</ele>
        <time>2014-07-22T15:37:24Z</time>
      </trkpt>
      <trkpt lat="44.0743" lon="-0.20065">
        <ele>101</ele>
        <time>2014-07-22T15:37:34Z</time>
      </trkpt>
      <trkpt lat="44.07423" lon="-0.20056">
        <ele>101</ele>
        <time>2014-07-22T15:37:43Z</time>
      </trkpt>
      <trkpt lat="44.07416" lon="-0.20048">
        <ele>101</ele>
        <time>2014-07-22T15:37:53Z</time>
      </trkpt>
      <trkpt lat="44.07409" lon="-0.2004">
        <ele>101</ele>
        <time>2014-07-22T15:38:01Z</time>
      </trkpt>
      <trkpt lat="44.07404" lon="-0.20037">
        <ele>101</ele>
        <time>2014-07-22T15:38:09Z</time>
      </trkpt>
      <trkpt lat="44.07395" lon="-0.20029">
        <ele>102</ele>
        <time>2014-07-22T15:38:19Z</time>
      </trkpt>
      <trkpt lat="44.0739" lon="-0.20026">
        <ele>102</ele>
        <time>2014-07-22T15:38:25Z</time>
      </trkpt>
      <trkpt lat="44.07382" lon="-0.20019">
        <ele>102</ele>
        <time>2014-07-22T15:38:33Z</time>
      </trkpt>
      <trkpt lat="44.07378" lon="-0.20018">
        <ele>102</ele>
        <time>2014-07-22T15:38:36Z</time>
      </trkpt>
      <trkpt lat="44.07375" lon="-0.20016">
        <ele>103</ele>
        <time>2014-07-22T15:38:39Z</time>
      </trkpt>
      <trkpt lat="44.07367" lon="-0.2001">
        <ele>102</ele>
        <time>2014-07-22T15:38:47Z</time>
      </trkpt>
      <trkpt lat="44.07361" lon="-0.20007">
        <ele>102</ele>
        <time>2014-07-22T15:38:53Z</time>
      </trkpt>
      <trkpt lat="44.07357" lon="-0.20002">
        <ele>102</ele>
        <time>2014-07-22T15:38:57Z</time>
      </trkpt>
      <trkpt lat="44.07351" lon="-0.1999">
        <ele>102</ele>
        <time>2014-07-22T15:39:08Z</time>
      </trkpt>
      <trkpt lat="44.07346" lon="-0.19978">
        <ele>102</ele>
        <time>2014-07-22T15:39:18Z</time>
      </trkpt>
      <trkpt lat="44.0734" lon="-0.19969">
        <ele>102</ele>
        <time>2014-07-22T15:39:28Z</time>
      </trkpt>
      <trkpt lat="44.07333" lon="-0.19957">
        <ele>102</ele>
        <time>2014-07-22T15:39:40Z</time>
      </trkpt>
      <trkpt lat="44.07327" lon="-0.19944">
        <ele>103</ele>
        <time>2014-07-22T15:39:49Z</time>
      </trkpt>
      <trkpt lat="44.07325" lon="-0.1994">
        <ele>103</ele>
        <time>2014-07-22T15:39:52Z</time>
      </trkpt>
      <trkpt lat="44.07319" lon="-0.19925">
        <ele>103</ele>
        <time>2014-07-22T15:40:02Z</time>
      </trkpt>
      <trkpt lat="44.07313" lon="-0.19916">
        <ele>103</ele>
        <time>2014-07-22T15:40:12Z</time>
      </trkpt>
      <trkpt lat="44.07307" lon="-0.19905">
        <ele>103</ele>
        <time>2014-07-22T15:40:21Z</time>
      </trkpt>
      <trkpt lat="44.073" lon="-0.19895">
        <ele>103</ele>
        <time>2014-07-22T15:40:30Z</time>
      </trkpt>
      <trkpt lat="44.07294" lon="-0.19883">
        <ele>103</ele>
        <time>2014-07-22T15:40:40Z</time>
      </trkpt>
      <trkpt lat="44.07285" lon="-0.19875">
        <ele>103</ele>
        <time>2014-07-22T15:40:48Z</time>
      </trkpt>
      <trkpt lat="44.0728" lon="-0.19867">
        <ele>103</ele>
        <time>2014-07-22T15:40:56Z</time>
      </trkpt>
      <trkpt lat="44.07274" lon="-0.19858">
        <ele>103</ele>
        <time>2014-07-22T15:41:05Z</time>
      </trkpt>
      <trkpt lat="44.07266" lon="-0.19846">
        <ele>103</ele>
        <time>2014-07-22T15:41:16Z</time>
      </trkpt>
      <trkpt lat="44.07258" lon="-0.19835">
        <ele>103</ele>
        <time>2014-07-22T15:41:25Z</time>
      </trkpt>
      <trkpt lat="44.07253" lon="-0.19821">
        <ele>103</ele>
        <time>2014-07-22T15:41:33Z</time>
      </trkpt>
      <trkpt lat="44.07245" lon="-0.19806">
        <ele>103</ele>
        <time>2014-07-22T15:41:44Z</time>
      </trkpt>
      <trkpt lat="44.07238" lon="-0.19794">
        <ele>103</ele>
        <time>2014-07-22T15:41:53Z</time>
      </trkpt>
      <trkpt lat="44.07232" lon="-0.19787">
        <ele>103</ele>
        <time>2014-07-22T15:42:00Z</time>
      </trkpt>
      <trkpt lat="44.0723" lon="-0.19785">
        <ele>103</ele>
        <time>2014-07-22T15:42:02Z</time>
      </trkpt>
      <trkpt lat="44.07219" lon="-0.19775">
        <ele>103</ele>
        <time>2014-07-22T15:42:13Z</time>
      </trkpt>
      <trkpt lat="44.07217" lon="-0.19769">
        <ele>103</ele>
        <time>2014-07-22T15:42:17Z</time>
      </trkpt>
      <trkpt lat="44.07213" lon="-0.19762">
        <ele>103</ele>
        <time>2014-07-22T15:42:22Z</time>
      </trkpt>
      <trkpt lat="44.07208" lon="-0.19758">
        <ele>103</ele>
        <time>2014-07-22T15:42:27Z</time>
      </trkpt>
      <trkpt lat="44.07199" lon="-0.1975">
        <ele>103</ele>
        <time>2014-07-22T15:42:36Z</time>
      </trkpt>
      <trkpt lat="44.07196" lon="-0.19745">
        <ele>103</ele>
        <time>2014-07-22T15:42:40Z</time>
      </trkpt>
      <trkpt lat="44.0719" lon="-0.19736">
        <ele>103</ele>
        <time>2014-07-22T15:42:46Z</time>
      </trkpt>
      <trkpt lat="44.07181" lon="-0.19726">
        <ele>102</ele>
        <time>2014-07-22T15:42:55Z</time>
      </trkpt>
      <trkpt lat="44.0718" lon="-0.19724">
        <ele>102</ele>
        <time>2014-07-22T15:42:57Z</time>
      </trkpt>
      <trkpt lat="44.07177" lon="-0.19722">
        <ele>102</ele>
        <time>2014-07-22T15:42:59Z</time>
      </trkpt>
      <trkpt lat="44.07167" lon="-0.19714">
        <ele>102</ele>
        <time>2014-07-22T15:43:09Z</time>
      </trkpt>
      <trkpt lat="44.07163" lon="-0.19708">
        <ele>102</ele>
        <time>2014-07-22T15:43:14Z</time>
      </trkpt>
      <trkpt lat="44.07153" lon="-0.19694">
        <ele>102</ele>
        <time>2014-07-22T15:43:25Z</time>
      </trkpt>
      <trkpt lat="44.07142" lon="-0.19685">
        <ele>102</ele>
        <time>2014-07-22T15:43:35Z</time>
      </trkpt>
      <trkpt lat="44.07135" lon="-0.19677">
        <ele>103</ele>
        <time>2014-07-22T15:43:43Z</time>
      </trkpt>
      <trkpt lat="44.07133" lon="-0.19674">
        <ele>103</ele>
        <time>2014-07-22T15:43:45Z</time>
      </trkpt>
      <trkpt lat="44.07128" lon="-0.19667">
        <ele>103</ele>
        <time>2014-07-22T15:43:50Z</time>
      </trkpt>
      <trkpt lat="44.07123" lon="-0.19657">
        <ele>103</ele>
        <time>2014-07-22T15:43:56Z</time>
      </trkpt>
      <trkpt lat="44.07119" lon="-0.19651">
        <ele>103</ele>
        <time>2014-07-22T15:44:00Z</time>
      </trkpt>
      <trkpt lat="44.07113" lon="-0.19645">
        <ele>103</ele>
        <time>2014-07-22T15:44:06Z</time>
      </trkpt>
      <trkpt lat="44.07107" lon="-0.19638">
        <ele>102</ele>
        <time>2014-07-22T15:44:12Z</time>
      </trkpt>
      <trkpt lat="44.07097" lon="-0.19632">
        <ele>102</ele>
        <time>2014-07-22T15:44:20Z</time>
      </trkpt>
      <trkpt lat="44.07096" lon="-0.19629">
        <ele>102</ele>
        <time>2014-07-22T15:44:22Z</time>
      </trkpt>
      <trkpt lat="44.07092" lon="-0.19623">
        <ele>102</ele>
        <time>2014-07-22T15:44:27Z</time>
      </trkpt>
      <trkpt lat="44.07088" lon="-0.19615">
        <ele>102</ele>
        <time>2014-07-22T15:44:31Z</time>
      </trkpt>
      <trkpt lat="44.07085" lon="-0.19609">
        <ele>102</ele>
        <time>2014-07-22T15:44:35Z</time>
      </trkpt>
      <trkpt lat="44.07077" lon="-0.19602">
        <ele>102</ele>
        <time>2014-07-22T15:44:44Z</time>
      </trkpt>
      <trkpt lat="44.07074" lon="-0.19598">
        <ele>102</ele>
        <time>2014-07-22T15:44:48Z</time>
      </trkpt>
      <trkpt lat="44.07065" lon="-0.19584">
        <ele>103</ele>
        <time>2014-07-22T15:44:59Z</time>
      </trkpt>
      <trkpt lat="44.07057" lon="-0.19572">
        <ele>103</ele>
        <time>2014-07-22T15:45:09Z</time>
      </trkpt>
      <trkpt lat="44.07051" lon="-0.19561">
        <ele>103</ele>
        <time>2014-07-22T15:45:18Z</time>
      </trkpt>
      <trkpt lat="44.07043" lon="-0.19551">
        <ele>103</ele>
        <time>2014-07-22T15:45:29Z</time>
      </trkpt>
      <trkpt lat="44.07044" lon="-0.19548">
        <ele>103</ele>
        <time>2014-07-22T15:45:41Z</time>
      </trkpt>
      <trkpt lat="44.07045" lon="-0.19547">
        <ele>103</ele>
        <time>2014-07-22T15:45:58Z</time>
      </trkpt>
      <trkpt lat="44.07046" lon="-0.19548">
        <ele>103</ele>
        <time>2014-07-22T15:46:10Z</time>
      </trkpt>
      <trkpt lat="44.0704" lon="-0.19544">
        <ele>103</ele>
        <time>2014-07-22T15:46:19Z</time>
      </trkpt>
      <trkpt lat="44.07033" lon="-0.19535">
        <ele>103</ele>
        <time>2014-07-22T15:46:28Z</time>
      </trkpt>
      <trkpt lat="44.07024" lon="-0.19522">
        <ele>103</ele>
        <time>2014-07-22T15:46:38Z</time>
      </trkpt>
      <trkpt lat="44.07013" lon="-0.19508">
        <ele>103</ele>
        <time>2014-07-22T15:46:49Z</time>
      </trkpt>
      <trkpt lat="44.07003" lon="-0.19499">
        <ele>103</ele>
        <time>2014-07-22T15:46:59Z</time>
      </trkpt>
      <trkpt lat="44.06996" lon="-0.19489">
        <ele>103</ele>
        <time>2014-07-22T15:47:09Z</time>
      </trkpt>
      <trkpt lat="44.06987" lon="-0.19478">
        <ele>103</ele>
        <time>2014-07-22T15:47:19Z</time>
      </trkpt>
      <trkpt lat="44.06978" lon="-0.19464">
        <ele>103</ele>
        <time>2014-07-22T15:47:30Z</time>
      </trkpt>
      <trkpt lat="44.0697" lon="-0.19454">
        <ele>103</ele>
        <time>2014-07-22T15:47:40Z</time>
      </trkpt>
      <trkpt lat="44.06962" lon="-0.19444">
        <ele>103</ele>
        <time>2014-07-22T15:47:49Z</time>
      </trkpt>
      <trkpt lat="44.06961" lon="-0.19441">
        <ele>103</ele>
        <time>2014-07-22T15:47:51Z</time>
      </trkpt>
      <trkpt lat="44.06954" lon="-0.19434">
        <ele>103</ele>
        <time>2014-07-22T15:47:58Z</time>
      </trkpt>
      <trkpt lat="44.06943" lon="-0.19424">
        <ele>104</ele>
        <time>2014-07-22T15:48:10Z</time>
      </trkpt>
      <trkpt lat="44.06935" lon="-0.19418">
        <ele>104</ele>
        <time>2014-07-22T15:48:17Z</time>
      </trkpt>
      <trkpt lat="44.06927" lon="-0.19408">
        <ele>104</ele>
        <time>2014-07-22T15:48:25Z</time>
      </trkpt>
      <trkpt lat="44.06919" lon="-0.194">
        <ele>104</ele>
        <time>2014-07-22T15:48:33Z</time>
      </trkpt>
      <trkpt lat="44.06909" lon="-0.19392">
        <ele>104</ele>
        <time>2014-07-22T15:48:42Z</time>
      </trkpt>
      <trkpt lat="44.06899" lon="-0.19383">
        <ele>104</ele>
        <time>2014-07-22T15:48:53Z</time>
      </trkpt>
      <trkpt lat="44.06896" lon="-0.1938">
        <ele>104</ele>
        <time>2014-07-22T15:48:56Z</time>
      </trkpt>
      <trkpt lat="44.06888" lon="-0.19372">
        <ele>105</ele>
        <time>2014-07-22T15:49:04Z</time>
      </trkpt>
      <trkpt lat="44.06877" lon="-0.19364">
        <ele>104</ele>
        <time>2014-07-22T15:49:14Z</time>
      </trkpt>
      <trkpt lat="44.0687" lon="-0.1936">
        <ele>104</ele>
        <time>2014-07-22T15:49:21Z</time>
      </trkpt>
      <trkpt lat="44.06868" lon="-0.19359">
        <ele>104</ele>
        <time>2014-07-22T15:49:23Z</time>
      </trkpt>
      <trkpt lat="44.06864" lon="-0.19357">
        <ele>104</ele>
        <time>2014-07-22T15:49:27Z</time>
      </trkpt>
      <trkpt lat="44.06861" lon="-0.19354">
        <ele>104</ele>
        <time>2014-07-22T15:49:30Z</time>
      </trkpt>
      <trkpt lat="44.06858" lon="-0.19351">
        <ele>104</ele>
        <time>2014-07-22T15:49:33Z</time>
      </trkpt>
      <trkpt lat="44.06854" lon="-0.19348">
        <ele>104</ele>
        <time>2014-07-22T15:49:37Z</time>
      </trkpt>
      <trkpt lat="44.06847" lon="-0.19341">
        <ele>104</ele>
        <time>2014-07-22T15:49:44Z</time>
      </trkpt>
      <trkpt lat="44.06842" lon="-0.19337">
        <ele>104</ele>
        <time>2014-07-22T15:49:48Z</time>
      </trkpt>
      <trkpt lat="44.06835" lon="-0.19331">
        <ele>104</ele>
        <time>2014-07-22T15:49:55Z</time>
      </trkpt>
      <trkpt lat="44.06822" lon="-0.19325">
        <ele>104</ele>
        <time>2014-07-22T15:50:05Z</time>
      </trkpt>
      <trkpt lat="44.06821" lon="-0.19323">
        <ele>104</ele>
        <time>2014-07-22T15:50:07Z</time>
      </trkpt>
      <trkpt lat="44.06813" lon="-0.19305">
        <ele>104</ele>
        <time>2014-07-22T15:50:17Z</time>
      </trkpt>
      <trkpt lat="44.0681" lon="-0.19299">
        <ele>104</ele>
        <time>2014-07-22T15:50:21Z</time>
      </trkpt>
      <trkpt lat="44.0681" lon="-0.19292">
        <ele>104</ele>
        <time>2014-07-22T15:50:24Z</time>
      </trkpt>
      <trkpt lat="44.06809" lon="-0.19288">
        <ele>104</ele>
        <time>2014-07-22T15:50:27Z</time>
      </trkpt>
      <trkpt lat="44.06808" lon="-0.1928">
        <ele>104</ele>
        <time>2014-07-22T15:50:31Z</time>
      </trkpt>
      <trkpt lat="44.06803" lon="-0.19266">
        <ele>104</ele>
        <time>2014-07-22T15:50:41Z</time>
      </trkpt>
      <trkpt lat="44.06803" lon="-0.19265">
        <ele>104</ele>
        <time>2014-07-22T15:50:42Z</time>
      </trkpt>
      <trkpt lat="44.068" lon="-0.19249">
        <ele>105</ele>
        <time>2014-07-22T15:50:53Z</time>
      </trkpt>
      <trkpt lat="44.06798" lon="-0.19237">
        <ele>105</ele>
        <time>2014-07-22T15:51:03Z</time>
      </trkpt>
      <trkpt lat="44.06796" lon="-0.19234">
        <ele>105</ele>
        <time>2014-07-22T15:51:11Z</time>
      </trkpt>
      <trkpt lat="44.06797" lon="-0.19237">
        <ele>105</ele>
        <time>2014-07-22T15:51:26Z</time>
      </trkpt>
      <trkpt lat="44.06795" lon="-0.19236">
        <ele>105</ele>
        <time>2014-07-22T15:51:37Z</time>
      </trkpt>
      <trkpt lat="44.06793" lon="-0.19237">
        <ele>105</ele>
        <time>2014-07-22T15:51:46Z</time>
      </trkpt>
      <trkpt lat="44.06793" lon="-0.19236">
        <ele>105</ele>
        <time>2014-07-22T15:51:48Z</time>
      </trkpt>
      <trkpt lat="44.06794" lon="-0.19232">
        <ele>105</ele>
        <time>2014-07-22T15:51:50Z</time>
      </trkpt>
      <trkpt lat="44.06793" lon="-0.19226">
        <ele>105</ele>
        <time>2014-07-22T15:51:55Z</time>
      </trkpt>
      <trkpt lat="44.06792" lon="-0.19215">
        <ele>105</ele>
        <time>2014-07-22T15:52:02Z</time>
      </trkpt>
      <trkpt lat="44.06789" lon="-0.19207">
        <ele>105</ele>
        <time>2014-07-22T15:52:08Z</time>
      </trkpt>
      <trkpt lat="44.06786" lon="-0.19198">
        <ele>105</ele>
        <time>2014-07-22T15:52:14Z</time>
      </trkpt>
      <trkpt lat="44.06783" lon="-0.1919">
        <ele>105</ele>
        <time>2014-07-22T15:52:20Z</time>
      </trkpt>
      <trkpt lat="44.06782" lon="-0.1918">
        <ele>105</ele>
        <time>2014-07-22T15:52:25Z</time>
      </trkpt>
      <trkpt lat="44.06778" lon="-0.19171">
        <ele>105</ele>
        <time>2014-07-22T15:52:33Z</time>
      </trkpt>
      <trkpt lat="44.06775" lon="-0.19156">
        <ele>105</ele>
        <time>2014-07-22T15:52:42Z</time>
      </trkpt>
      <trkpt lat="44.06775" lon="-0.19152">
        <ele>105</ele>
        <time>2014-07-22T15:52:44Z</time>
      </trkpt>
      <trkpt lat="44.06773" lon="-0.19143">
        <ele>105</ele>
        <time>2014-07-22T15:52:49Z</time>
      </trkpt>
      <trkpt lat="44.06771" lon="-0.19139">
        <ele>105</ele>
        <time>2014-07-22T15:52:52Z</time>
      </trkpt>
      <trkpt lat="44.06769" lon="-0.19128">
        <ele>105</ele>
        <time>2014-07-22T15:52:59Z</time>
      </trkpt>
      <trkpt lat="44.06767" lon="-0.19123">
        <ele>105</ele>
        <time>2014-07-22T15:53:03Z</time>
      </trkpt>
      <trkpt lat="44.06767" lon="-0.19118">
        <ele>105</ele>
        <time>2014-07-22T15:53:06Z</time>
      </trkpt>
      <trkpt lat="44.06767" lon="-0.19102">
        <ele>105</ele>
        <time>2014-07-22T15:53:15Z</time>
      </trkpt>
      <trkpt lat="44.06766" lon="-0.19099">
        <ele>105</ele>
        <time>2014-07-22T15:53:17Z</time>
      </trkpt>
      <trkpt lat="44.06765" lon="-0.19085">
        <ele>105</ele>
        <time>2014-07-22T15:53:27Z</time>
      </trkpt>
      <trkpt lat="44.06763" lon="-0.1908">
        <ele>105</ele>
        <time>2014-07-22T15:53:30Z</time>
      </trkpt>
      <trkpt lat="44.06757" lon="-0.19072">
        <ele>105</ele>
        <time>2014-07-22T15:53:39Z</time>
      </trkpt>
      <trkpt lat="44.06754" lon="-0.19068">
        <ele>105</ele>
        <time>2014-07-22T15:53:44Z</time>
      </trkpt>
      <trkpt lat="44.06752" lon="-0.19061">
        <ele>105</ele>
        <time>2014-07-22T15:53:47Z</time>
      </trkpt>
      <trkpt lat="44.06745" lon="-0.1905">
        <ele>105</ele>
        <time>2014-07-22T15:53:57Z</time>
      </trkpt>
      <trkpt lat="44.06741" lon="-0.19041">
        <ele>105</ele>
        <time>2014-07-22T15:54:05Z</time>
      </trkpt>
      <trkpt lat="44.0674" lon="-0.19037">
        <ele>105</ele>
        <time>2014-07-22T15:54:08Z</time>
      </trkpt>
      <trkpt lat="44.06735" lon="-0.19027">
        <ele>105</ele>
        <time>2014-07-22T15:54:18Z</time>
      </trkpt>
      <trkpt lat="44.06735" lon="-0.19026">
        <ele>105</ele>
        <time>2014-07-22T15:54:19Z</time>
      </trkpt>
      <trkpt lat="44.0673" lon="-0.19015">
        <ele>105</ele>
        <time>2014-07-22T15:54:27Z</time>
      </trkpt>
      <trkpt lat="44.06728" lon="-0.1901">
        <ele>105</ele>
        <time>2014-07-22T15:54:30Z</time>
      </trkpt>
      <trkpt lat="44.06727" lon="-0.19007">
        <ele>105</ele>
        <time>2014-07-22T15:54:32Z</time>
      </trkpt>
      <trkpt lat="44.06725" lon="-0.19005">
        <ele>106</ele>
        <time>2014-07-22T15:54:34Z</time>
      </trkpt>
      <trkpt lat="44.06722" lon="-0.18999">
        <ele>106</ele>
        <time>2014-07-22T15:54:40Z</time>
      </trkpt>
      <trkpt lat="44.06722" lon="-0.18984">
        <ele>106</ele>
        <time>2014-07-22T15:54:49Z</time>
      </trkpt>
      <trkpt lat="44.06722" lon="-0.18984">
        <ele>106</ele>
        <time>2014-07-22T15:54:50Z</time>
      </trkpt>
      <trkpt lat="44.06718" lon="-0.18964">
        <ele>106</ele>
        <time>2014-07-22T15:55:00Z</time>
      </trkpt>
      <trkpt lat="44.06718" lon="-0.18961">
        <ele>106</ele>
        <time>2014-07-22T15:55:02Z</time>
      </trkpt>
      <trkpt lat="44.06718" lon="-0.18947">
        <ele>105</ele>
        <time>2014-07-22T15:55:11Z</time>
      </trkpt>
      <trkpt lat="44.06717" lon="-0.18939">
        <ele>106</ele>
        <time>2014-07-22T15:55:16Z</time>
      </trkpt>
      <trkpt lat="44.06713" lon="-0.18924">
        <ele>106</ele>
        <time>2014-07-22T15:55:26Z</time>
      </trkpt>
      <trkpt lat="44.06712" lon="-0.18921">
        <ele>106</ele>
        <time>2014-07-22T15:55:28Z</time>
      </trkpt>
      <trkpt lat="44.06711" lon="-0.18906">
        <ele>106</ele>
        <time>2014-07-22T15:55:38Z</time>
      </trkpt>
      <trkpt lat="44.06704" lon="-0.18893">
        <ele>106</ele>
        <time>2014-07-22T15:55:47Z</time>
      </trkpt>
      <trkpt lat="44.06701" lon="-0.18882">
        <ele>106</ele>
        <time>2014-07-22T15:55:54Z</time>
      </trkpt>
      <trkpt lat="44.06698" lon="-0.18877">
        <ele>106</ele>
        <time>2014-07-22T15:55:58Z</time>
      </trkpt>
      <trkpt lat="44.06693" lon="-0.18875">
        <ele>106</ele>
        <time>2014-07-22T15:56:03Z</time>
      </trkpt>
      <trkpt lat="44.06681" lon="-0.18861">
        <ele>105</ele>
        <time>2014-07-22T15:56:16Z</time>
      </trkpt>
      <trkpt lat="44.0668" lon="-0.18859">
        <ele>106</ele>
        <time>2014-07-22T15:56:17Z</time>
      </trkpt>
      <trkpt lat="44.06669" lon="-0.18849">
        <ele>106</ele>
        <time>2014-07-22T15:56:28Z</time>
      </trkpt>
      <trkpt lat="44.06669" lon="-0.18848">
        <ele>106</ele>
        <time>2014-07-22T15:56:29Z</time>
      </trkpt>
      <trkpt lat="44.06661" lon="-0.1884">
        <ele>105</ele>
        <time>2014-07-22T15:56:37Z</time>
      </trkpt>
      <trkpt lat="44.06657" lon="-0.18835">
        <ele>105</ele>
        <time>2014-07-22T15:56:42Z</time>
      </trkpt>
      <trkpt lat="44.06651" lon="-0.1883">
        <ele>106</ele>
        <time>2014-07-22T15:56:48Z</time>
      </trkpt>
      <trkpt lat="44.06641" lon="-0.1882">
        <ele>106</ele>
        <time>2014-07-22T15:56:58Z</time>
      </trkpt>
      <trkpt lat="44.0664" lon="-0.18819">
        <ele>106</ele>
        <time>2014-07-22T15:56:59Z</time>
      </trkpt>
      <trkpt lat="44.06626" lon="-0.18812">
        <ele>106</ele>
        <time>2014-07-22T15:57:12Z</time>
      </trkpt>
      <trkpt lat="44.0662" lon="-0.18808">
        <ele>106</ele>
        <time>2014-07-22T15:57:19Z</time>
      </trkpt>
      <trkpt lat="44.06608" lon="-0.18803">
        <ele>106</ele>
        <time>2014-07-22T15:57:32Z</time>
      </trkpt>
      <trkpt lat="44.06603" lon="-0.18801">
        <ele>106</ele>
        <time>2014-07-22T15:57:37Z</time>
      </trkpt>
      <trkpt lat="44.06593" lon="-0.18799">
        <ele>105</ele>
        <time>2014-07-22T15:57:45Z</time>
      </trkpt>
      <trkpt lat="44.0658" lon="-0.18795">
        <ele>106</ele>
        <time>2014-07-22T15:57:55Z</time>
      </trkpt>
      <trkpt lat="44.06571" lon="-0.18792">
        <ele>106</ele>
        <time>2014-07-22T15:58:02Z</time>
      </trkpt>
      <trkpt lat="44.06558" lon="-0.18791">
        <ele>106</ele>
        <time>2014-07-22T15:58:15Z</time>
      </trkpt>
      <trkpt lat="44.06546" lon="-0.18786">
        <ele>106</ele>
        <time>2014-07-22T15:58:25Z</time>
      </trkpt>
      <trkpt lat="44.06538" lon="-0.18782">
        <ele>106</ele>
        <time>2014-07-22T15:58:32Z</time>
      </trkpt>
      <trkpt lat="44.06526" lon="-0.18774">
        <ele>106</ele>
        <time>2014-07-22T15:58:42Z</time>
      </trkpt>
      <trkpt lat="44.06518" lon="-0.18772">
        <ele>106</ele>
        <time>2014-07-22T15:58:48Z</time>
      </trkpt>
      <trkpt lat="44.06515" lon="-0.18771">
        <ele>106</ele>
        <time>2014-07-22T15:58:51Z</time>
      </trkpt>
      <trkpt lat="44.06512" lon="-0.18771">
        <ele>106</ele>
        <time>2014-07-22T15:58:53Z</time>
      </trkpt>
      <trkpt lat="44.06503" lon="-0.18768">
        <ele>106</ele>
        <time>2014-07-22T15:59:01Z</time>
      </trkpt>
      <trkpt lat="44.06493" lon="-0.1876">
        <ele>106</ele>
        <time>2014-07-22T15:59:11Z</time>
      </trkpt>
      <trkpt lat="44.06492" lon="-0.18759">
        <ele>106</ele>
        <time>2014-07-22T15:59:12Z</time>
      </trkpt>
      <trkpt lat="44.06482" lon="-0.18757">
        <ele>106</ele>
        <time>2014-07-22T15:59:21Z</time>
      </trkpt>
      <trkpt lat="44.06477" lon="-0.18756">
        <ele>106</ele>
        <time>2014-07-22T15:59:25Z</time>
      </trkpt>
      <trkpt lat="44.06474" lon="-0.18755">
        <ele>106</ele>
        <time>2014-07-22T15:59:33Z</time>
      </trkpt>
      <trkpt lat="44.06473" lon="-0.18755">
        <ele>106</ele>
        <time>2014-07-22T15:59:35Z</time>
      </trkpt>
      <trkpt lat="44.06466" lon="-0.18751">
        <ele>106</ele>
        <time>2014-07-22T15:59:41Z</time>
      </trkpt>
      <trkpt lat="44.06464" lon="-0.18749">
        <ele>106</ele>
        <time>2014-07-22T15:59:43Z</time>
      </trkpt>
      <trkpt lat="44.06454" lon="-0.18747">
        <ele>107</ele>
        <time>2014-07-22T15:59:53Z</time>
      </trkpt>
      <trkpt lat="44.06449" lon="-0.18742">
        <ele>107</ele>
        <time>2014-07-22T15:59:58Z</time>
      </trkpt>
      <trkpt lat="44.06441" lon="-0.18736">
        <ele>107</ele>
        <time>2014-07-22T16:00:07Z</time>
      </trkpt>
      <trkpt lat="44.06431" lon="-0.18728">
        <ele>107</ele>
        <time>2014-07-22T16:00:17Z</time>
      </trkpt>
      <trkpt lat="44.06421" lon="-0.18719">
        <ele>107</ele>
        <time>2014-07-22T16:00:27Z</time>
      </trkpt>
      <trkpt lat="44.06419" lon="-0.18716">
        <ele>107</ele>
        <time>2014-07-22T16:00:30Z</time>
      </trkpt>
      <trkpt lat="44.06412" lon="-0.18712">
        <ele>107</ele>
        <time>2014-07-22T16:00:37Z</time>
      </trkpt>
      <trkpt lat="44.06399" lon="-0.18709">
        <ele>108</ele>
        <time>2014-07-22T16:00:48Z</time>
      </trkpt>
      <trkpt lat="44.06387" lon="-0.18703">
        <ele>108</ele>
        <time>2014-07-22T16:00:57Z</time>
      </trkpt>
      <trkpt lat="44.06385" lon="-0.18702">
        <ele>108</ele>
        <time>2014-07-22T16:00:58Z</time>
      </trkpt>
      <trkpt lat="44.06373" lon="-0.18695">
        <ele>108</ele>
        <time>2014-07-22T16:01:09Z</time>
      </trkpt>
      <trkpt lat="44.06361" lon="-0.18693">
        <ele>108</ele>
        <time>2014-07-22T16:01:18Z</time>
      </trkpt>
      <trkpt lat="44.0636" lon="-0.18693">
        <ele>108</ele>
        <time>2014-07-22T16:01:19Z</time>
      </trkpt>
      <trkpt lat="44.06344" lon="-0.18692">
        <ele>108</ele>
        <time>2014-07-22T16:01:32Z</time>
      </trkpt>
      <trkpt lat="44.06334" lon="-0.1869">
        <ele>108</ele>
        <time>2014-07-22T16:01:41Z</time>
      </trkpt>
      <trkpt lat="44.06332" lon="-0.18689">
        <ele>108</ele>
        <time>2014-07-22T16:01:44Z</time>
      </trkpt>
      <trkpt lat="44.06317" lon="-0.18685">
        <ele>108</ele>
        <time>2014-07-22T16:01:55Z</time>
      </trkpt>
      <trkpt lat="44.06304" lon="-0.18684">
        <ele>109</ele>
        <time>2014-07-22T16:02:05Z</time>
      </trkpt>
      <trkpt lat="44.06297" lon="-0.18683">
        <ele>109</ele>
        <time>2014-07-22T16:02:12Z</time>
      </trkpt>
      <trkpt lat="44.06295" lon="-0.18685">
        <ele>108</ele>
        <time>2014-07-22T16:02:14Z</time>
      </trkpt>
      <trkpt lat="44.06285" lon="-0.18687">
        <ele>108</ele>
        <time>2014-07-22T16:02:24Z</time>
      </trkpt>
      <trkpt lat="44.06284" lon="-0.18686">
        <ele>108</ele>
        <time>2014-07-22T16:02:26Z</time>
      </trkpt>
      <trkpt lat="44.06275" lon="-0.18685">
        <ele>109</ele>
        <time>2014-07-22T16:02:33Z</time>
      </trkpt>
      <trkpt lat="44.06264" lon="-0.18683">
        <ele>109</ele>
        <time>2014-07-22T16:02:40Z</time>
      </trkpt>
      <trkpt lat="44.06261" lon="-0.18681">
        <ele>109</ele>
        <time>2014-07-22T16:02:43Z</time>
      </trkpt>
      <trkpt lat="44.06249" lon="-0.18682">
        <ele>108</ele>
        <time>2014-07-22T16:02:53Z</time>
      </trkpt>
      <trkpt lat="44.06246" lon="-0.18681">
        <ele>108</ele>
        <time>2014-07-22T16:02:56Z</time>
      </trkpt>
      <trkpt lat="44.06243" lon="-0.18682">
        <ele>109</ele>
        <time>2014-07-22T16:02:58Z</time>
      </trkpt>
      <trkpt lat="44.06232" lon="-0.18681">
        <ele>109</ele>
        <time>2014-07-22T16:03:08Z</time>
      </trkpt>
      <trkpt lat="44.06228" lon="-0.18679">
        <ele>109</ele>
        <time>2014-07-22T16:03:12Z</time>
      </trkpt>
      <trkpt lat="44.06219" lon="-0.18677">
        <ele>109</ele>
        <time>2014-07-22T16:03:19Z</time>
      </trkpt>
      <trkpt lat="44.06205" lon="-0.18679">
        <ele>109</ele>
        <time>2014-07-22T16:03:29Z</time>
      </trkpt>
      <trkpt lat="44.06192" lon="-0.18678">
        <ele>109</ele>
        <time>2014-07-22T16:03:40Z</time>
      </trkpt>
      <trkpt lat="44.06183" lon="-0.18677">
        <ele>109</ele>
        <time>2014-07-22T16:03:49Z</time>
      </trkpt>
      <trkpt lat="44.06183" lon="-0.18677">
        <ele>109</ele>
        <time>2014-07-22T16:04:01Z</time>
      </trkpt>
      <trkpt lat="44.06183" lon="-0.18678">
        <ele>109</ele>
        <time>2014-07-22T16:04:16Z</time>
      </trkpt>
      <trkpt lat="44.06184" lon="-0.18677">
        <ele>109</ele>
        <time>2014-07-22T16:04:28Z</time>
      </trkpt>
      <trkpt lat="44.06184" lon="-0.18676">
        <ele>109</ele>
        <time>2014-07-22T16:04:41Z</time>
      </trkpt>
      <trkpt lat="44.06184" lon="-0.18675">
        <ele>109</ele>
        <time>2014-07-22T16:05:02Z</time>
      </trkpt>
      <trkpt lat="44.06183" lon="-0.18676">
        <ele>109</ele>
        <time>2014-07-22T16:05:04Z</time>
      </trkpt>
      <trkpt lat="44.06174" lon="-0.18673">
        <ele>109</ele>
        <time>2014-07-22T16:05:12Z</time>
      </trkpt>
      <trkpt lat="44.06172" lon="-0.18674">
        <ele>109</ele>
        <time>2014-07-22T16:05:14Z</time>
      </trkpt>
      <trkpt lat="44.06165" lon="-0.18672">
        <ele>109</ele>
        <time>2014-07-22T16:05:21Z</time>
      </trkpt>
      <trkpt lat="44.06159" lon="-0.18673">
        <ele>109</ele>
        <time>2014-07-22T16:05:26Z</time>
      </trkpt>
      <trkpt lat="44.06149" lon="-0.18674">
        <ele>109</ele>
        <time>2014-07-22T16:05:35Z</time>
      </trkpt>
      <trkpt lat="44.06139" lon="-0.18673">
        <ele>110</ele>
        <time>2014-07-22T16:05:44Z</time>
      </trkpt>
      <trkpt lat="44.06122" lon="-0.18668">
        <ele>110</ele>
        <time>2014-07-22T16:05:56Z</time>
      </trkpt>
      <trkpt lat="44.0612" lon="-0.18667">
        <ele>110</ele>
        <time>2014-07-22T16:05:58Z</time>
      </trkpt>
      <trkpt lat="44.06117" lon="-0.18666">
        <ele>110</ele>
        <time>2014-07-22T16:06:01Z</time>
      </trkpt>
      <trkpt lat="44.06099" lon="-0.1866">
        <ele>110</ele>
        <time>2014-07-22T16:06:13Z</time>
      </trkpt>
      <trkpt lat="44.06096" lon="-0.18658">
        <ele>110</ele>
        <time>2014-07-22T16:06:16Z</time>
      </trkpt>
      <trkpt lat="44.06091" lon="-0.18655">
        <ele>110</ele>
        <time>2014-07-22T16:06:20Z</time>
      </trkpt>
      <trkpt lat="44.06081" lon="-0.1865">
        <ele>110</ele>
        <time>2014-07-22T16:06:30Z</time>
      </trkpt>
      <trkpt lat="44.06079" lon="-0.1865">
        <ele>111</ele>
        <time>2014-07-22T16:06:37Z</time>
      </trkpt>
      <trkpt lat="44.06078" lon="-0.1865">
        <ele>111</ele>
        <time>2014-07-22T16:06:56Z</time>
      </trkpt>
      <trkpt lat="44.06079" lon="-0.18649">
        <ele>111</ele>
        <time>2014-07-22T16:07:09Z</time>
      </trkpt>
      <trkpt lat="44.06078" lon="-0.18648">
        <ele>111</ele>
        <time>2014-07-22T16:07:30Z</time>
      </trkpt>
      <trkpt lat="44.06075" lon="-0.18647">
        <ele>111</ele>
        <time>2014-07-22T16:07:39Z</time>
      </trkpt>
      <trkpt lat="44.06062" lon="-0.18648">
        <ele>111</ele>
        <time>2014-07-22T16:07:50Z</time>
      </trkpt>
      <trkpt lat="44.06061" lon="-0.18648">
        <ele>111</ele>
        <time>2014-07-22T16:07:51Z</time>
      </trkpt>
      <trkpt lat="44.06048" lon="-0.18651">
        <ele>111</ele>
        <time>2014-07-22T16:08:02Z</time>
      </trkpt>
      <trkpt lat="44.0604" lon="-0.18649">
        <ele>112</ele>
        <time>2014-07-22T16:08:10Z</time>
      </trkpt>
      <trkpt lat="44.06028" lon="-0.18647">
        <ele>112</ele>
        <time>2014-07-22T16:08:21Z</time>
      </trkpt>
      <trkpt lat="44.06017" lon="-0.18647">
        <ele>112</ele>
        <time>2014-07-22T16:08:29Z</time>
      </trkpt>
      <trkpt lat="44.06014" lon="-0.18647">
        <ele>112</ele>
        <time>2014-07-22T16:08:33Z</time>
      </trkpt>
      <trkpt lat="44.0601" lon="-0.18647">
        <ele>112</ele>
        <time>2014-07-22T16:08:35Z</time>
      </trkpt>
      <trkpt lat="44.05997" lon="-0.18647">
        <ele>113</ele>
        <time>2014-07-22T16:08:45Z</time>
      </trkpt>
      <trkpt lat="44.05987" lon="-0.18649">
        <ele>113</ele>
        <time>2014-07-22T16:08:52Z</time>
      </trkpt>
      <trkpt lat="44.05985" lon="-0.18653">
        <ele>113</ele>
        <time>2014-07-22T16:09:00Z</time>
      </trkpt>
      <trkpt lat="44.05987" lon="-0.18656">
        <ele>113</ele>
        <time>2014-07-22T16:09:03Z</time>
      </trkpt>
      <trkpt lat="44.05991" lon="-0.18669">
        <ele>112</ele>
        <time>2014-07-22T16:09:12Z</time>
      </trkpt>
      <trkpt lat="44.05993" lon="-0.18675">
        <ele>112</ele>
        <time>2014-07-22T16:09:15Z</time>
      </trkpt>
      <trkpt lat="44.05993" lon="-0.18688">
        <ele>112</ele>
        <time>2014-07-22T16:09:22Z</time>
      </trkpt>
      <trkpt lat="44.06005" lon="-0.18695">
        <ele>113</ele>
        <time>2014-07-22T16:09:32Z</time>
      </trkpt>
      <trkpt lat="44.06009" lon="-0.18699">
        <ele>113</ele>
        <time>2014-07-22T16:09:38Z</time>
      </trkpt>
      <trkpt lat="44.06008" lon="-0.18712">
        <ele>113</ele>
        <time>2014-07-22T16:09:47Z</time>
      </trkpt>
      <trkpt lat="44.06008" lon="-0.18713">
        <ele>113</ele>
        <time>2014-07-22T16:09:50Z</time>
      </trkpt>
      <trkpt lat="44.06009" lon="-0.18714">
        <ele>113</ele>
        <time>2014-07-22T16:09:53Z</time>
      </trkpt>
      <trkpt lat="44.06004" lon="-0.18729">
        <ele>113</ele>
        <time>2014-07-22T16:10:02Z</time>
      </trkpt>
      <trkpt lat="44.06004" lon="-0.18731">
        <ele>113</ele>
        <time>2014-07-22T16:10:04Z</time>
      </trkpt>
      <trkpt lat="44.06003" lon="-0.18741">
        <ele>113</ele>
        <time>2014-07-22T16:10:08Z</time>
      </trkpt>
      <trkpt lat="44.06001" lon="-0.18751">
        <ele>113</ele>
        <time>2014-07-22T16:10:13Z</time>
      </trkpt>
      <trkpt lat="44.06002" lon="-0.18752">
        <ele>113</ele>
        <time>2014-07-22T16:10:15Z</time>
      </trkpt>
      <trkpt lat="44.06002" lon="-0.18768">
        <ele>113</ele>
        <time>2014-07-22T16:10:22Z</time>
      </trkpt>
      <trkpt lat="44.06002" lon="-0.18771">
        <ele>113</ele>
        <time>2014-07-22T16:10:24Z</time>
      </trkpt>
      <trkpt lat="44.05999" lon="-0.18776">
        <ele>113</ele>
        <time>2014-07-22T16:10:27Z</time>
      </trkpt>
      <trkpt lat="44.06001" lon="-0.18786">
        <ele>113</ele>
        <time>2014-07-22T16:10:35Z</time>
      </trkpt>
      <trkpt lat="44.06001" lon="-0.18803">
        <ele>113</ele>
        <time>2014-07-22T16:10:45Z</time>
      </trkpt>
      <trkpt lat="44.06002" lon="-0.18803">
        <ele>113</ele>
        <time>2014-07-22T16:10:48Z</time>
      </trkpt>
      <trkpt lat="44.06002" lon="-0.18809">
        <ele>113</ele>
        <time>2014-07-22T16:10:56Z</time>
      </trkpt>
      <trkpt lat="44.06" lon="-0.18814">
        <ele>113</ele>
        <time>2014-07-22T16:10:58Z</time>
      </trkpt>
      <trkpt lat="44.05996" lon="-0.18821">
        <ele>113</ele>
        <time>2014-07-22T16:11:01Z</time>
      </trkpt>
      <trkpt lat="44.0599" lon="-0.18833">
        <ele>113</ele>
        <time>2014-07-22T16:11:06Z</time>
      </trkpt>
      <trkpt lat="44.05982" lon="-0.18847">
        <ele>113</ele>
        <time>2014-07-22T16:11:11Z</time>
      </trkpt>
      <trkpt lat="44.0598" lon="-0.18854">
        <ele>113</ele>
        <time>2014-07-22T16:11:16Z</time>
      </trkpt>
      <trkpt lat="44.05976" lon="-0.18864">
        <ele>113</ele>
        <time>2014-07-22T16:11:19Z</time>
      </trkpt>
      <trkpt lat="44.0597" lon="-0.18881">
        <ele>113</ele>
        <time>2014-07-22T16:11:27Z</time>
      </trkpt>
      <trkpt lat="44.05969" lon="-0.18886">
        <ele>114</ele>
        <time>2014-07-22T16:11:29Z</time>
      </trkpt>
      <trkpt lat="44.05952" lon="-0.18915">
        <ele>114</ele>
        <time>2014-07-22T16:11:38Z</time>
      </trkpt>
      <trkpt lat="44.05949" lon="-0.18931">
        <ele>114</ele>
        <time>2014-07-22T16:11:48Z</time>
      </trkpt>
      <trkpt lat="44.05949" lon="-0.18937">
        <ele>114</ele>
        <time>2014-07-22T16:11:52Z</time>
      </trkpt>
      <trkpt lat="44.05949" lon="-0.18943">
        <ele>113</ele>
        <time>2014-07-22T16:11:57Z</time>
      </trkpt>
      <trkpt lat="44.05947" lon="-0.1895">
        <ele>114</ele>
        <time>2014-07-22T16:12:01Z</time>
      </trkpt>
      <trkpt lat="44.05945" lon="-0.18964">
        <ele>113</ele>
        <time>2014-07-22T16:12:10Z</time>
      </trkpt>
      <trkpt lat="44.05945" lon="-0.18973">
        <ele>114</ele>
        <time>2014-07-22T16:12:14Z</time>
      </trkpt>
      <trkpt lat="44.05945" lon="-0.18984">
        <ele>114</ele>
        <time>2014-07-22T16:12:23Z</time>
      </trkpt>
      <trkpt lat="44.05948" lon="-0.18984">
        <ele>114</ele>
        <time>2014-07-22T16:12:25Z</time>
      </trkpt>
      <trkpt lat="44.05955" lon="-0.18988">
        <ele>114</ele>
        <time>2014-07-22T16:12:35Z</time>
      </trkpt>
      <trkpt lat="44.05953" lon="-0.18992">
        <ele>114</ele>
        <time>2014-07-22T16:12:47Z</time>
      </trkpt>
      <trkpt lat="44.05952" lon="-0.18994">
        <ele>114</ele>
        <time>2014-07-22T16:12:53Z</time>
      </trkpt>
      <trkpt lat="44.05947" lon="-0.19009">
        <ele>114</ele>
        <time>2014-07-22T16:12:59Z</time>
      </trkpt>
      <trkpt lat="44.05942" lon="-0.19031">
        <ele>114</ele>
        <time>2014-07-22T16:13:08Z</time>
      </trkpt>
      <trkpt lat="44.05944" lon="-0.19033">
        <ele>113</ele>
        <time>2014-07-22T16:13:11Z</time>
      </trkpt>
      <trkpt lat="44.05946" lon="-0.19036">
        <ele>113</ele>
        <time>2014-07-22T16:13:15Z</time>
      </trkpt>
      <trkpt lat="44.0595" lon="-0.19038">
        <ele>113</ele>
        <time>2014-07-22T16:13:18Z</time>
      </trkpt>
      <trkpt lat="44.05951" lon="-0.19045">
        <ele>113</ele>
        <time>2014-07-22T16:13:23Z</time>
      </trkpt>
      <trkpt lat="44.05952" lon="-0.19048">
        <ele>114</ele>
        <time>2014-07-22T16:13:25Z</time>
      </trkpt>
      <trkpt lat="44.05954" lon="-0.19053">
        <ele>114</ele>
        <time>2014-07-22T16:13:30Z</time>
      </trkpt>
      <trkpt lat="44.05953" lon="-0.19057">
        <ele>114</ele>
        <time>2014-07-22T16:13:31Z</time>
      </trkpt>
      <trkpt lat="44.05949" lon="-0.19071">
        <ele>113</ele>
        <time>2014-07-22T16:13:35Z</time>
      </trkpt>
      <trkpt lat="44.05949" lon="-0.19078">
        <ele>114</ele>
        <time>2014-07-22T16:13:40Z</time>
      </trkpt>
      <trkpt lat="44.05953" lon="-0.19082">
        <ele>114</ele>
        <time>2014-07-22T16:13:44Z</time>
      </trkpt>
      <trkpt lat="44.05953" lon="-0.19085">
        <ele>114</ele>
        <time>2014-07-22T16:13:46Z</time>
      </trkpt>
      <trkpt lat="44.0595" lon="-0.19095">
        <ele>114</ele>
        <time>2014-07-22T16:13:51Z</time>
      </trkpt>
      <trkpt lat="44.05945" lon="-0.19109">
        <ele>114</ele>
        <time>2014-07-22T16:13:59Z</time>
      </trkpt>
      <trkpt lat="44.05945" lon="-0.19116">
        <ele>114</ele>
        <time>2014-07-22T16:14:03Z</time>
      </trkpt>
      <trkpt lat="44.05948" lon="-0.19123">
        <ele>113</ele>
        <time>2014-07-22T16:14:09Z</time>
      </trkpt>
      <trkpt lat="44.0595" lon="-0.19133">
        <ele>114</ele>
        <time>2014-07-22T16:14:16Z</time>
      </trkpt>
      <trkpt lat="44.05952" lon="-0.19137">
        <ele>113</ele>
        <time>2014-07-22T16:14:18Z</time>
      </trkpt>
      <trkpt lat="44.05954" lon="-0.19139">
        <ele>113</ele>
        <time>2014-07-22T16:14:21Z</time>
      </trkpt>
      <trkpt lat="44.05953" lon="-0.19157">
        <ele>113</ele>
        <time>2014-07-22T16:14:29Z</time>
      </trkpt>
      <trkpt lat="44.05953" lon="-0.19162">
        <ele>114</ele>
        <time>2014-07-22T16:14:32Z</time>
      </trkpt>
      <trkpt lat="44.05951" lon="-0.19178">
        <ele>114</ele>
        <time>2014-07-22T16:14:40Z</time>
      </trkpt>
      <trkpt lat="44.05946" lon="-0.19192">
        <ele>113</ele>
        <time>2014-07-22T16:14:47Z</time>
      </trkpt>
      <trkpt lat="44.05947" lon="-0.19193">
        <ele>113</ele>
        <time>2014-07-22T16:14:48Z</time>
      </trkpt>
      <trkpt lat="44.05948" lon="-0.19198">
        <ele>113</ele>
        <time>2014-07-22T16:14:51Z</time>
      </trkpt>
      <trkpt lat="44.05946" lon="-0.19218">
        <ele>113</ele>
        <time>2014-07-22T16:15:00Z</time>
      </trkpt>
      <trkpt lat="44.05946" lon="-0.19219">
        <ele>113</ele>
        <time>2014-07-22T16:15:01Z</time>
      </trkpt>
      <trkpt lat="44.05944" lon="-0.1923">
        <ele>113</ele>
        <time>2014-07-22T16:15:06Z</time>
      </trkpt>
      <trkpt lat="44.05937" lon="-0.19251">
        <ele>113</ele>
        <time>2014-07-22T16:15:12Z</time>
      </trkpt>
      <trkpt lat="44.05934" lon="-0.1926">
        <ele>113</ele>
        <time>2014-07-22T16:15:16Z</time>
      </trkpt>
      <trkpt lat="44.05934" lon="-0.19266">
        <ele>113</ele>
        <time>2014-07-22T16:15:19Z</time>
      </trkpt>
      <trkpt lat="44.05934" lon="-0.19274">
        <ele>113</ele>
        <time>2014-07-22T16:15:24Z</time>
      </trkpt>
      <trkpt lat="44.05936" lon="-0.19282">
        <ele>113</ele>
        <time>2014-07-22T16:15:29Z</time>
      </trkpt>
      <trkpt lat="44.05941" lon="-0.19297">
        <ele>113</ele>
        <time>2014-07-22T16:15:39Z</time>
      </trkpt>
      <trkpt lat="44.05941" lon="-0.19312">
        <ele>113</ele>
        <time>2014-07-22T16:15:49Z</time>
      </trkpt>
      <trkpt lat="44.05938" lon="-0.19333">
        <ele>113</ele>
        <time>2014-07-22T16:16:00Z</time>
      </trkpt>
      <trkpt lat="44.05935" lon="-0.19349">
        <ele>113</ele>
        <time>2014-07-22T16:16:07Z</time>
      </trkpt>
      <trkpt lat="44.05937" lon="-0.19354">
        <ele>113</ele>
        <time>2014-07-22T16:16:10Z</time>
      </trkpt>
      <trkpt lat="44.05939" lon="-0.19367">
        <ele>113</ele>
        <time>2014-07-22T16:16:18Z</time>
      </trkpt>
      <trkpt lat="44.05944" lon="-0.19378">
        <ele>113</ele>
        <time>2014-07-22T16:16:27Z</time>
      </trkpt>
      <trkpt lat="44.05947" lon="-0.19386">
        <ele>113</ele>
        <time>2014-07-22T16:16:35Z</time>
      </trkpt>
      <trkpt lat="44.05947" lon="-0.19398">
        <ele>113</ele>
        <time>2014-07-22T16:16:44Z</time>
      </trkpt>
      <trkpt lat="44.05947" lon="-0.19417">
        <ele>113</ele>
        <time>2014-07-22T16:16:53Z</time>
      </trkpt>
      <trkpt lat="44.05944" lon="-0.19441">
        <ele>113</ele>
        <time>2014-07-22T16:17:01Z</time>
      </trkpt>
      <trkpt lat="44.05945" lon="-0.19457">
        <ele>113</ele>
        <time>2014-07-22T16:17:10Z</time>
      </trkpt>
      <trkpt lat="44.05946" lon="-0.19461">
        <ele>113</ele>
        <time>2014-07-22T16:17:12Z</time>
      </trkpt>
      <trkpt lat="44.05947" lon="-0.19476">
        <ele>113</ele>
        <time>2014-07-22T16:17:21Z</time>
      </trkpt>
      <trkpt lat="44.05947" lon="-0.1948">
        <ele>113</ele>
        <time>2014-07-22T16:17:23Z</time>
      </trkpt>
      <trkpt lat="44.05947" lon="-0.19485">
        <ele>113</ele>
        <time>2014-07-22T16:17:26Z</time>
      </trkpt>
      <trkpt lat="44.05948" lon="-0.195">
        <ele>113</ele>
        <time>2014-07-22T16:17:34Z</time>
      </trkpt>
      <trkpt lat="44.05949" lon="-0.19516">
        <ele>112</ele>
        <time>2014-07-22T16:17:43Z</time>
      </trkpt>
      <trkpt lat="44.05948" lon="-0.19522">
        <ele>112</ele>
        <time>2014-07-22T16:17:46Z</time>
      </trkpt>
      <trkpt lat="44.05952" lon="-0.19532">
        <ele>113</ele>
        <time>2014-07-22T16:17:52Z</time>
      </trkpt>
      <trkpt lat="44.05956" lon="-0.19554">
        <ele>112</ele>
        <time>2014-07-22T16:18:04Z</time>
      </trkpt>
      <trkpt lat="44.05958" lon="-0.1957">
        <ele>112</ele>
        <time>2014-07-22T16:18:14Z</time>
      </trkpt>
      <trkpt lat="44.05961" lon="-0.19585">
        <ele>113</ele>
        <time>2014-07-22T16:18:24Z</time>
      </trkpt>
      <trkpt lat="44.05957" lon="-0.19585">
        <ele>113</ele>
        <time>2014-07-22T16:18:33Z</time>
      </trkpt>
      <trkpt lat="44.05954" lon="-0.19582">
        <ele>113</ele>
        <time>2014-07-22T16:18:36Z</time>
      </trkpt>
      <trkpt lat="44.05944" lon="-0.19579">
        <ele>114</ele>
        <time>2014-07-22T16:18:46Z</time>
      </trkpt>
      <trkpt lat="44.05934" lon="-0.19575">
        <ele>114</ele>
        <time>2014-07-22T16:18:59Z</time>
      </trkpt>
      <trkpt lat="44.05933" lon="-0.19574">
        <ele>114</ele>
        <time>2014-07-22T16:19:04Z</time>
      </trkpt>
      <trkpt lat="44.05923" lon="-0.19571">
        <ele>114</ele>
        <time>2014-07-22T16:19:12Z</time>
      </trkpt>
      <trkpt lat="44.0591" lon="-0.19568">
        <ele>114</ele>
        <time>2014-07-22T16:19:24Z</time>
      </trkpt>
      <trkpt lat="44.05903" lon="-0.19566">
        <ele>114</ele>
        <time>2014-07-22T16:19:30Z</time>
      </trkpt>
      <trkpt lat="44.05891" lon="-0.19561">
        <ele>115</ele>
        <time>2014-07-22T16:19:40Z</time>
      </trkpt>
      <trkpt lat="44.05889" lon="-0.1956">
        <ele>115</ele>
        <time>2014-07-22T16:19:42Z</time>
      </trkpt>
      <trkpt lat="44.05883" lon="-0.19558">
        <ele>114</ele>
        <time>2014-07-22T16:19:47Z</time>
      </trkpt>
      <trkpt lat="44.05878" lon="-0.19554">
        <ele>115</ele>
        <time>2014-07-22T16:19:52Z</time>
      </trkpt>
      <trkpt lat="44.05875" lon="-0.19552">
        <ele>115</ele>
        <time>2014-07-22T16:19:54Z</time>
      </trkpt>
      <trkpt lat="44.05868" lon="-0.19547">
        <ele>115</ele>
        <time>2014-07-22T16:20:01Z</time>
      </trkpt>
      <trkpt lat="44.05856" lon="-0.19539">
        <ele>115</ele>
        <time>2014-07-22T16:20:12Z</time>
      </trkpt>
      <trkpt lat="44.05843" lon="-0.19528">
        <ele>116</ele>
        <time>2014-07-22T16:20:25Z</time>
      </trkpt>
      <trkpt lat="44.05829" lon="-0.19518">
        <ele>116</ele>
        <time>2014-07-22T16:20:37Z</time>
      </trkpt>
      <trkpt lat="44.05821" lon="-0.1951">
        <ele>116</ele>
        <time>2014-07-22T16:20:45Z</time>
      </trkpt>
      <trkpt lat="44.05814" lon="-0.19506">
        <ele>116</ele>
        <time>2014-07-22T16:20:50Z</time>
      </trkpt>
      <trkpt lat="44.05811" lon="-0.19505">
        <ele>116</ele>
        <time>2014-07-22T16:20:52Z</time>
      </trkpt>
      <trkpt lat="44.05799" lon="-0.195">
        <ele>116</ele>
        <time>2014-07-22T16:21:02Z</time>
      </trkpt>
      <trkpt lat="44.05797" lon="-0.19499">
        <ele>116</ele>
        <time>2014-07-22T16:21:04Z</time>
      </trkpt>
      <trkpt lat="44.05794" lon="-0.19498">
        <ele>116</ele>
        <time>2014-07-22T16:21:06Z</time>
      </trkpt>
      <trkpt lat="44.05788" lon="-0.19496">
        <ele>116</ele>
        <time>2014-07-22T16:21:10Z</time>
      </trkpt>
      <trkpt lat="44.05785" lon="-0.19494">
        <ele>116</ele>
        <time>2014-07-22T16:21:13Z</time>
      </trkpt>
      <trkpt lat="44.05774" lon="-0.19485">
        <ele>115</ele>
        <time>2014-07-22T16:21:23Z</time>
      </trkpt>
      <trkpt lat="44.05766" lon="-0.19481">
        <ele>115</ele>
        <time>2014-07-22T16:21:29Z</time>
      </trkpt>
      <trkpt lat="44.05754" lon="-0.19474">
        <ele>115</ele>
        <time>2014-07-22T16:21:40Z</time>
      </trkpt>
      <trkpt lat="44.05749" lon="-0.19471">
        <ele>115</ele>
        <time>2014-07-22T16:21:44Z</time>
      </trkpt>
      <trkpt lat="44.0574" lon="-0.19467">
        <ele>115</ele>
        <time>2014-07-22T16:21:52Z</time>
      </trkpt>
      <trkpt lat="44.0573" lon="-0.19461">
        <ele>115</ele>
        <time>2014-07-22T16:22:02Z</time>
      </trkpt>
      <trkpt lat="44.05726" lon="-0.19459">
        <ele>115</ele>
        <time>2014-07-22T16:22:05Z</time>
      </trkpt>
      <trkpt lat="44.05721" lon="-0.19455">
        <ele>115</ele>
        <time>2014-07-22T16:22:10Z</time>
      </trkpt>
      <trkpt lat="44.05711" lon="-0.19452">
        <ele>115</ele>
        <time>2014-07-22T16:22:20Z</time>
      </trkpt>
      <trkpt lat="44.05707" lon="-0.19451">
        <ele>115</ele>
        <time>2014-07-22T16:22:24Z</time>
      </trkpt>
      <trkpt lat="44.05704" lon="-0.19449">
        <ele>115</ele>
        <time>2014-07-22T16:22:26Z</time>
      </trkpt>
      <trkpt lat="44.0569" lon="-0.19445">
        <ele>115</ele>
        <time>2014-07-22T16:22:37Z</time>
      </trkpt>
      <trkpt lat="44.05677" lon="-0.19439">
        <ele>115</ele>
        <time>2014-07-22T16:22:48Z</time>
      </trkpt>
      <trkpt lat="44.05673" lon="-0.19435">
        <ele>115</ele>
        <time>2014-07-22T16:22:52Z</time>
      </trkpt>
      <trkpt lat="44.05664" lon="-0.19429">
        <ele>116</ele>
        <time>2014-07-22T16:22:58Z</time>
      </trkpt>
      <trkpt lat="44.05661" lon="-0.19428">
        <ele>116</ele>
        <time>2014-07-22T16:23:00Z</time>
      </trkpt>
      <trkpt lat="44.05654" lon="-0.19428">
        <ele>116</ele>
        <time>2014-07-22T16:23:07Z</time>
      </trkpt>
      <trkpt lat="44.05643" lon="-0.19425">
        <ele>116</ele>
        <time>2014-07-22T16:23:16Z</time>
      </trkpt>
      <trkpt lat="44.05634" lon="-0.19426">
        <ele>116</ele>
        <time>2014-07-22T16:23:25Z</time>
      </trkpt>
      <trkpt lat="44.05629" lon="-0.19427">
        <ele>116</ele>
        <time>2014-07-22T16:23:31Z</time>
      </trkpt>
      <trkpt lat="44.05609" lon="-0.19427">
        <ele>116</ele>
        <time>2014-07-22T16:23:45Z</time>
      </trkpt>
      <trkpt lat="44.05594" lon="-0.19431">
        <ele>116</ele>
        <time>2014-07-22T16:23:56Z</time>
      </trkpt>
      <trkpt lat="44.05585" lon="-0.19429">
        <ele>116</ele>
        <time>2014-07-22T16:24:06Z</time>
      </trkpt>
      <trkpt lat="44.05579" lon="-0.19432">
        <ele>116</ele>
        <time>2014-07-22T16:24:12Z</time>
      </trkpt>
      <trkpt lat="44.05568" lon="-0.19433">
        <ele>116</ele>
        <time>2014-07-22T16:24:21Z</time>
      </trkpt>
      <trkpt lat="44.05556" lon="-0.19433">
        <ele>116</ele>
        <time>2014-07-22T16:24:31Z</time>
      </trkpt>
      <trkpt lat="44.05545" lon="-0.19433">
        <ele>116</ele>
        <time>2014-07-22T16:24:40Z</time>
      </trkpt>
      <trkpt lat="44.05542" lon="-0.19433">
        <ele>116</ele>
        <time>2014-07-22T16:24:42Z</time>
      </trkpt>
      <trkpt lat="44.05535" lon="-0.19431">
        <ele>116</ele>
        <time>2014-07-22T16:24:47Z</time>
      </trkpt>
      <trkpt lat="44.05522" lon="-0.19426">
        <ele>116</ele>
        <time>2014-07-22T16:24:56Z</time>
      </trkpt>
      <trkpt lat="44.0551" lon="-0.19426">
        <ele>116</ele>
        <time>2014-07-22T16:25:06Z</time>
      </trkpt>
      <trkpt lat="44.05509" lon="-0.19426">
        <ele>116</ele>
        <time>2014-07-22T16:25:07Z</time>
      </trkpt>
      <trkpt lat="44.05496" lon="-0.19426">
        <ele>116</ele>
        <time>2014-07-22T16:25:18Z</time>
      </trkpt>
      <trkpt lat="44.05493" lon="-0.19426">
        <ele>117</ele>
        <time>2014-07-22T16:25:20Z</time>
      </trkpt>
      <trkpt lat="44.05488" lon="-0.19425">
        <ele>117</ele>
        <time>2014-07-22T16:25:23Z</time>
      </trkpt>
      <trkpt lat="44.05477" lon="-0.19417">
        <ele>117</ele>
        <time>2014-07-22T16:25:35Z</time>
      </trkpt>
      <trkpt lat="44.05466" lon="-0.19413">
        <ele>117</ele>
        <time>2014-07-22T16:25:45Z</time>
      </trkpt>
      <trkpt lat="44.05455" lon="-0.19409">
        <ele>117</ele>
        <time>2014-07-22T16:25:54Z</time>
      </trkpt>
      <trkpt lat="44.05449" lon="-0.19407">
        <ele>117</ele>
        <time>2014-07-22T16:25:59Z</time>
      </trkpt>
      <trkpt lat="44.05436" lon="-0.19407">
        <ele>118</ele>
        <time>2014-07-22T16:26:08Z</time>
      </trkpt>
      <trkpt lat="44.05434" lon="-0.19407">
        <ele>118</ele>
        <time>2014-07-22T16:26:10Z</time>
      </trkpt>
      <trkpt lat="44.05429" lon="-0.19406">
        <ele>118</ele>
        <time>2014-07-22T16:26:14Z</time>
      </trkpt>
      <trkpt lat="44.05417" lon="-0.19403">
        <ele>118</ele>
        <time>2014-07-22T16:26:23Z</time>
      </trkpt>
      <trkpt lat="44.05407" lon="-0.19399">
        <ele>118</ele>
        <time>2014-07-22T16:26:32Z</time>
      </trkpt>
      <trkpt lat="44.05399" lon="-0.19398">
        <ele>118</ele>
        <time>2014-07-22T16:26:38Z</time>
      </trkpt>
      <trkpt lat="44.05388" lon="-0.19394">
        <ele>118</ele>
        <time>2014-07-22T16:26:47Z</time>
      </trkpt>
      <trkpt lat="44.0538" lon="-0.19381">
        <ele>118</ele>
        <time>2014-07-22T16:26:56Z</time>
      </trkpt>
      <trkpt lat="44.05379" lon="-0.1938">
        <ele>118</ele>
        <time>2014-07-22T16:26:57Z</time>
      </trkpt>
      <trkpt lat="44.05378" lon="-0.19364">
        <ele>118</ele>
        <time>2014-07-22T16:27:04Z</time>
      </trkpt>
      <trkpt lat="44.05374" lon="-0.1935">
        <ele>118</ele>
        <time>2014-07-22T16:27:13Z</time>
      </trkpt>
      <trkpt lat="44.05366" lon="-0.19333">
        <ele>118</ele>
        <time>2014-07-22T16:27:25Z</time>
      </trkpt>
      <trkpt lat="44.05362" lon="-0.19323">
        <ele>117</ele>
        <time>2014-07-22T16:27:32Z</time>
      </trkpt>
      <trkpt lat="44.05361" lon="-0.19318">
        <ele>117</ele>
        <time>2014-07-22T16:27:35Z</time>
      </trkpt>
      <trkpt lat="44.05359" lon="-0.19307">
        <ele>118</ele>
        <time>2014-07-22T16:27:41Z</time>
      </trkpt>
      <trkpt lat="44.05355" lon="-0.19294">
        <ele>117</ele>
        <time>2014-07-22T16:27:49Z</time>
      </trkpt>
      <trkpt lat="44.05351" lon="-0.19281">
        <ele>117</ele>
        <time>2014-07-22T16:27:57Z</time>
      </trkpt>
      <trkpt lat="44.05349" lon="-0.19279">
        <ele>117</ele>
        <time>2014-07-22T16:27:59Z</time>
      </trkpt>
      <trkpt lat="44.05346" lon="-0.1927">
        <ele>117</ele>
        <time>2014-07-22T16:28:05Z</time>
      </trkpt>
      <trkpt lat="44.05343" lon="-0.19264">
        <ele>117</ele>
        <time>2014-07-22T16:28:10Z</time>
      </trkpt>
      <trkpt lat="44.05338" lon="-0.19252">
        <ele>117</ele>
        <time>2014-07-22T16:28:19Z</time>
      </trkpt>
      <trkpt lat="44.05332" lon="-0.19235">
        <ele>117</ele>
        <time>2014-07-22T16:28:30Z</time>
      </trkpt>
      <trkpt lat="44.05327" lon="-0.19218">
        <ele>117</ele>
        <time>2014-07-22T16:28:41Z</time>
      </trkpt>
      <trkpt lat="44.05326" lon="-0.19211">
        <ele>118</ele>
        <time>2014-07-22T16:28:46Z</time>
      </trkpt>
      <trkpt lat="44.05319" lon="-0.19197">
        <ele>118</ele>
        <time>2014-07-22T16:28:56Z</time>
      </trkpt>
      <trkpt lat="44.05313" lon="-0.19188">
        <ele>118</ele>
        <time>2014-07-22T16:29:04Z</time>
      </trkpt>
      <trkpt lat="44.0531" lon="-0.19181">
        <ele>119</ele>
        <time>2014-07-22T16:29:08Z</time>
      </trkpt>
      <trkpt lat="44.05308" lon="-0.19176">
        <ele>118</ele>
        <time>2014-07-22T16:29:11Z</time>
      </trkpt>
      <trkpt lat="44.05304" lon="-0.19169">
        <ele>118</ele>
        <time>2014-07-22T16:29:17Z</time>
      </trkpt>
      <trkpt lat="44.05302" lon="-0.19166">
        <ele>118</ele>
        <time>2014-07-22T16:29:19Z</time>
      </trkpt>
      <trkpt lat="44.05302" lon="-0.19158">
        <ele>118</ele>
        <time>2014-07-22T16:29:24Z</time>
      </trkpt>
      <trkpt lat="44.05302" lon="-0.19154">
        <ele>118</ele>
        <time>2014-07-22T16:29:26Z</time>
      </trkpt>
      <trkpt lat="44.05299" lon="-0.19141">
        <ele>118</ele>
        <time>2014-07-22T16:29:33Z</time>
      </trkpt>
      <trkpt lat="44.05298" lon="-0.19136">
        <ele>118</ele>
        <time>2014-07-22T16:29:36Z</time>
      </trkpt>
      <trkpt lat="44.05293" lon="-0.1912">
        <ele>118</ele>
        <time>2014-07-22T16:29:46Z</time>
      </trkpt>
      <trkpt lat="44.05289" lon="-0.1911">
        <ele>118</ele>
        <time>2014-07-22T16:29:53Z</time>
      </trkpt>
      <trkpt lat="44.05287" lon="-0.19106">
        <ele>118</ele>
        <time>2014-07-22T16:29:56Z</time>
      </trkpt>
      <trkpt lat="44.05284" lon="-0.19096">
        <ele>118</ele>
        <time>2014-07-22T16:30:03Z</time>
      </trkpt>
      <trkpt lat="44.05282" lon="-0.19092">
        <ele>118</ele>
        <time>2014-07-22T16:30:06Z</time>
      </trkpt>
      <trkpt lat="44.05277" lon="-0.19077">
        <ele>118</ele>
        <time>2014-07-22T16:30:15Z</time>
      </trkpt>
      <trkpt lat="44.05272" lon="-0.19061">
        <ele>118</ele>
        <time>2014-07-22T16:30:25Z</time>
      </trkpt>
      <trkpt lat="44.05272" lon="-0.1906">
        <ele>118</ele>
        <time>2014-07-22T16:30:26Z</time>
      </trkpt>
      <trkpt lat="44.05271" lon="-0.19055">
        <ele>118</ele>
        <time>2014-07-22T16:30:29Z</time>
      </trkpt>
      <trkpt lat="44.05268" lon="-0.19044">
        <ele>118</ele>
        <time>2014-07-22T16:30:36Z</time>
      </trkpt>
      <trkpt lat="44.05266" lon="-0.19036">
        <ele>118</ele>
        <time>2014-07-22T16:30:41Z</time>
      </trkpt>
      <trkpt lat="44.05265" lon="-0.19031">
        <ele>118</ele>
        <time>2014-07-22T16:30:44Z</time>
      </trkpt>
      <trkpt lat="44.05263" lon="-0.19022">
        <ele>118</ele>
        <time>2014-07-22T16:30:49Z</time>
      </trkpt>
      <trkpt lat="44.05261" lon="-0.19014">
        <ele>118</ele>
        <time>2014-07-22T16:30:54Z</time>
      </trkpt>
      <trkpt lat="44.05258" lon="-0.19004">
        <ele>118</ele>
        <time>2014-07-22T16:31:01Z</time>
      </trkpt>
      <trkpt lat="44.05253" lon="-0.1899">
        <ele>118</ele>
        <time>2014-07-22T16:31:10Z</time>
      </trkpt>
      <trkpt lat="44.05251" lon="-0.18984">
        <ele>119</ele>
        <time>2014-07-22T16:31:14Z</time>
      </trkpt>
      <trkpt lat="44.0525" lon="-0.18979">
        <ele>118</ele>
        <time>2014-07-22T16:31:17Z</time>
      </trkpt>
      <trkpt lat="44.05247" lon="-0.18969">
        <ele>118</ele>
        <time>2014-07-22T16:31:23Z</time>
      </trkpt>
      <trkpt lat="44.05247" lon="-0.1896">
        <ele>118</ele>
        <time>2014-07-22T16:31:27Z</time>
      </trkpt>
      <trkpt lat="44.05244" lon="-0.18949">
        <ele>118</ele>
        <time>2014-07-22T16:31:33Z</time>
      </trkpt>
      <trkpt lat="44.05244" lon="-0.18944">
        <ele>119</ele>
        <time>2014-07-22T16:31:36Z</time>
      </trkpt>
      <trkpt lat="44.05244" lon="-0.18931">
        <ele>118</ele>
        <time>2014-07-22T16:31:43Z</time>
      </trkpt>
      <trkpt lat="44.05243" lon="-0.18927">
        <ele>118</ele>
        <time>2014-07-22T16:31:46Z</time>
      </trkpt>
      <trkpt lat="44.05238" lon="-0.18913">
        <ele>118</ele>
        <time>2014-07-22T16:31:56Z</time>
      </trkpt>
      <trkpt lat="44.05236" lon="-0.18903">
        <ele>118</ele>
        <time>2014-07-22T16:32:02Z</time>
      </trkpt>
      <trkpt lat="44.05235" lon="-0.18892">
        <ele>119</ele>
        <time>2014-07-22T16:32:08Z</time>
      </trkpt>
      <trkpt lat="44.05234" lon="-0.18888">
        <ele>119</ele>
        <time>2014-07-22T16:32:11Z</time>
      </trkpt>
      <trkpt lat="44.05232" lon="-0.18882">
        <ele>119</ele>
        <time>2014-07-22T16:32:15Z</time>
      </trkpt>
      <trkpt lat="44.05231" lon="-0.18876">
        <ele>119</ele>
        <time>2014-07-22T16:32:19Z</time>
      </trkpt>
      <trkpt lat="44.05228" lon="-0.18865">
        <ele>119</ele>
        <time>2014-07-22T16:32:25Z</time>
      </trkpt>
      <trkpt lat="44.05228" lon="-0.1886">
        <ele>119</ele>
        <time>2014-07-22T16:32:28Z</time>
      </trkpt>
      <trkpt lat="44.05226" lon="-0.18845">
        <ele>119</ele>
        <time>2014-07-22T16:32:37Z</time>
      </trkpt>
      <trkpt lat="44.05225" lon="-0.18839">
        <ele>118</ele>
        <time>2014-07-22T16:32:47Z</time>
      </trkpt>
      <trkpt lat="44.05225" lon="-0.18839">
        <ele>118</ele>
        <time>2014-07-22T16:32:48Z</time>
      </trkpt>
      <trkpt lat="44.05224" lon="-0.18829">
        <ele>119</ele>
        <time>2014-07-22T16:32:56Z</time>
      </trkpt>
      <trkpt lat="44.0522" lon="-0.18814">
        <ele>119</ele>
        <time>2014-07-22T16:33:05Z</time>
      </trkpt>
      <trkpt lat="44.05219" lon="-0.18812">
        <ele>119</ele>
        <time>2014-07-22T16:33:07Z</time>
      </trkpt>
      <trkpt lat="44.05214" lon="-0.18809">
        <ele>119</ele>
        <time>2014-07-22T16:33:11Z</time>
      </trkpt>
      <trkpt lat="44.05207" lon="-0.1881">
        <ele>119</ele>
        <time>2014-07-22T16:33:19Z</time>
      </trkpt>
      <trkpt lat="44.05201" lon="-0.1881">
        <ele>119</ele>
        <time>2014-07-22T16:33:32Z</time>
      </trkpt>
      <trkpt lat="44.05204" lon="-0.1881">
        <ele>119</ele>
        <time>2014-07-22T16:33:35Z</time>
      </trkpt>
      <trkpt lat="44.05213" lon="-0.18807">
        <ele>119</ele>
        <time>2014-07-22T16:33:42Z</time>
      </trkpt>
      <trkpt lat="44.05216" lon="-0.1879">
        <ele>119</ele>
        <time>2014-07-22T16:33:53Z</time>
      </trkpt>
      <trkpt lat="44.05214" lon="-0.18778">
        <ele>119</ele>
        <time>2014-07-22T16:34:02Z</time>
      </trkpt>
      <trkpt lat="44.05214" lon="-0.18776">
        <ele>119</ele>
        <time>2014-07-22T16:34:03Z</time>
      </trkpt>
      <trkpt lat="44.05208" lon="-0.18758">
        <ele>120</ele>
        <time>2014-07-22T16:34:13Z</time>
      </trkpt>
      <trkpt lat="44.05206" lon="-0.18755">
        <ele>120</ele>
        <time>2014-07-22T16:34:15Z</time>
      </trkpt>
      <trkpt lat="44.05204" lon="-0.18737">
        <ele>119</ele>
        <time>2014-07-22T16:34:26Z</time>
      </trkpt>
      <trkpt lat="44.05201" lon="-0.18725">
        <ele>119</ele>
        <time>2014-07-22T16:34:35Z</time>
      </trkpt>
      <trkpt lat="44.05199" lon="-0.18715">
        <ele>120</ele>
        <time>2014-07-22T16:34:42Z</time>
      </trkpt>
      <trkpt lat="44.05196" lon="-0.18705">
        <ele>120</ele>
        <time>2014-07-22T16:34:48Z</time>
      </trkpt>
      <trkpt lat="44.0519" lon="-0.18689">
        <ele>120</ele>
        <time>2014-07-22T16:34:57Z</time>
      </trkpt>
      <trkpt lat="44.05189" lon="-0.18684">
        <ele>120</ele>
        <time>2014-07-22T16:34:59Z</time>
      </trkpt>
      <trkpt lat="44.0519" lon="-0.18668">
        <ele>120</ele>
        <time>2014-07-22T16:35:08Z</time>
      </trkpt>
      <trkpt lat="44.05186" lon="-0.18652">
        <ele>120</ele>
        <time>2014-07-22T16:35:18Z</time>
      </trkpt>
      <trkpt lat="44.05182" lon="-0.18646">
        <ele>120</ele>
        <time>2014-07-22T16:35:23Z</time>
      </trkpt>
      <trkpt lat="44.05182" lon="-0.18633">
        <ele>120</ele>
        <time>2014-07-22T16:35:30Z</time>
      </trkpt>
      <trkpt lat="44.05181" lon="-0.1862">
        <ele>120</ele>
        <time>2014-07-22T16:35:38Z</time>
      </trkpt>
      <trkpt lat="44.05178" lon="-0.18615">
        <ele>120</ele>
        <time>2014-07-22T16:35:42Z</time>
      </trkpt>
      <trkpt lat="44.05173" lon="-0.18602">
        <ele>120</ele>
        <time>2014-07-22T16:35:52Z</time>
      </trkpt>
      <trkpt lat="44.0517" lon="-0.18596">
        <ele>120</ele>
        <time>2014-07-22T16:35:56Z</time>
      </trkpt>
      <trkpt lat="44.05166" lon="-0.18586">
        <ele>120</ele>
        <time>2014-07-22T16:36:02Z</time>
      </trkpt>
      <trkpt lat="44.05166" lon="-0.18578">
        <ele>121</ele>
        <time>2014-07-22T16:36:06Z</time>
      </trkpt>
      <trkpt lat="44.05166" lon="-0.1857">
        <ele>121</ele>
        <time>2014-07-22T16:36:10Z</time>
      </trkpt>
      <trkpt lat="44.05165" lon="-0.18561">
        <ele>121</ele>
        <time>2014-07-22T16:36:18Z</time>
      </trkpt>
      <trkpt lat="44.0516" lon="-0.18546">
        <ele>120</ele>
        <time>2014-07-22T16:36:26Z</time>
      </trkpt>
      <trkpt lat="44.05155" lon="-0.18531">
        <ele>121</ele>
        <time>2014-07-22T16:36:37Z</time>
      </trkpt>
      <trkpt lat="44.05154" lon="-0.18516">
        <ele>121</ele>
        <time>2014-07-22T16:36:48Z</time>
      </trkpt>
      <trkpt lat="44.0515" lon="-0.18491">
        <ele>122</ele>
        <time>2014-07-22T16:37:00Z</time>
      </trkpt>
      <trkpt lat="44.0515" lon="-0.18489">
        <ele>122</ele>
        <time>2014-07-22T16:37:02Z</time>
      </trkpt>
      <trkpt lat="44.05147" lon="-0.18476">
        <ele>122</ele>
        <time>2014-07-22T16:37:11Z</time>
      </trkpt>
      <trkpt lat="44.05147" lon="-0.18471">
        <ele>122</ele>
        <time>2014-07-22T16:37:14Z</time>
      </trkpt>
      <trkpt lat="44.05146" lon="-0.18462">
        <ele>122</ele>
        <time>2014-07-22T16:37:18Z</time>
      </trkpt>
      <trkpt lat="44.0514" lon="-0.18441">
        <ele>122</ele>
        <time>2014-07-22T16:37:30Z</time>
      </trkpt>
      <trkpt lat="44.05139" lon="-0.18427">
        <ele>122</ele>
        <time>2014-07-22T16:37:39Z</time>
      </trkpt>
      <trkpt lat="44.05137" lon="-0.18416">
        <ele>122</ele>
        <time>2014-07-22T16:37:49Z</time>
      </trkpt>
      <trkpt lat="44.05136" lon="-0.18402">
        <ele>122</ele>
        <time>2014-07-22T16:37:58Z</time>
      </trkpt>
      <trkpt lat="44.05132" lon="-0.18389">
        <ele>122</ele>
        <time>2014-07-22T16:38:07Z</time>
      </trkpt>
      <trkpt lat="44.05131" lon="-0.18371">
        <ele>123</ele>
        <time>2014-07-22T16:38:16Z</time>
      </trkpt>
      <trkpt lat="44.05131" lon="-0.18353">
        <ele>122</ele>
        <time>2014-07-22T16:38:25Z</time>
      </trkpt>
      <trkpt lat="44.0513" lon="-0.18336">
        <ele>123</ele>
        <time>2014-07-22T16:38:35Z</time>
      </trkpt>
      <trkpt lat="44.05127" lon="-0.18321">
        <ele>123</ele>
        <time>2014-07-22T16:38:45Z</time>
      </trkpt>
      <trkpt lat="44.05125" lon="-0.18309">
        <ele>123</ele>
        <time>2014-07-22T16:38:52Z</time>
      </trkpt>
      <trkpt lat="44.05124" lon="-0.18302">
        <ele>123</ele>
        <time>2014-07-22T16:38:56Z</time>
      </trkpt>
      <trkpt lat="44.05123" lon="-0.1829">
        <ele>123</ele>
        <time>2014-07-22T16:39:03Z</time>
      </trkpt>
      <trkpt lat="44.05121" lon="-0.18277">
        <ele>123</ele>
        <time>2014-07-22T16:39:12Z</time>
      </trkpt>
      <trkpt lat="44.0512" lon="-0.18273">
        <ele>123</ele>
        <time>2014-07-22T16:39:14Z</time>
      </trkpt>
      <trkpt lat="44.05116" lon="-0.18259">
        <ele>123</ele>
        <time>2014-07-22T16:39:25Z</time>
      </trkpt>
      <trkpt lat="44.05115" lon="-0.18257">
        <ele>124</ele>
        <time>2014-07-22T16:39:27Z</time>
      </trkpt>
      <trkpt lat="44.0511" lon="-0.18246">
        <ele>123</ele>
        <time>2014-07-22T16:39:35Z</time>
      </trkpt>
      <trkpt lat="44.05107" lon="-0.18242">
        <ele>123</ele>
        <time>2014-07-22T16:39:39Z</time>
      </trkpt>
      <trkpt lat="44.05096" lon="-0.18239">
        <ele>123</ele>
        <time>2014-07-22T16:39:49Z</time>
      </trkpt>
      <trkpt lat="44.05086" lon="-0.18239">
        <ele>123</ele>
        <time>2014-07-22T16:39:57Z</time>
      </trkpt>
      <trkpt lat="44.05079" lon="-0.18241">
        <ele>122</ele>
        <time>2014-07-22T16:40:05Z</time>
      </trkpt>
      <trkpt lat="44.05077" lon="-0.18241">
        <ele>122</ele>
        <time>2014-07-22T16:40:07Z</time>
      </trkpt>
      <trkpt lat="44.05068" lon="-0.18246">
        <ele>122</ele>
        <time>2014-07-22T16:40:17Z</time>
      </trkpt>
      <trkpt lat="44.05068" lon="-0.18246">
        <ele>122</ele>
        <time>2014-07-22T16:40:19Z</time>
      </trkpt>
      <trkpt lat="44.05055" lon="-0.18254">
        <ele>122</ele>
        <time>2014-07-22T16:40:29Z</time>
      </trkpt>
      <trkpt lat="44.05041" lon="-0.18264">
        <ele>122</ele>
        <time>2014-07-22T16:40:40Z</time>
      </trkpt>
      <trkpt lat="44.0503" lon="-0.18273">
        <ele>122</ele>
        <time>2014-07-22T16:40:49Z</time>
      </trkpt>
      <trkpt lat="44.05023" lon="-0.18279">
        <ele>121</ele>
        <time>2014-07-22T16:40:56Z</time>
      </trkpt>
      <trkpt lat="44.05022" lon="-0.1828">
        <ele>121</ele>
        <time>2014-07-22T16:40:57Z</time>
      </trkpt>
      <trkpt lat="44.05011" lon="-0.18291">
        <ele>121</ele>
        <time>2014-07-22T16:41:09Z</time>
      </trkpt>
      <trkpt lat="44.05007" lon="-0.18294">
        <ele>121</ele>
        <time>2014-07-22T16:41:13Z</time>
      </trkpt>
      <trkpt lat="44.04996" lon="-0.18304">
        <ele>121</ele>
        <time>2014-07-22T16:41:26Z</time>
      </trkpt>
      <trkpt lat="44.04986" lon="-0.18314">
        <ele>121</ele>
        <time>2014-07-22T16:41:36Z</time>
      </trkpt>
      <trkpt lat="44.04975" lon="-0.18324">
        <ele>121</ele>
        <time>2014-07-22T16:41:45Z</time>
      </trkpt>
      <trkpt lat="44.04973" lon="-0.18327">
        <ele>121</ele>
        <time>2014-07-22T16:41:48Z</time>
      </trkpt>
      <trkpt lat="44.04965" lon="-0.18333">
        <ele>121</ele>
        <time>2014-07-22T16:41:54Z</time>
      </trkpt>
      <trkpt lat="44.04962" lon="-0.18336">
        <ele>121</ele>
        <time>2014-07-22T16:41:57Z</time>
      </trkpt>
      <trkpt lat="44.04954" lon="-0.18344">
        <ele>120</ele>
        <time>2014-07-22T16:42:05Z</time>
      </trkpt>
      <trkpt lat="44.04944" lon="-0.18353">
        <ele>120</ele>
        <time>2014-07-22T16:42:16Z</time>
      </trkpt>
      <trkpt lat="44.04939" lon="-0.18357">
        <ele>120</ele>
        <time>2014-07-22T16:42:24Z</time>
      </trkpt>
      <trkpt lat="44.04925" lon="-0.18365">
        <ele>120</ele>
        <time>2014-07-22T16:42:35Z</time>
      </trkpt>
      <trkpt lat="44.04924" lon="-0.18366">
        <ele>120</ele>
        <time>2014-07-22T16:42:36Z</time>
      </trkpt>
      <trkpt lat="44.04913" lon="-0.18375">
        <ele>120</ele>
        <time>2014-07-22T16:42:46Z</time>
      </trkpt>
      <trkpt lat="44.04907" lon="-0.1838">
        <ele>120</ele>
        <time>2014-07-22T16:42:51Z</time>
      </trkpt>
      <trkpt lat="44.04901" lon="-0.18387">
        <ele>120</ele>
        <time>2014-07-22T16:42:55Z</time>
      </trkpt>
      <trkpt lat="44.0489" lon="-0.184">
        <ele>120</ele>
        <time>2014-07-22T16:43:08Z</time>
      </trkpt>
      <trkpt lat="44.04889" lon="-0.18401">
        <ele>121</ele>
        <time>2014-07-22T16:43:10Z</time>
      </trkpt>
      <trkpt lat="44.04884" lon="-0.18406">
        <ele>120</ele>
        <time>2014-07-22T16:43:15Z</time>
      </trkpt>
      <trkpt lat="44.04877" lon="-0.18414">
        <ele>120</ele>
        <time>2014-07-22T16:43:20Z</time>
      </trkpt>
      <trkpt lat="44.04866" lon="-0.18424">
        <ele>120</ele>
        <time>2014-07-22T16:43:31Z</time>
      </trkpt>
      <trkpt lat="44.04862" lon="-0.18427">
        <ele>120</ele>
        <time>2014-07-22T16:43:35Z</time>
      </trkpt>
      <trkpt lat="44.04853" lon="-0.18438">
        <ele>119</ele>
        <time>2014-07-22T16:43:43Z</time>
      </trkpt>
      <trkpt lat="44.04845" lon="-0.18448">
        <ele>120</ele>
        <time>2014-07-22T16:43:51Z</time>
      </trkpt>
      <trkpt lat="44.04839" lon="-0.18456">
        <ele>119</ele>
        <time>2014-07-22T16:44:01Z</time>
      </trkpt>
      <trkpt lat="44.04838" lon="-0.18457">
        <ele>120</ele>
        <time>2014-07-22T16:44:02Z</time>
      </trkpt>
      <trkpt lat="44.04829" lon="-0.18466">
        <ele>119</ele>
        <time>2014-07-22T16:44:11Z</time>
      </trkpt>
      <trkpt lat="44.04826" lon="-0.1847">
        <ele>119</ele>
        <time>2014-07-22T16:44:14Z</time>
      </trkpt>
      <trkpt lat="44.04824" lon="-0.18473">
        <ele>120</ele>
        <time>2014-07-22T16:44:16Z</time>
      </trkpt>
      <trkpt lat="44.04811" lon="-0.18488">
        <ele>119</ele>
        <time>2014-07-22T16:44:28Z</time>
      </trkpt>
      <trkpt lat="44.04807" lon="-0.18493">
        <ele>119</ele>
        <time>2014-07-22T16:44:32Z</time>
      </trkpt>
      <trkpt lat="44.04799" lon="-0.18503">
        <ele>119</ele>
        <time>2014-07-22T16:44:41Z</time>
      </trkpt>
      <trkpt lat="44.04796" lon="-0.18506">
        <ele>119</ele>
        <time>2014-07-22T16:44:45Z</time>
      </trkpt>
      <trkpt lat="44.04792" lon="-0.18513">
        <ele>119</ele>
        <time>2014-07-22T16:44:52Z</time>
      </trkpt>
      <trkpt lat="44.04786" lon="-0.1852">
        <ele>118</ele>
        <time>2014-07-22T16:45:01Z</time>
      </trkpt>
      <trkpt lat="44.04785" lon="-0.18521">
        <ele>119</ele>
        <time>2014-07-22T16:45:03Z</time>
      </trkpt>
      <trkpt lat="44.04783" lon="-0.18523">
        <ele>118</ele>
        <time>2014-07-22T16:45:05Z</time>
      </trkpt>
      <trkpt lat="44.04774" lon="-0.1853">
        <ele>118</ele>
        <time>2014-07-22T16:45:14Z</time>
      </trkpt>
      <trkpt lat="44.04774" lon="-0.1853">
        <ele>118</ele>
        <time>2014-07-22T16:45:15Z</time>
      </trkpt>
      <trkpt lat="44.04772" lon="-0.18531">
        <ele>118</ele>
        <time>2014-07-22T16:45:17Z</time>
      </trkpt>
      <trkpt lat="44.04768" lon="-0.18531">
        <ele>118</ele>
        <time>2014-07-22T16:45:20Z</time>
      </trkpt>
      <trkpt lat="44.04759" lon="-0.18536">
        <ele>118</ele>
        <time>2014-07-22T16:45:27Z</time>
      </trkpt>
      <trkpt lat="44.04744" lon="-0.18538">
        <ele>119</ele>
        <time>2014-07-22T16:45:38Z</time>
      </trkpt>
      <trkpt lat="44.04743" lon="-0.18538">
        <ele>119</ele>
        <time>2014-07-22T16:45:39Z</time>
      </trkpt>
      <trkpt lat="44.04728" lon="-0.18538">
        <ele>119</ele>
        <time>2014-07-22T16:45:51Z</time>
      </trkpt>
      <trkpt lat="44.04714" lon="-0.18541">
        <ele>119</ele>
        <time>2014-07-22T16:46:02Z</time>
      </trkpt>
      <trkpt lat="44.04701" lon="-0.1854">
        <ele>118</ele>
        <time>2014-07-22T16:46:12Z</time>
      </trkpt>
      <trkpt lat="44.04691" lon="-0.18539">
        <ele>118</ele>
        <time>2014-07-22T16:46:20Z</time>
      </trkpt>
      <trkpt lat="44.04688" lon="-0.18538">
        <ele>118</ele>
        <time>2014-07-22T16:46:23Z</time>
      </trkpt>
      <trkpt lat="44.04683" lon="-0.18536">
        <ele>118</ele>
        <time>2014-07-22T16:46:27Z</time>
      </trkpt>
      <trkpt lat="44.04678" lon="-0.18534">
        <ele>118</ele>
        <time>2014-07-22T16:46:31Z</time>
      </trkpt>
      <trkpt lat="44.0467" lon="-0.18533">
        <ele>118</ele>
        <time>2014-07-22T16:46:38Z</time>
      </trkpt>
      <trkpt lat="44.04657" lon="-0.18535">
        <ele>118</ele>
        <time>2014-07-22T16:46:50Z</time>
      </trkpt>
      <trkpt lat="44.04653" lon="-0.18535">
        <ele>118</ele>
        <time>2014-07-22T16:46:53Z</time>
      </trkpt>
      <trkpt lat="44.04648" lon="-0.18536">
        <ele>118</ele>
        <time>2014-07-22T16:46:57Z</time>
      </trkpt>
      <trkpt lat="44.04638" lon="-0.18533">
        <ele>118</ele>
        <time>2014-07-22T16:47:07Z</time>
      </trkpt>
      <trkpt lat="44.04628" lon="-0.18531">
        <ele>118</ele>
        <time>2014-07-22T16:47:15Z</time>
      </trkpt>
      <trkpt lat="44.04625" lon="-0.18531">
        <ele>118</ele>
        <time>2014-07-22T16:47:18Z</time>
      </trkpt>
      <trkpt lat="44.04614" lon="-0.18533">
        <ele>118</ele>
        <time>2014-07-22T16:47:28Z</time>
      </trkpt>
      <trkpt lat="44.04608" lon="-0.18534">
        <ele>118</ele>
        <time>2014-07-22T16:47:33Z</time>
      </trkpt>
      <trkpt lat="44.04594" lon="-0.1853">
        <ele>118</ele>
        <time>2014-07-22T16:47:45Z</time>
      </trkpt>
      <trkpt lat="44.04583" lon="-0.18533">
        <ele>118</ele>
        <time>2014-07-22T16:47:55Z</time>
      </trkpt>
      <trkpt lat="44.04576" lon="-0.18533">
        <ele>118</ele>
        <time>2014-07-22T16:48:03Z</time>
      </trkpt>
      <trkpt lat="44.04566" lon="-0.18537">
        <ele>118</ele>
        <time>2014-07-22T16:48:11Z</time>
      </trkpt>
      <trkpt lat="44.04566" lon="-0.18538">
        <ele>119</ele>
        <time>2014-07-22T16:48:13Z</time>
      </trkpt>
      <trkpt lat="44.04566" lon="-0.18538">
        <ele>119</ele>
        <time>2014-07-22T16:48:22Z</time>
      </trkpt>
      <trkpt lat="44.04563" lon="-0.18537">
        <ele>118</ele>
        <time>2014-07-22T16:48:27Z</time>
      </trkpt>
      <trkpt lat="44.0456" lon="-0.18538">
        <ele>119</ele>
        <time>2014-07-22T16:48:36Z</time>
      </trkpt>
      <trkpt lat="44.04559" lon="-0.18538">
        <ele>119</ele>
        <time>2014-07-22T16:48:40Z</time>
      </trkpt>
      <trkpt lat="44.04557" lon="-0.18538">
        <ele>118</ele>
        <time>2014-07-22T16:48:42Z</time>
      </trkpt>
      <trkpt lat="44.0455" lon="-0.18539">
        <ele>118</ele>
        <time>2014-07-22T16:48:47Z</time>
      </trkpt>
      <trkpt lat="44.04537" lon="-0.18539">
        <ele>119</ele>
        <time>2014-07-22T16:48:59Z</time>
      </trkpt>
      <trkpt lat="44.04527" lon="-0.18543">
        <ele>120</ele>
        <time>2014-07-22T16:49:10Z</time>
      </trkpt>
      <trkpt lat="44.04512" lon="-0.18549">
        <ele>119</ele>
        <time>2014-07-22T16:49:21Z</time>
      </trkpt>
      <trkpt lat="44.04499" lon="-0.18557">
        <ele>119</ele>
        <time>2014-07-22T16:49:31Z</time>
      </trkpt>
      <trkpt lat="44.04487" lon="-0.18562">
        <ele>119</ele>
        <time>2014-07-22T16:49:41Z</time>
      </trkpt>
      <trkpt lat="44.04483" lon="-0.18564">
        <ele>119</ele>
        <time>2014-07-22T16:49:45Z</time>
      </trkpt>
      <trkpt lat="44.04472" lon="-0.18566">
        <ele>119</ele>
        <time>2014-07-22T16:49:55Z</time>
      </trkpt>
      <trkpt lat="44.04471" lon="-0.18565">
        <ele>119</ele>
        <time>2014-07-22T16:49:57Z</time>
      </trkpt>
      <trkpt lat="44.04462" lon="-0.18548">
        <ele>118</ele>
        <time>2014-07-22T16:50:10Z</time>
      </trkpt>
      <trkpt lat="44.04461" lon="-0.18542">
        <ele>118</ele>
        <time>2014-07-22T16:50:14Z</time>
      </trkpt>
      <trkpt lat="44.04458" lon="-0.18538">
        <ele>118</ele>
        <time>2014-07-22T16:50:18Z</time>
      </trkpt>
      <trkpt lat="44.04452" lon="-0.18537">
        <ele>118</ele>
        <time>2014-07-22T16:50:29Z</time>
      </trkpt>
      <trkpt lat="44.04451" lon="-0.18537">
        <ele>118</ele>
        <time>2014-07-22T16:50:39Z</time>
      </trkpt>
      <trkpt lat="44.04451" lon="-0.18538">
        <ele>118</ele>
        <time>2014-07-22T16:50:40Z</time>
      </trkpt>
      <trkpt lat="44.04451" lon="-0.18537">
        <ele>118</ele>
        <time>2014-07-22T16:50:49Z</time>
      </trkpt>
      <trkpt lat="44.0445" lon="-0.18538">
        <ele>118</ele>
        <time>2014-07-22T16:50:59Z</time>
      </trkpt>
      <trkpt lat="44.0445" lon="-0.18538">
        <ele>118</ele>
        <time>2014-07-22T16:51:00Z</time>
      </trkpt>
      <trkpt lat="44.04449" lon="-0.18535">
        <ele>119</ele>
        <time>2014-07-22T16:51:10Z</time>
      </trkpt>
      <trkpt lat="44.04449" lon="-0.18535">
        <ele>118</ele>
        <time>2014-07-22T16:51:13Z</time>
      </trkpt>
    </trkseg>
  </trk>
</gpx>